GFSSE_con_sbcape_000.txt.gz
CAPE
112 453 1006 1258 1518 1589 1455 1612 1741 1901 1994 1858 1651 1531 1591 1576 1568 1591 1512 1194 1706 1094 875 908 1043 1238 1372 1090 963 1464 1412 1862 1697 1592 1736 1538 1179 1427 1539 1611 1467 1171 1586
160 611 1006 1353 1681 1937 1951 1899 1959 2042 2142 1841 1781 1682 1663 1473 1437 1590 964 662 658 641 601 958 1127 1263 1633 1481 1212 1354 1392 1372 1795 2109 2179 2088 1927 1585 1483 1676 1349 1246 1351
433 663 944 1372 1607 1887 2010 1945 2150 2419 2135 2107 1911 1701 1566 1362 1303 1637 992 614 433 466 526 884 1122 1473 1708 1472 1423 1387 1282 1312 1434 1706 2138 1347 1492 2077 1445 1762 1552 1842 1553
428 620 1030 1458 1700 1930 2109 2447 2620 2670 2427 2311 2172 1966 1785 1661 1627 1580 1093 597 435 434 766 851 698 1171 1356 1093 1051 1250 1160 1167 1305 1554 1684 1361 1360 1718 1427 1739 1533 1488 1499
531 631 1234 1404 1573 1865 1933 2085 2417 2747 2837 2678 2422 2285 2124 1871 1734 1853 1081 359 474 459 555 759 1052 1064 1345 895 952 911 918 1066 996 860 870 1227 1169 1454 1301 1695 1487 1635 1633
426 551 1241 1368 1600 1879 1830 1796 2006 2216 2356 2330 2213 2199 2127 1889 1644 1541 1073 716 734 777 831 1002 1118 1479 1459 1056 767 903 894 606 526 424 506 927 1126 1044 1496 1586 1231 1525 1580
481 604 1003 1339 1598 1913 1806 1825 1943 1952 2103 2357 2369 2270 2159 1980 1563 660 621 964 805 991 811 707 614 416 657 605 412 609 594 424 260 436 489 579 739 1120 1252 1793 1558 1244 1397
623 782 796 1124 1302 1591 1702 1657 1655 1741 1837 1888 2028 2151 1949 1601 1403 1154 986 995 845 928 905 739 690 522 444 393 592 105 146 255 361 332 448 340 479 982 1263 1581 1414 1149 1271
603 681 641 717 800 897 1007 1135 1293 1552 1708 1554 1425 1512 1397 1256 1084 783 603 492 332 333 212 226 256 408 412 300 277 162 208 361 107 105 209 237 492 785 1055 1174 1574 1093 1304
591 495 396 282 161 119 316 679 901 1185 1452 1244 895 689 610 719 557 362 61 171 142 142 120 84 37 17 0 0 0 0 0 0 0 0 0 0 114 457 1005 1071 1470 1438 1307
711 425 212 134 18 0 0 207 621 951 1199 1119 670 416 157 0 0 0 8 24 108 34 5 2 0 0 0 0 0 0 0 0 0 0 0 18 47 247 592 1209 1411 1156 1275
933 660 209 148 32 0 0 4 34 148 557 768 488 79 0 0 0 0 0 0 0 0 0 0 0 0 0 0 0 0 0 0 0 0 0 0 0 52 248 541 837 952 705
734 775 529 288 153 36 0 0 0 0 2 62 271 16 0 0 0 0 0 0 0 0 0 0 0 0 0 0 0 0 0 0 0 0 0 0 0 2 57 118 371 499 635
388 784 506 425 376 147 36 14 0 0 0 0 0 0 0 0 0 0 0 0 0 0 0 0 0 0 0 0 0 0 0 0 0 0 0 0 0 7 96 154 146 280 444
61 43 9 0 11 0 0 0 0 0 0 0 0 0 0 0 0 0 0 0 0 0 0 0 0 0 0 0 0 0 0 0 0 0 0 0 0 0 0 0 158 221 228
0 0 0 0 0 0 0 0 0 0 0 0 0 0 0 0 0 0 0 0 0 0 0 0 0 0 0 0 0 0 0 0 0 0 0 0 0 0 0 0 0 15 274
0 0 0 0 0 0 0 0 0 0 0 0 0 0 0 0 0 0 0 0 0 0 0 0 0 0 0 0 0 0 0 0 0 0 0 0 0 0 0 0 0 0 1
0 0 0 0 0 0 0 0 0 0 0 0 0 0 0 0 0 0 0 0 0 0 0 0 0 0 0 0 0 0 0 0 0 0 0 0 0 0 0 0 0 30 39
0 0 0 0 0 0 0 0 0 0 0 0 0 0 0 0 0 0 0 0 0 0 0 0 0 0 0 0 0 0 0 0 0 0 0 0 0 0 0 0 0 50 35
0 0 0 0 0 0 0 0 0 0 0 0 0 0 0 0 0 0 0 0 0 0 0 0 0 0 0 0 0 0 0 0 0 0 0 0 0 0 0 0 0 0 0
0 0 0 0 0 0 0 0 0 0 0 0 0 0 0 0 0 0 0 0 0 0 0 0 0 0 0 0 0 0 0 0 0 0 0 0 0 0 0 0 0 0 0
0 0 0 0 0 0 0 0 0 0 0 0 0 0 0 0 0 0 0 0 0 0 0 0 0 0 0 0 0 0 0 0 0 0 0 0 0 0 0 0 0 0 0
0 0 0 0 0 0 0 0 0 0 0 0 0 0 0 0 0 0 0 0 0 0 0 0 0 0 0 0 0 0 0 0 0 0 0 0 0 0 0 0 0 0 0
0 0 0 0 0 0 0 0 0 0 0 0 0 0 0 0 0 0 0 0 0 0 0 0 0 0 0 0 0 0 0 0 0 0 0 0 0 0 0 0 0 0 0
0 0 0 0 0 0 0 0 0 0 0 0 0 0 0 0 0 0 0 0 0 0 0 0 0 0 0 0 0 0 0 0 0 0 0 0 0 0 0 0 0 0 0
0 0 0 0 0 0 0 0 0 0 0 0 0 0 0 0 0 0 0 0 0 0 0 0 0 0 0 0 0 0 0 0 0 0 0 0 0 0 0 0 0 0 0

GFSSE_con_sbcape_003.txt.gz
CAPE
389 748 875 1017 1190 1410 1578 1468 1532 1620 1785 1685 1626 1723 1823 1774 1762 1228 1024 930 882 735 653 858 1053 1318 1522 1340 1251 1328 1483 1861 1444 1510 1888 1816 1715 1855 1936 1936 1741 1231 1719
609 974 998 1223 1346 1571 1743 1552 1593 1912 1903 1907 1802 1803 1716 1752 1910 1413 1055 890 801 747 764 931 1066 1535 1727 1752 1371 1516 1399 1550 1916 1891 2102 2296 2155 1904 1856 2022 1559 1396 1881
851 1032 1205 1316 1498 1583 1703 1831 1878 2100 2081 1983 1885 1714 1549 1645 1708 1524 1197 814 705 665 944 1042 958 1572 1966 1771 1633 1603 1465 1316 1492 1563 2027 754 630 2345 1976 1937 1797 1846 1862
782 1019 1225 1434 1674 1914 2097 2183 2431 2469 2338 2226 1998 1836 1713 1730 1840 1866 1317 549 575 572 822 1097 1454 1245 1211 1076 977 1138 1294 1441 1365 1187 919 854 1116 2068 1979 1936 1785 1726 1504
724 1005 1332 1443 1587 1821 2134 2519 2784 2955 2813 2546 2319 2263 2149 1966 1911 1865 1106 572 776 924 1059 1253 1343 1534 1603 1685 1395 1187 1292 1062 1175 1122 1206 992 1242 1447 1693 1992 1749 1817 1713
602 1004 1226 1359 1614 1776 1843 1962 2201 2339 2393 2295 2155 2181 2154 2050 1885 1333 1165 1096 958 1066 1166 1076 925 692 831 1322 1239 1217 1012 923 835 1370 1240 1118 1154 1053 1543 2003 1645 1573 1364
496 882 1134 1282 1485 1744 1781 1805 1796 1904 2103 2221 2191 2171 2068 1796 1392 934 718 978 1039 1129 1106 1064 858 614 478 462 446 451 627 732 850 785 1037 1102 888 1224 1208 1094 1512 1326 1311
385 766 1002 1264 1440 1522 1614 1614 1573 1717 1814 1815 1805 1947 1853 1593 1413 1262 1135 820 673 480 515 540 730 987 949 842 795 691 551 739 971 1047 983 991 814 900 796 1050 1254 1349 1110
570 712 882 884 895 882 958 1017 1186 1454 1486 1375 1319 1176 1133 1197 915 683 559 417 289 309 322 241 286 272 206 171 136 111 203 274 1110 834 554 539 288 606 703 637 1207 1172 1153
650 668 709 632 379 440 627 571 808 1060 1262 981 747 481 419 435 227 210 1 55 137 166 130 73 27 8 0 0 0 0 0 0 226 213 180 253 183 389 498 531 1040 1593 1232
563 570 453 321 106 73 210 412 516 781 1049 912 513 234 155 225 87 11 3 0 5 1 0 0 0 0 0 0 0 0 0 0 0 0 0 0 15 162 314 603 659 1159 1439
739 713 372 360 242 12 3 357 514 524 944 1137 917 502 279 252 115 55 1 0 0 0 0 0 0 0 0 0 0 0 0 0 0 1 0 0 10 66 148 209 361 757 940
1054 922 407 472 402 124 2 307 279 263 548 819 988 830 391 289 271 154 37 0 0 0 0 0 0 0 0 0 0 0 0 0 0 0 0 2 16 112 193 242 267 293 554
1287 1389 1140 672 643 820 725 509 361 246 306 577 684 584 595 456 241 46 0 0 1 2 1 0 2 0 0 0 0 0 0 0 0 0 0 0 0 0 0 0 45 259 325
1226 1329 1366 1108 1056 1227 711 623 506 429 388 545 638 574 338 286 229 13 0 0 0 2 1 2 0 0 0 0 0 0 0 0 0 0 0 0 0 0 0 0 0 0 124
622 919 799 440 477 439 94 176 144 150 359 359 498 573 360 204 181 55 39 23 30 0 1 0 0 0 0 0 0 0 0 0 0 0 0 0 0 0 0 0 0 0 0
304 184 57 123 76 130 0 0 0 0 0 6 43 74 71 62 67 77 119 149 129 91 17 0 0 0 0 0 0 0 0 0 0 0 0 0 0 0 0 0 0 4 4
0 0 0 0 12 48 7 6 2 0 0 0 0 0 0 0 14 68 95 129 144 135 57 0 0 0 0 0 0 0 0 0 0 0 0 0 0 0 0 0 0 0 0
0 0 0 0 23 31 9 7 3 0 0 0 0 0 0 0 10 40 45 40 61 41 13 0 0 0 0 0 0 0 0 0 0 0 0 0 0 0 0 0 0 0 0
0 0 0 0 2 7 0 0 0 0 0 0 0 0 0 0 0 7 0 0 0 0 0 0 0 0 0 0 0 0 0 0 0 0 0 0 0 0 0 0 0 0 0
0 0 0 0 0 0 0 0 0 0 0 0 0 0 0 0 0 0 0 0 0 0 0 0 0 0 0 0 0 0 0 0 0 0 0 0 0 0 0 0 0 0 0
0 0 0 0 0 0 0 0 0 0 0 0 0 0 0 0 0 0 0 0 0 0 0 4 0 0 0 0 0 0 0 0 0 0 0 0 0 0 0 0 0 0 0
0 0 0 0 0 0 0 0 0 0 0 0 0 0 0 0 0 0 0 0 0 0 0 4 3 0 0 0 0 0 0 0 0 0 0 0 0 0 0 0 0 0 0
0 0 0 0 0 0 0 0 0 0 0 0 0 0 0 0 0 0 0 0 0 0 0 0 0 0 4 4 0 0 0 0 0 0 0 0 0 0 0 0 0 0 0
0 0 0 0 0 0 0 0 0 0 0 0 0 0 0 0 0 0 0 0 0 0 0 0 0 0 0 0 0 0 0 0 0 0 0 0 0 0 0 0 0 0 0
0 0 0 0 0 0 0 0 0 0 0 0 0 0 0 0 0 0 0 0 0 0 0 0 0 0 0 0 0 0 0 0 0 0 0 0 0 0 0 0 0 0 0

GFSSE_con_sbcape_006.txt.gz
CAPE
338 730 808 917 1052 1198 1212 1297 1268 1370 1687 1657 1704 1747 1834 1505 1295 1205 1106 971 884 892 932 983 1080 1295 1501 1502 1504 1107 1444 1571 1328 1477 1715 1711 1740 1895 1948 1896 1645 1168 1463
525 930 864 1142 1409 1488 1486 1446 1476 1559 1763 1642 1655 1635 1917 1764 1508 1205 1033 977 893 900 1075 1181 1063 1490 1808 1859 1732 1499 1512 1681 1776 1731 1835 1689 2029 1862 2090 1899 1471 1386 1419
607 1012 1167 1208 1508 1754 1790 1773 1783 1806 1876 1840 1764 1574 1437 1685 1714 1499 1131 832 756 732 932 1349 1393 1530 1639 1575 1303 1620 1643 1747 1504 1726 1807 683 737 2127 2015 1974 1698 1684 1747
645 1124 1292 1215 1591 1851 1903 1922 2087 2037 2122 1982 1811 1767 1786 1782 1896 1535 907 746 878 994 1202 1316 1407 1692 1626 1488 1381 1338 1294 1338 1512 1440 892 824 654 1869 2180 2024 1827 1628 1595
570 850 1225 1266 1512 1839 2145 2311 2422 2415 2243 2219 2139 2113 2025 1941 1707 1458 1063 908 1039 1186 1288 1402 1253 980 1139 1549 1357 1311 1326 1461 1262 1269 1316 1198 945 1279 1514 1924 1755 1678 1512
321 586 861 1140 1428 1561 1616 1730 1895 2043 2041 1929 1839 1940 1906 1800 1299 755 916 1003 1020 1183 1185 1211 1038 833 638 693 1108 1322 1145 1331 1043 1218 1320 1287 800 1247 1114 1375 1592 1396 1551
187 388 441 1022 1221 1407 1491 1465 1458 1652 1803 1845 1840 1818 1658 1447 1300 1004 1019 1068 1104 1051 808 865 1100 1170 1108 1017 787 582 552 977 1287 1250 1376 1283 1217 954 763 663 1289 1327 1374
202 404 422 783 1101 1309 1403 1350 1367 1481 1489 1469 1555 1672 1443 1275 1157 1089 826 610 491 429 403 409 422 494 495 498 615 827 907 885 880 1246 990 1031 915 983 882 923 789 1292 1399
154 326 519 544 690 800 847 922 1087 1362 1269 1116 1007 906 1022 947 710 570 432 251 228 215 166 90 81 105 93 65 28 58 103 192 1292 1149 941 862 388 676 659 626 454 596 1151
375 380 627 795 658 760 748 471 636 866 1043 759 552 317 359 425 193 43 0 21 44 16 12 0 0 0 0 0 0 0 0 14 657 726 686 493 152 400 577 344 412 242 857
591 819 918 832 754 670 474 457 232 533 838 682 465 154 262 540 505 153 0 0 0 0 0 0 0 0 0 0 0 0 0 93 147 141 202 0 18 173 268 345 417 422 581
906 1122 1173 1254 1046 745 220 704 652 535 688 1066 1150 1221 836 912 750 168 1 0 0 0 0 0 0 0 0 0 0 0 0 7 11 16 55 8 59 156 250 266 299 369 397
1135 1279 1243 1486 1436 1079 290 480 348 307 445 712 1358 1550 1203 1143 868 599 422 99 51 0 0 0 0 0 0 0 0 0 0 0 0 0 0 0 0 0 1 27 193 319 284
1074 1330 1487 1443 1642 1622 656 312 363 388 369 505 719 1441 1216 863 730 632 246 11 0 0 1 0 0 0 0 0 0 0 0 0 0 0 0 0 0 0 0 0 0 0 150
1051 1593 1885 1888 1747 1138 1240 473 604 627 330 576 571 499 919 583 418 197 20 0 0 0 2 9 4 0 0 0 0 0 0 0 0 0 0 0 0 0 0 0 0 0 0
1207 1597 2147 2155 1633 690 525 574 300 171 122 127 69 55 375 554 142 8 0 0 0 0 0 1 0 0 0 0 0 0 0 0 0 0 0 0 0 0 0 0 0 0 0
895 1197 1962 1850 676 512 258 84 10 0 13 0 0 13 54 85 26 30 0 0 0 0 0 34 0 0 0 0 0 0 0 0 0 0 0 0 0 0 0 0 0 0 0
784 1038 1486 734 199 148 43 33 16 15 33 26 18 17 22 44 61 57 22 3 5 23 1 12 0 0 0 0 0 0 0 0 0 0 0 0 0 0 0 0 0 0 0
303 727 1190 545 14 10 49 45 53 61 29 0 0 0 1 12 29 66 30 26 63 57 32 23 6 0 0 0 0 0 0 0 0 0 0 0 0 0 0 0 0 0 0
183 703 705 103 40 67 35 6 0 0 0 0 0 0 0 0 0 3 5 23 47 52 34 13 18 12 2 0 0 0 0 0 0 0 0 0 0 0 0 0 0 0 0
185 225 61 31 0 0 0 0 0 0 0 0 0 0 0 0 0 0 0 4 16 22 35 63 55 53 32 15 0 0 0 0 0 0 0 0 0 0 0 0 0 0 0
2 1 0 0 0 0 0 0 0 0 0 0 0 0 0 0 0 0 0 0 0 0 0 12 41 50 57 38 5 0 0 2 12 0 0 0 0 0 0 0 0 0 0
0 0 0 0 0 0 0 0 0 0 0 0 0 0 0 0 0 0 0 0 0 0 0 0 0 2 8 55 132 35 21 53 74 60 16 0 0 0 0 0 0 0 0
0 0 0 0 0 0 0 0 0 0 0 0 0 0 0 0 0 0 0 0 0 0 0 0 0 0 9 14 65 97 113 79 107 84 35 24 0 0 0 0 0 0 0
0 0 0 0 0 0 0 0 0 0 0 0 0 0 0 0 0 0 0 0 0 0 0 0 0 0 2 22 41 58 50 74 48 36 88 16 10 3 0 0 0 0 0
0 0 0 0 0 0 0 0 0 0 0 0 0 0 0 0 0 0 0 0 0 0 0 0 2 5 7 12 11 13 15 0 0 21 28 70 93 1 9 1 0 1 3

GFSSE_con_sbcape_009.txt.gz
CAPE
441 625 869 884 1198 1087 1004 1031 1205 1561 1724 1524 1470 1527 1385 1243 1035 1022 930 915 988 1123 1254 1157 1145 1436 1564 1803 1827 1630 1424 1680 1606 1301 1338 1671 1769 1950 1984 1757 1796 1098 672
638 777 909 1177 1374 1310 1249 1261 1401 1346 1562 1538 1470 1575 1562 1353 1281 1186 1025 961 901 971 1200 1455 1351 1832 2100 2099 1882 1807 1768 1904 2050 2015 1833 1625 1990 1972 2115 1828 1586 1023 1260
766 808 982 1304 1497 1530 1406 1366 1434 1591 1567 1519 1449 1302 1455 1584 1581 1321 969 836 865 1016 1168 1323 1551 1782 1736 1552 1354 1470 1554 1676 2012 2093 2209 418 969 1188 2174 1868 1679 1450 1309
883 1018 1188 1226 1698 1656 1667 1705 1803 1811 1679 1563 1537 1604 1635 1681 1592 1306 873 838 1041 1246 1401 1489 1483 1409 1423 1645 1601 1635 1463 1440 1753 1842 957 764 1015 1710 2265 2059 1737 1570 1112
731 1092 1169 1186 1476 1921 2120 2109 1971 1961 1870 1885 1886 1886 1903 1732 1478 1120 900 935 1057 1255 1335 1240 1074 827 660 867 1627 1555 1498 1610 1692 1379 1195 1565 1245 1372 1923 1891 1838 1747 1681
383 752 829 1135 1321 1441 1485 1594 1680 1771 1706 1558 1599 1704 1691 1435 954 746 890 1041 1182 1201 958 1013 1200 1201 1121 918 776 985 1156 1296 1590 1221 1280 1332 934 1772 1319 1168 1405 1229 1425
48 184 646 911 1144 1179 1155 1128 1250 1402 1516 1516 1627 1574 1383 1237 1086 969 959 873 619 546 499 519 577 673 771 928 1079 1089 841 903 1189 1214 1047 898 932 1151 993 749 832 1153 1180
51 135 95 503 885 938 949 987 1138 1237 1210 1205 1374 1350 1165 957 875 746 565 420 365 317 237 186 207 272 303 313 291 478 624 725 824 1229 1255 1068 749 1012 1076 1096 894 645 859
41 175 206 255 344 638 648 764 980 1087 950 835 658 740 795 619 487 372 227 127 107 73 54 16 0 4 23 23 10 4 24 222 779 1101 1070 999 584 791 824 784 730 724 670
44 300 476 405 283 443 705 502 657 837 797 539 345 224 369 407 262 53 26 21 2 0 0 0 0 0 0 0 0 0 0 13 495 372 503 117 285 484 633 541 549 609 514
228 475 601 518 284 169 58 189 227 564 787 558 433 197 296 676 466 310 0 0 0 0 0 0 0 0 0 0 0 0 0 86 42 30 221 141 145 267 405 401 487 556 963
581 503 1046 941 604 253 0 206 179 46 380 552 716 808 652 679 559 264 14 0 0 0 0 0 0 0 0 0 0 0 0 0 0 0 62 6 14 71 219 332 373 425 532
639 468 949 1488 974 344 79 108 178 120 157 293 591 832 612 585 548 363 258 128 78 2 7 1 2 6 0 0 0 0 0 0 0 0 1 0 0 0 0 0 12 188 348
510 326 900 1530 904 523 330 175 203 175 184 199 411 434 441 303 274 239 35 5 8 8 7 9 5 6 0 0 0 0 0 0 0 0 0 0 0 0 0 0 0 0 0
347 359 753 1500 616 176 208 257 295 314 271 297 157 99 124 140 136 11 0 0 0 2 7 4 3 1 0 0 0 0 0 0 0 0 0 0 0 0 0 0 0 0 0
226 504 798 1259 664 81 89 176 198 77 25 11 0 1 16 54 61 18 0 0 0 0 0 0 0 0 0 0 0 0 0 0 0 0 0 0 0 0 0 0 0 0 0
299 392 924 1141 454 51 107 72 6 0 0 0 0 0 3 19 36 50 27 26 0 38 97 34 7 9 7 1 0 0 0 0 0 0 0 0 0 0 0 0 0 0 0
325 381 664 907 197 36 23 21 6 13 6 14 3 0 5 4 0 35 14 28 91 108 39 54 7 9 12 11 16 0 0 0 0 0 0 0 0 0 0 0 0 0 0
217 288 626 1022 11 4 45 50 36 20 15 0 0 0 0 0 0 10 17 71 226 120 190 171 121 138 65 30 7 20 6 0 5 0 0 0 0 0 0 2 0 0 0
109 279 591 649 3 34 63 59 1 0 0 0 0 0 0 0 0 0 2 37 69 29 73 130 266 108 240 193 9 42 74 35 0 7 3 0 0 3 0 0 0 0 0
440 559 537 94 35 15 5 0 0 0 0 1 3 0 0 0 0 0 0 0 0 0 25 89 120 148 173 219 276 233 171 90 86 3 5 6 9 12 19 5 10 0 0
166 114 7 0 0 0 0 0 0 0 0 1 3 0 0 0 0 0 0 0 0 0 4 54 95 72 110 193 254 277 197 133 168 125 68 33 15 2 10 31 43 11 0
0 0 0 0 0 0 0 0 0 0 0 0 0 0 0 0 0 0 0 0 0 0 0 25 26 39 34 50 223 261 159 114 225 187 328 161 167 127 27 21 32 2 0
0 0 0 0 0 0 0 0 0 0 0 0 0 0 0 0 0 0 0 0 0 0 0 0 2 6 30 11 56 31 220 289 147 154 205 249 170 71 220 133 84 1 0
0 0 0 0 0 0 0 0 0 0 1 7 0 0 0 0 0 0 0 0 0 0 0 6 16 17 19 33 24 50 42 22 64 0 15 66 183 100 22 54 161 22 11
0 0 0 0 0 0 0 0 0 0 0 0 0 0 0 0 0 0 0 0 0 8 11 12 28 38 19 34 31 13 12 6 3 7 6 11 105 49 51 25 9 34 18

GFSSE_con_sbcape_012.txt.gz
CAPE
470 432 850 1147 1168 1104 1139 1255 1380 1416 1516 1587 1454 1364 1253 1126 1174 1172 1155 1200 1269 1242 1343 1453 1481 1783 1906 1978 1814 1725 1958 1993 1925 1805 1551 1334 1369 1839 1741 2067 1291 526 950
628 556 1017 1276 1307 1301 1308 1354 1456 1487 1492 1550 1574 1563 1439 1307 1160 1009 953 962 1074 1171 1271 1425 1641 1729 1722 1563 1477 1580 1701 1763 1815 1878 1990 1847 1681 1744 1687 1873 1675 654 740
592 678 869 1261 1474 1447 1428 1561 1583 1549 1516 1495 1468 1552 1412 1412 1239 1007 900 980 1095 1273 1357 1459 1481 1440 1402 1521 1436 1643 1629 1597 1589 1586 1817 1035 266 1250 1462 1955 1731 1605 1336
824 893 1025 1267 1505 1610 1668 1703 1704 1562 1427 1615 1492 1444 1473 1470 1373 992 798 918 1091 1145 1131 1038 965 804 689 683 1388 1458 1440 1523 1478 1456 970 592 911 957 832 1945 2137 1827 1870
980 853 962 1170 1504 1774 1843 1888 1856 1842 1733 1725 1754 1633 1607 1386 857 675 763 1051 1103 1038 881 927 1031 1009 955 856 818 1029 1288 1440 1390 1181 748 721 998 770 685 1152 2048 1998 1477
580 633 669 884 1122 1339 1464 1583 1666 1563 1462 1465 1610 1489 1306 973 679 759 932 872 584 492 465 512 518 590 641 803 932 895 872 776 884 636 606 825 473 813 544 1215 1171 1651 1451
298 430 505 708 991 1116 1133 1179 1280 1326 1351 1438 1299 1159 1063 877 794 631 475 383 270 187 145 132 174 255 299 391 330 528 768 825 465 394 649 60 0 0 68 647 1146 1232 1109
141 141 118 700 790 835 914 1030 1073 1062 1118 1173 1142 968 792 667 556 450 287 199 118 83 44 18 1 9 52 79 86 147 133 259 282 370 897 271 124 50 760 779 998 726 762
0 0 19 120 368 562 599 756 873 874 821 689 643 637 582 471 430 221 116 65 19 0 0 0 0 0 0 0 8 14 3 42 1 98 680 542 1174 1037 904 798 763 827 874
76 158 297 275 390 299 225 451 672 723 599 491 343 349 423 338 330 119 116 1 0 0 0 0 0 0 0 0 0 0 0 0 0 29 117 369 859 700 614 618 728 774 940
121 431 370 249 299 636 229 271 517 726 606 442 361 238 124 437 284 111 0 0 0 0 0 0 0 0 0 0 0 0 0 0 0 0 31 334 340 406 480 474 462 500 639
348 356 814 613 414 96 5 153 681 475 628 638 652 679 698 641 528 193 80 1 2 0 2 0 0 0 1 0 0 0 0 0 0 0 1 36 16 17 85 293 351 377 545
386 418 1091 1205 753 443 294 97 356 402 361 782 1294 555 871 465 919 468 360 192 44 10 20 0 10 0 4 0 0 0 0 0 0 0 0 0 0 0 0 0 18 80 201
342 315 1235 1108 876 651 551 534 642 433 198 435 381 616 561 324 392 139 33 0 0 0 1 10 0 2 3 0 0 0 0 0 0 0 0 0 0 0 0 0 0 0 8
333 392 898 1083 846 1053 331 921 758 640 380 349 238 252 193 200 232 122 34 6 0 0 0 0 0 0 0 0 0 0 0 0 0 0 0 0 0 0 0 0 0 0 0
304 657 1256 1247 738 408 552 378 633 242 336 243 71 4 73 75 109 96 35 35 10 2 5 0 0 0 0 0 0 0 0 0 0 0 0 0 0 0 0 0 0 0 0
209 395 1061 1102 498 330 370 325 257 13 8 35 32 25 25 59 62 113 56 52 55 80 54 23 10 0 0 0 0 0 0 0 0 0 0 0 0 0 0 0 0 0 0
236 102 253 650 440 293 409 66 79 90 61 52 82 48 11 18 17 66 56 77 115 115 86 60 39 21 0 0 0 0 0 0 0 0 0 0 0 0 0 0 0 0 0
139 409 632 998 261 114 207 87 77 52 43 14 0 14 0 1 2 6 2 43 73 35 36 30 1 26 7 0 0 0 0 0 0 0 0 0 0 0 0 0 2 0 0
476 341 755 760 56 88 164 108 13 2 5 20 6 0 0 0 0 0 0 1 27 0 0 0 0 0 0 0 0 0 0 0 0 0 0 0 0 0 0 0 1 0 0
570 189 76 52 17 4 56 5 0 0 1 1 1 0 0 0 0 0 0 0 0 0 0 0 0 0 0 0 0 0 0 0 40 0 0 0 0 0 0 0 0 0 0
70 68 4 0 0 0 0 0 0 0 0 0 4 0 0 0 0 0 0 0 0 0 0 0 0 0 0 0 0 0 0 0 0 0 17 24 2 3 0 0 0 0 0
6 2 0 0 0 0 0 0 0 0 0 0 0 0 0 0 0 0 0 0 0 0 0 0 0 0 0 0 0 0 0 0 0 0 0 0 0 17 10 3 1 1 0
0 0 0 0 0 0 0 0 0 0 0 0 0 0 0 0 0 0 0 0 0 0 0 0 0 0 0 0 0 0 0 0 2 0 0 0 0 34 31 30 0 0 1
0 0 0 0 0 0 0 0 0 0 0 0 0 0 0 0 0 0 0 0 0 0 0 6 8 13 4 0 0 0 0 0 0 0 0 0 0 0 0 0 0 0 0
0 0 0 0 0 0 0 0 0 0 0 0 0 0 0 0 0 0 0 0 1 14 21 8 6 0 0 0 0 3 3 9 10 0 1 0 1 0 0 0 5 2 0

GFSSE_con_sbcape_015.txt.gz
CAPE
283 573 837 930 940 971 1039 1080 1137 1235 1301 1235 988 930 1028 917 877 948 945 1179 1293 1123 1213 1352 1565 1673 1598 1484 1411 1402 1552 1681 1774 1804 1665 1527 1545 1555 1509 1539 1486 994 910
368 627 809 967 1040 1119 1219 1199 1186 1327 1383 1169 1144 1155 1235 1038 796 787 839 937 1072 1096 1250 1323 1298 1192 1124 1321 1358 1420 1490 1716 1628 1721 1631 1302 1234 951 1141 1058 1281 1308 1399
503 703 854 945 1094 1251 1351 1345 1369 1351 1272 1146 1222 1303 1132 970 827 692 703 906 900 890 912 953 910 850 761 671 1039 1455 1499 1636 1597 1518 1527 669 331 1043 868 1124 1235 1186 1053
622 794 920 980 1167 1379 1393 1331 1302 1326 1226 1403 1360 1292 1251 1029 702 600 691 1116 935 751 687 767 820 821 843 885 818 841 1060 1335 1472 1433 609 573 1170 964 554 1233 728 1384 1459
678 895 1026 1098 1288 1429 1487 1477 1463 1476 1484 1518 1521 1232 861 584 537 676 857 1000 520 414 384 387 385 413 481 594 800 916 883 871 898 617 354 437 734 828 664 430 1064 1341 1137
400 566 778 936 1042 1244 1399 1375 1265 1187 1256 1384 1341 964 726 619 685 678 423 305 163 108 80 67 70 106 162 281 327 353 543 714 658 110 245 297 646 590 39 107 366 947 1117
239 352 506 660 813 1035 1146 1070 1099 1129 1180 1189 1135 962 715 676 473 312 230 120 55 19 5 0 0 0 3 96 109 147 114 129 121 51 294 0 3 425 434 80 455 1071 1024
115 150 347 589 640 739 862 839 793 840 979 1069 1023 885 619 556 494 217 111 32 1 0 0 0 0 0 0 2 26 29 8 7 0 1 430 60 52 114 440 803 928 750 877
0 0 63 176 312 364 426 447 462 584 592 592 619 649 554 476 391 276 116 10 0 0 0 0 0 0 0 0 0 0 0 0 0 0 515 104 532 721 1063 1024 1107 924 915
0 0 0 0 3 23 110 265 282 307 264 184 303 410 283 296 237 235 94 33 0 0 0 0 0 0 0 0 0 0 0 0 0 0 96 554 1185 1085 839 844 816 928 1021
0 0 0 0 0 0 0 138 276 352 230 115 206 237 121 99 123 46 34 18 1 0 0 0 0 0 0 0 0 0 0 0 0 1 0 398 818 613 580 486 472 575 660
5 19 0 0 85 0 0 17 40 235 178 109 109 116 48 92 110 47 3 0 5 3 3 0 0 0 0 0 0 0 0 0 0 0 0 126 194 39 142 375 449 479 574
10 224 68 0 0 0 2 0 15 57 138 146 159 25 2 88 26 0 10 8 0 3 0 1 0 0 0 0 0 0 0 0 0 0 0 3 0 0 0 0 1 43 284
32 421 87 0 0 0 0 0 0 0 2 26 20 0 0 0 0 0 0 0 0 0 0 0 0 0 0 0 0 0 0 0 0 0 0 0 0 0 0 0 0 0 17
94 566 213 17 42 0 19 0 0 7 0 5 0 0 0 0 0 0 0 0 0 0 0 0 0 0 0 0 0 0 0 0 0 0 0 0 0 0 0 0 0 0 0
20 641 156 58 144 10 22 37 5 0 0 0 0 0 0 0 0 0 0 0 0 0 0 0 0 0 0 0 0 0 0 0 0 0 0 0 0 0 0 0 0 0 0
11 303 144 63 191 1 20 17 8 0 0 0 0 0 0 0 0 0 0 0 0 0 0 0 0 0 0 0 0 0 0 0 0 0 0 0 0 0 0 13 0 0 0
326 612 375 461 148 17 0 1 0 0 0 0 0 0 0 0 0 0 0 0 0 0 0 0 0 0 0 0 0 0 0 0 0 0 0 0 0 0 0 2 29 34 49
80 241 0 26 76 9 0 0 0 0 0 0 0 0 0 0 0 0 0 0 0 0 0 0 0 0 0 0 0 0 0 0 0 0 0 0 0 0 0 0 8 35 63
0 117 138 47 11 0 0 0 0 0 0 0 0 0 0 0 0 0 0 0 0 0 0 0 0 0 0 0 0 0 0 0 0 0 0 0 0 0 0 0 0 0 12
0 0 0 0 0 0 0 0 0 0 0 0 0 0 0 0 0 0 0 0 0 0 0 0 0 0 0 0 0 0 0 0 0 0 0 0 0 0 0 0 0 0 0
0 0 0 0 0 0 0 0 0 0 0 0 0 0 0 0 0 0 0 0 0 0 0 0 0 0 0 0 0 0 0 0 0 0 0 0 0 0 0 0 0 0 0
0 0 0 0 0 0 0 0 0 0 0 0 0 0 0 0 0 0 0 0 0 0 0 0 0 0 0 0 0 0 0 0 0 0 0 0 0 0 0 0 0 1 0
0 0 0 0 0 0 0 0 0 0 0 0 0 0 0 0 0 0 0 0 0 0 0 0 0 0 0 0 0 0 0 0 0 0 0 0 0 0 0 0 0 0 2
0 0 0 0 0 0 0 0 0 0 0 0 0 0 0 0 0 0 0 0 0 0 0 0 0 0 0 0 0 0 0 0 0 0 0 0 0 0 0 0 0 0 0
0 0 0 0 0 0 0 0 0 0 0 0 0 0 0 0 0 0 0 0 0 0 0 0 0 0 0 0 2 0 2 25 32 6 1 0 1 0 0 0 0 0 0

GFSSE_con_sbcape_018.txt.gz
CAPE
404 595 668 861 951 952 978 1019 1013 1023 1050 854 783 754 714 710 735 778 843 1067 1244 1048 1124 1110 1025 971 1077 1150 1234 1268 1378 1315 1360 1368 1455 1279 1434 1409 1410 1313 1078 717 780
485 556 663 884 1068 1087 1084 1124 1170 1198 1145 925 906 847 756 689 662 658 725 780 774 815 822 783 753 722 633 596 957 1260 1305 1321 1371 1285 1306 1176 1149 1091 1053 1300 1149 1420 1162
568 593 665 893 1147 1216 1227 1245 1313 1213 1000 983 953 915 835 687 545 530 666 755 717 728 638 552 516 540 590 637 614 619 866 1158 1150 1108 1014 533 713 1111 772 1140 1182 1393 1599
583 603 691 991 1128 1198 1165 1189 1159 1056 1005 1021 1035 940 687 503 435 596 711 638 482 331 277 262 213 189 226 316 485 628 624 530 695 911 365 794 1017 1097 981 881 955 1613 1510
610 682 838 972 1120 1190 1207 1270 1303 1293 1314 1318 1056 660 488 472 572 588 390 253 126 71 44 27 27 36 47 75 123 134 225 410 712 111 283 700 673 1089 1079 865 1114 1482 1643
580 695 792 959 1149 1261 1217 1118 1116 1116 1111 1111 985 588 507 533 379 226 149 64 22 2 0 0 0 0 0 14 24 19 36 72 89 10 345 931 802 1196 548 261 638 1112 1481
381 552 630 784 970 1124 1084 940 1028 1018 1019 1004 931 810 539 344 206 104 49 14 0 0 0 0 0 0 0 0 1 21 28 26 0 0 47 0 478 632 285 557 733 940 1345
263 300 450 645 734 804 859 795 758 809 837 901 891 795 443 354 256 99 33 1 0 0 0 0 0 0 0 0 0 0 0 0 0 0 234 3 71 600 796 829 1010 1004 1125
46 116 199 330 444 454 425 400 435 587 660 721 734 625 527 378 299 201 44 0 0 0 0 0 0 0 0 0 0 0 0 0 0 0 19 72 291 734 953 1199 1373 1287 1211
0 0 0 23 39 63 150 230 276 292 286 375 372 271 217 205 190 162 64 13 0 0 0 0 0 0 0 0 0 0 0 0 0 0 69 248 898 1027 1000 1144 968 1121 1078
0 0 0 0 0 0 17 161 273 301 210 172 219 225 100 62 44 9 17 0 0 0 0 0 2 0 0 0 0 0 0 0 0 0 0 90 930 847 774 722 646 669 762
0 0 0 0 0 0 1 72 26 84 77 53 89 62 24 20 23 24 12 82 60 8 14 25 34 20 5 0 0 0 0 0 0 0 0 20 320 219 66 302 460 492 539
0 0 0 0 0 0 0 0 0 28 71 47 105 86 14 15 24 14 0 0 0 0 0 0 0 0 0 0 0 0 0 0 0 0 0 23 38 5 0 0 2 16 78
0 0 0 0 0 0 0 0 0 0 40 89 7 0 0 0 0 0 0 0 0 0 0 0 0 0 0 0 0 0 0 0 0 0 0 0 0 0 0 0 0 0 0
142 4 0 0 0 0 0 0 0 0 4 0 0 0 0 0 0 0 0 0 0 0 0 0 0 0 0 0 0 0 0 0 0 0 0 0 0 0 0 0 0 0 0
279 57 0 0 0 0 0 0 0 0 0 0 0 0 0 0 0 0 0 0 0 0 0 0 0 0 0 0 0 0 0 0 0 0 0 0 0 0 4 0 0 0 0
468 81 32 0 0 0 0 0 0 0 0 0 0 0 0 0 0 0 0 0 0 0 0 0 0 0 0 0 0 0 0 0 0 0 0 0 0 0 3 28 46 61 11
224 28 49 172 7 7 0 0 0 0 0 0 0 0 0 0 0 0 0 0 0 0 0 0 0 0 0 0 0 0 0 0 0 0 0 0 0 0 0 8 51 94 134
135 3 40 9 28 18 2 0 0 0 0 0 0 0 0 0 0 0 0 0 0 0 0 0 0 0 0 0 0 0 0 0 0 0 0 0 0 0 0 0 11 46 90
0 0 1 8 0 0 0 0 0 0 0 0 0 0 0 0 0 0 0 0 0 0 0 0 0 0 0 0 0 0 0 0 0 0 0 0 0 0 0 0 0 0 10
0 0 0 0 0 0 0 0 0 0 0 0 0 0 0 0 0 0 0 0 0 0 0 0 0 0 0 0 0 0 0 0 0 0 0 0 0 0 0 0 0 0 0
0 0 0 0 0 0 0 0 0 0 0 0 0 0 0 0 0 0 0 0 0 0 0 0 0 0 0 0 0 0 0 0 0 0 0 0 0 0 0 0 0 0 0
0 0 0 0 0 0 0 0 0 0 0 0 0 0 0 0 0 0 0 0 0 0 0 0 0 0 0 0 0 0 7 0 0 0 0 0 0 0 0 0 0 0 0
0 0 0 0 0 0 0 0 0 0 0 0 0 0 0 0 0 0 0 0 0 0 0 0 0 0 0 0 0 5 2 2 3 0 0 0 0 0 0 0 0 0 0
0 0 0 0 0 0 0 0 0 0 0 0 0 0 0 0 0 0 0 0 0 0 0 0 0 0 0 0 9 10 0 0 2 3 4 0 0 0 0 0 0 0 0
0 0 0 0 0 0 0 0 0 0 0 0 0 0 0 0 0 0 0 0 0 0 0 0 0 0 0 0 0 4 8 12 8 8 6 0 0 0 0 0 0 0 4

GFSSE_con_sbcape_021.txt.gz
CAPE
452 494 762 927 1001 999 944 883 870 831 835 667 631 609 593 607 631 649 667 702 688 612 589 574 546 475 393 516 800 968 1051 981 1022 1053 1195 1259 1221 1368 1467 1598 1161 905 1420
447 459 712 891 1030 1059 981 996 1016 997 849 735 685 623 602 581 566 531 542 555 557 486 422 396 333 322 325 366 373 404 744 939 923 999 1090 993 1059 913 960 1571 1215 1322 1200
448 511 694 863 1068 1154 1122 1062 1091 881 735 775 742 702 606 478 435 554 541 386 197 120 86 47 22 22 28 89 240 383 371 327 456 704 775 307 397 873 788 1514 1342 1882 1515
444 513 716 927 1058 1183 1214 1194 1113 871 849 845 748 626 436 426 547 450 273 125 47 17 0 0 0 0 0 0 2 18 89 210 281 329 152 629 870 1000 828 713 1286 1422 1644
472 584 848 894 989 1125 1137 1105 1064 1115 1138 913 683 474 488 548 383 189 100 36 3 0 0 0 0 0 0 0 0 0 0 17 67 67 94 494 631 1051 1190 826 1050 1519 1759
502 620 732 862 973 1159 1197 1092 1067 1090 999 873 707 514 536 381 185 100 45 5 0 0 0 0 0 0 0 0 0 0 0 0 0 0 2 249 659 914 1138 669 646 1102 984
571 646 727 875 937 1031 955 905 928 939 869 873 759 624 467 289 155 48 14 1 0 0 0 0 0 0 0 0 1 0 0 0 0 0 0 0 0 941 493 323 704 1110 1116
537 510 688 826 870 919 904 870 790 731 767 816 840 726 415 365 236 42 9 0 0 0 0 0 0 0 0 0 8 0 0 0 0 0 0 1 1 416 874 686 1052 1014 1237
284 244 329 490 597 590 512 488 486 562 608 640 698 706 557 413 249 164 31 0 0 0 0 0 0 0 0 0 0 0 0 0 0 0 0 8 38 736 809 1167 1380 1223 1059
0 17 25 65 138 99 151 233 289 349 354 445 475 344 205 180 152 128 35 13 0 0 0 9 11 5 0 0 0 0 0 0 0 0 0 0 722 668 511 757 1182 1265 1317
0 0 0 0 0 0 0 56 194 256 226 264 244 147 53 17 18 22 66 27 40 26 30 45 88 42 0 0 0 0 0 0 0 0 0 0 375 685 561 614 627 720 781
0 0 0 0 0 0 2 25 0 64 10 2 18 24 9 0 0 0 8 93 164 111 138 86 33 30 0 0 0 0 0 0 0 0 0 0 167 333 110 216 359 438 546
0 0 0 0 0 0 0 0 0 2 0 0 25 14 5 7 0 0 0 0 0 0 0 0 0 0 0 0 0 0 0 0 0 0 0 0 78 59 0 0 32 8 140
0 0 0 0 0 0 0 0 0 10 2 21 34 0 0 0 0 0 0 0 0 0 0 0 0 0 0 0 0 0 0 0 0 0 0 0 0 0 0 0 0 0 36
0 0 0 0 0 0 0 0 0 7 49 72 1 0 0 0 0 0 0 0 0 0 0 0 0 0 0 0 0 0 0 0 0 0 0 0 0 0 5 0 5 0 55
16 0 0 0 0 0 0 0 0 0 2 0 0 0 0 0 0 0 0 0 0 0 0 0 0 0 0 0 0 0 0 0 0 0 0 0 0 0 0 0 0 24 24
35 0 0 0 0 0 0 0 0 0 0 0 0 0 0 0 0 0 0 0 0 0 0 0 0 0 0 0 0 0 0 0 0 0 0 0 0 0 0 0 0 0 72
42 0 0 0 0 0 0 0 0 0 0 0 0 0 0 0 0 0 0 0 0 0 0 0 0 0 0 0 0 0 0 0 0 0 0 0 0 0 0 0 0 0 0
0 0 0 0 0 0 0 0 0 0 0 0 0 0 0 0 0 0 0 0 0 0 0 0 0 0 0 0 0 0 0 0 0 0 0 0 0 0 0 0 0 0 0
0 0 0 0 0 0 0 0 0 0 0 0 0 0 0 0 0 0 0 0 0 0 0 0 0 0 0 0 0 0 0 0 0 0 0 0 0 0 0 0 0 0 0
0 0 0 0 0 0 0 0 0 0 0 0 0 0 0 0 0 0 0 0 0 0 0 0 0 0 0 0 0 0 0 0 0 0 0 0 0 0 0 0 0 0 0
0 0 0 0 0 0 0 0 0 0 0 0 0 0 0 0 0 0 0 0 0 0 0 0 0 0 0 0 0 0 0 0 0 0 0 0 0 0 0 0 0 0 0
0 0 0 0 0 0 0 0 0 0 0 0 0 0 0 0 0 0 0 0 0 0 0 0 0 0 0 0 0 0 0 0 0 0 0 0 0 0 0 0 0 0 0
0 0 0 0 0 0 0 0 0 0 0 0 0 0 0 0 0 0 0 0 0 0 0 0 0 0 0 0 0 0 0 2 1 2 0 0 0 0 0 0 0 0 0
0 0 0 0 0 0 0 0 0 0 0 0 0 0 0 0 0 0 0 0 0 0 0 0 0 0 0 0 0 0 0 0 0 1 2 0 0 0 0 0 0 0 0
0 0 0 0 0 0 0 0 0 0 0 0 0 0 0 0 0 0 0 0 0 0 0 0 0 0 0 0 0 0 6 19 22 41 4 0 3 2 0 0 0 0 0

GFSSE_con_sbcape_024.txt.gz
CAPE
285 475 812 1036 1043 942 841 752 757 740 720 589 549 538 510 514 512 494 458 622 485 352 317 269 214 181 199 232 271 379 587 657 711 776 840 868 1096 964 1126 1330 1021 1160 1424
344 523 817 979 1026 973 898 900 902 830 674 583 531 512 494 429 414 435 368 230 149 50 17 10 1 1 9 42 146 267 254 244 360 529 751 656 665 836 919 1297 1111 1214 1423
390 563 725 888 1045 1028 957 961 981 641 677 634 601 507 371 396 440 285 96 74 22 0 0 0 0 0 0 0 0 11 31 213 241 328 449 152 97 797 672 1389 1259 1719 1406
413 519 716 938 1043 1112 1097 1035 817 684 702 660 538 375 421 408 207 78 36 84 4 0 0 0 0 0 0 0 0 0 0 18 80 265 7 218 467 921 751 1015 1248 1293 1499
392 576 831 926 1010 1089 1022 990 963 968 865 645 459 412 454 225 59 19 9 54 1 0 0 0 0 0 0 0 0 0 0 0 0 0 0 72 237 567 1262 884 671 990 1156
414 607 715 813 922 1055 1045 1046 1102 1009 826 685 596 471 338 113 17 4 0 4 0 0 0 0 0 0 0 0 0 0 0 0 0 0 0 0 9 618 1133 622 696 892 935
572 582 619 769 894 1030 1028 960 999 859 772 719 722 595 274 114 30 5 0 0 0 0 0 0 0 0 13 37 3 0 0 0 0 0 0 0 0 197 765 733 604 1063 954
550 572 698 763 832 891 917 897 777 711 711 759 761 649 362 265 144 10 0 0 0 0 0 0 0 9 60 53 31 0 0 0 0 0 0 0 84 642 793 856 1173 1199 930
438 516 591 654 726 692 637 552 487 530 588 654 679 590 531 298 136 69 21 11 2 20 86 98 112 117 75 30 8 0 0 0 0 0 0 0 524 754 253 758 1186 1258 1279
205 280 264 305 351 235 247 292 321 390 411 446 540 422 254 125 66 56 0 8 101 126 152 146 195 165 104 49 15 0 0 0 0 0 0 0 194 538 276 175 325 805 995
35 0 0 10 0 0 0 120 313 343 339 342 345 214 50 0 0 0 6 76 156 129 154 180 86 57 0 0 0 0 0 0 0 0 0 0 1 274 299 255 641 649 546
0 0 0 0 0 0 0 7 0 49 59 62 63 74 0 0 0 0 0 8 2 0 0 0 0 0 0 0 0 0 0 0 0 0 0 0 0 27 0 32 324 306 314
0 0 0 0 0 0 0 0 0 0 1 0 4 1 0 0 0 0 0 0 0 0 0 0 0 0 0 0 0 0 0 0 0 0 0 0 0 0 0 0 70 102 25
0 0 0 0 0 0 0 0 0 0 1 9 33 35 0 0 0 0 0 0 0 0 0 0 0 0 0 0 0 0 0 0 0 0 0 0 0 0 0 0 0 59 77
0 0 0 0 0 0 0 0 0 0 16 40 31 0 0 0 0 0 0 0 0 0 0 0 0 0 0 0 0 0 0 0 0 0 0 0 0 0 0 0 0 0 0
0 0 0 0 0 0 0 0 0 0 1 4 0 0 0 0 0 0 0 0 0 0 0 0 0 0 0 0 0 0 0 0 0 0 0 0 0 0 0 0 0 0 0
0 0 0 0 0 0 0 0 0 0 0 0 0 0 0 0 0 0 0 0 0 0 0 0 0 0 0 0 0 0 0 0 0 0 0 0 0 0 0 0 0 0 0
0 0 0 0 0 0 0 0 0 0 0 0 0 0 0 0 0 0 0 0 0 0 0 0 0 0 0 0 0 0 0 0 0 0 0 0 0 0 0 0 0 0 0
0 0 0 0 0 0 0 0 0 0 0 0 0 0 0 0 0 0 0 0 0 0 0 0 0 0 0 0 0 0 0 0 0 0 0 0 0 0 0 0 0 0 0
0 0 0 0 0 0 0 0 0 0 0 0 0 0 0 0 0 0 0 0 0 0 0 0 0 0 0 0 0 0 0 0 0 0 0 0 0 0 0 0 0 0 0
0 0 0 0 0 0 0 0 0 0 0 0 0 0 0 0 0 0 0 0 0 0 0 0 0 0 0 0 0 0 0 0 0 0 0 0 0 0 0 0 0 0 0
0 0 0 0 0 0 0 0 0 0 0 0 0 0 0 0 0 0 0 0 0 0 0 0 0 0 0 0 0 0 0 0 0 0 0 0 0 0 0 0 0 0 0
0 0 0 0 0 0 0 0 0 0 0 0 0 0 0 0 0 0 0 0 0 0 0 0 0 0 0 0 0 0 0 0 0 0 0 0 0 0 0 0 0 0 0
0 0 0 0 0 0 0 0 0 0 0 0 0 0 0 0 0 0 0 0 0 0 0 0 0 0 0 0 0 0 0 0 13 7 2 0 0 0 0 0 0 0 0
0 0 0 0 0 0 0 0 0 0 0 0 0 0 0 0 0 0 0 0 0 0 0 0 0 0 0 0 0 0 0 0 0 30 13 0 1 9 1 0 0 0 0
0 0 0 0 0 0 0 0 0 0 0 0 0 0 0 0 0 0 0 0 0 0 0 0 0 0 0 0 0 0 0 6 4 9 11 7 11 1 0 6 0 0 0

GFSSE_con_sbcape_027.txt.gz
CAPE
499 620 544 664 1009 855 780 759 698 677 657 561 511 491 468 448 394 508 463 512 344 67 19 3 2 4 34 99 172 196 208 258 316 438 609 727 756 759 879 1045 757 1015 1244
656 719 444 795 1011 895 883 863 782 726 623 471 446 421 375 368 331 227 282 210 74 0 0 0 0 0 0 0 1 21 75 162 237 347 477 413 300 850 840 1105 1170 1139 1159
821 838 564 656 1035 997 998 957 884 617 527 487 422 329 374 296 111 23 62 105 12 0 0 0 0 0 0 0 0 0 11 45 121 267 326 576 548 938 664 1120 1091 947 966
931 860 575 734 1065 1157 1095 858 803 639 575 508 380 397 295 82 13 7 3 53 11 0 0 0 0 0 0 0 0 0 0 0 0 15 424 820 686 779 1172 956 636 761 1066
911 853 877 846 1104 1181 1075 842 858 806 721 584 479 390 109 0 0 0 7 27 43 0 0 0 0 0 0 0 0 0 0 2 0 4 266 541 761 568 876 570 539 397 965
896 938 830 970 1014 1112 1142 1069 999 865 694 622 608 393 38 0 0 0 23 44 4 0 0 0 0 0 10 20 0 0 0 0 0 0 285 386 159 442 819 799 840 736 1079
929 1058 1110 821 985 1139 1104 1026 996 785 698 703 714 512 241 0 0 0 28 39 13 0 0 0 0 3 34 48 0 0 0 0 0 0 290 555 605 824 733 740 966 967 958
817 994 1031 832 938 1017 1072 991 755 710 710 747 737 578 291 147 129 8 22 52 15 9 23 28 13 8 35 14 0 0 0 0 0 0 0 0 630 603 334 635 928 1245 1159
673 748 910 933 885 810 766 654 552 598 656 706 666 583 406 233 150 150 129 87 71 131 94 73 42 54 0 0 0 0 0 0 0 0 0 0 8 317 253 201 682 782 808
592 581 636 974 875 844 635 483 395 440 466 527 512 358 148 92 126 180 1 112 163 142 154 68 16 0 0 0 0 0 0 0 0 0 0 0 0 0 35 19 189 576 603
487 581 608 780 658 490 434 381 327 407 367 373 362 169 56 169 158 102 36 148 7 0 11 0 0 0 0 0 0 0 0 0 0 0 0 0 0 0 0 71 308 477 397
549 526 437 355 271 165 97 335 344 302 306 380 351 363 237 252 221 194 12 0 0 0 0 0 0 0 0 0 0 0 0 0 0 0 0 0 0 0 0 0 148 207 166
470 256 81 97 55 36 64 193 117 230 279 289 328 318 311 220 275 116 0 0 0 0 0 0 0 0 0 0 0 0 0 0 0 0 0 0 0 0 0 0 0 17 147
2 0 0 0 0 0 2 38 80 229 290 376 412 395 355 169 5 0 0 0 0 0 0 0 0 0 0 0 0 0 0 0 0 0 0 0 0 0 0 0 0 0 0
0 0 0 0 0 0 1 34 84 241 333 367 339 69 0 0 0 0 0 0 0 0 0 0 0 0 0 0 0 0 0 0 0 0 0 0 0 0 0 0 0 0 0
0 0 0 0 0 0 0 1 55 148 87 80 0 2 0 0 0 0 0 0 0 0 0 0 0 0 0 0 0 0 0 0 0 0 0 0 0 0 0 0 0 0 0
0 12 5 0 0 0 0 0 0 0 0 0 0 0 0 0 0 0 0 0 0 0 0 0 0 0 0 0 0 0 0 0 0 0 0 0 0 0 0 0 0 0 0
26 115 48 0 0 0 0 0 0 0 0 0 0 0 0 0 0 0 0 0 0 0 0 0 0 0 0 0 0 0 0 0 0 0 0 0 0 0 0 0 0 0 0
150 75 1 8 8 0 0 0 0 0 0 0 0 0 0 0 0 0 0 0 0 0 0 0 0 0 0 0 0 0 0 0 0 0 0 0 0 0 0 0 0 0 0
121 26 26 39 2 0 0 0 0 0 0 0 0 0 0 0 0 0 0 0 0 0 0 0 0 0 0 0 0 0 0 0 0 0 0 0 0 0 0 0 0 0 0
124 104 67 0 0 0 0 0 0 0 0 0 0 0 0 0 0 0 0 0 0 0 0 0 0 0 0 0 0 0 0 0 0 0 0 0 0 0 0 0 0 0 0
139 160 61 6 0 0 0 0 0 0 0 0 0 0 0 0 0 0 0 0 0 0 0 0 0 0 0 0 0 0 0 0 0 0 0 0 0 0 0 0 0 0 0
54 22 26 0 0 0 0 0 0 0 0 0 0 0 0 0 0 0 0 0 0 0 0 0 0 0 0 0 9 1 0 0 5 0 0 0 1 0 0 0 1 4 10
0 0 0 0 0 0 0 0 0 0 0 0 0 0 0 0 0 0 0 0 0 0 0 0 0 0 0 0 0 4 5 11 10 6 10 16 16 0 2 8 7 16 24
0 0 0 0 0 0 0 0 0 0 0 0 0 0 0 0 0 0 0 0 0 0 0 0 0 0 0 0 3 5 5 14 27 42 26 11 7 15 31 10 38 37 40
0 0 0 0 0 0 0 0 0 0 0 0 0 0 0 0 0 0 0 0 0 0 0 0 1 0 3 8 12 13 5 8 11 28 27 19 6 2 6 10 9 64 55

GFSSE_con_sbcape_033.txt.gz
CAPE
218 131 655 826 766 748 702 630 665 719 718 554 537 464 393 379 296 324 240 163 64 0 0 0 0 0 0 0 7 33 55 146 291 336 454 578 808 792 760 718 1107 349 950
261 133 581 833 800 776 694 750 782 745 583 500 458 401 353 262 271 184 173 80 11 0 0 0 0 0 0 3 13 30 33 36 89 363 562 813 933 858 737 510 1085 593 838
370 221 302 756 903 873 735 679 694 514 453 413 402 273 144 57 0 29 96 67 0 0 0 0 0 0 0 0 0 24 45 13 26 347 968 363 575 820 516 745 657 562 742
473 292 302 757 996 1035 986 859 713 496 398 382 261 98 46 0 0 0 4 157 12 0 0 0 0 0 0 0 0 0 0 40 250 477 224 203 314 689 540 778 690 524 672
414 391 662 828 1047 1118 1079 888 772 644 596 529 278 38 0 0 0 0 165 202 124 0 0 0 0 0 0 0 0 0 0 0 16 18 138 247 259 543 498 286 409 553 609
573 673 541 721 944 1061 1134 918 623 580 686 479 266 92 0 0 0 43 270 246 30 0 0 0 0 0 0 0 0 0 0 0 0 9 37 202 277 436 580 178 505 497 699
775 873 782 691 748 1077 1047 730 607 656 736 530 327 165 4 0 0 18 69 57 4 0 0 0 0 0 0 0 0 0 0 0 0 0 1 0 2 148 189 265 176 108 130
595 581 787 643 745 1051 1068 743 636 694 744 622 426 269 36 53 109 29 48 52 48 46 8 0 0 0 0 0 0 0 0 0 0 0 0 0 2 14 0 0 341 399 87
538 608 849 667 776 753 562 488 512 633 661 676 560 363 274 315 326 243 190 139 105 91 1 0 0 0 0 0 0 0 0 0 0 0 2 0 0 0 0 0 15 144 50
702 1141 1028 858 625 625 486 397 457 504 514 505 323 198 150 116 68 196 172 10 81 22 0 0 0 0 0 0 0 0 0 0 0 0 7 0 0 0 0 0 0 0 294
875 614 751 506 548 469 256 301 381 547 502 346 143 124 44 121 138 164 0 14 5 0 0 0 0 0 0 0 0 0 0 0 0 0 0 0 0 0 0 0 0 0 0
935 673 666 585 487 269 0 48 36 154 189 325 304 287 578 434 555 125 0 0 0 0 0 0 0 0 0 0 0 0 0 0 0 0 0 0 0 0 0 0 0 0 0
888 430 516 534 344 25 87 88 165 403 534 597 660 773 844 560 695 592 84 48 49 0 3 0 0 0 0 0 0 0 0 0 0 0 0 0 0 0 0 0 1 0 0
407 338 291 202 116 118 25 127 359 522 709 797 846 887 773 1051 713 329 67 27 25 0 0 0 0 0 0 0 0 0 0 0 0 0 0 0 0 0 0 0 0 0 0
135 32 30 59 137 213 273 512 719 830 955 1052 1105 961 691 699 1174 329 93 21 15 0 1 1 0 0 0 0 0 0 0 0 0 0 0 0 0 0 0 0 0 0 0
73 78 51 90 220 454 664 783 969 992 894 897 803 735 350 276 525 253 86 3 3 0 0 0 0 0 0 0 0 0 0 0 0 0 0 0 0 0 0 0 0 0 0
183 220 191 322 472 725 714 294 101 42 37 118 308 259 174 255 73 165 67 0 0 0 0 0 0 0 0 0 0 0 0 0 0 0 0 0 0 0 0 0 0 0 0
381 358 422 397 636 552 165 1 17 45 78 101 48 15 0 0 0 0 0 0 0 0 0 0 0 0 0 0 0 0 0 0 0 0 0 1 1 0 0 0 0 0 0
599 625 591 672 527 194 0 2 12 30 0 2 0 0 0 0 0 0 0 0 0 0 0 0 0 0 0 0 0 0 0 0 0 0 0 3 7 4 8 0 20 4 0
651 912 784 746 407 58 26 4 0 0 0 0 0 0 0 0 0 0 0 0 0 0 0 0 0 0 0 0 0 0 0 0 0 1 10 12 7 13 9 18 17 11 44
987 1010 953 955 537 237 240 59 27 11 0 0 0 0 0 0 0 0 0 0 0 0 0 0 0 0 0 0 0 0 0 0 4 9 7 7 5 6 9 11 17 17 12
1084 1087 892 771 597 442 464 182 50 7 3 1 0 0 0 0 0 0 0 0 0 0 0 0 0 0 0 1 0 0 0 0 0 0 0 3 15 13 14 10 14 22 20
811 774 793 721 633 639 312 68 51 63 28 0 0 0 0 0 0 0 0 0 0 0 0 0 4 3 4 5 9 5 4 4 5 1 1 2 28 9 21 14 8 7 12
782 866 1047 931 721 255 43 33 57 52 18 28 9 1 0 0 0 0 0 0 0 0 2 8 10 17 25 19 15 12 18 19 20 7 7 15 19 28 63 18 16 9 4
1103 950 816 449 60 4 23 37 66 32 41 18 2 0 0 1 2 0 0 7 9 13 19 28 37 39 38 29 28 19 20 17 16 30 34 27 23 10 12 27 22 32 16
487 617 439 4 3 0 0 4 10 7 0 4 4 0 0 0 0 0 4 9 15 20 34 47 49 27 56 58 60 37 34 34 34 46 42 32 36 6 25 40 66 60 59

GFSSE_con_sbcape_036.txt.gz
CAPE
45 254 648 783 780 697 635 633 653 646 654 613 497 479 372 277 216 185 147 66 24 0 0 0 0 0 0 15 38 47 56 75 195 458 701 730 636 557 368 661 743 226 1070
49 184 546 681 715 719 745 754 683 651 581 350 361 341 240 203 193 148 98 38 48 0 0 0 0 0 0 0 2 57 63 188 266 525 673 561 614 376 229 665 816 711 999
21 163 329 632 750 795 887 817 676 571 348 301 191 219 176 143 67 154 114 76 119 0 0 0 0 0 0 0 0 0 1 85 154 337 450 219 283 544 486 856 791 991 947
97 96 278 703 865 991 898 762 596 445 332 285 204 164 126 8 0 34 173 165 144 0 0 0 0 0 0 0 0 0 0 3 40 129 165 112 152 500 227 788 685 374 839
120 213 510 655 839 1004 898 757 586 613 374 227 176 58 0 0 47 57 272 235 135 0 0 0 0 0 0 0 0 0 0 5 36 89 34 81 65 523 165 34 1 103 649
233 441 467 597 875 1016 972 764 710 568 308 211 140 126 5 65 108 110 272 214 28 0 0 0 0 0 0 0 0 0 0 0 7 18 0 40 42 338 276 157 440 372 403
477 385 415 569 736 996 843 715 725 503 336 245 188 202 171 52 62 100 266 226 88 0 0 0 0 0 8 12 0 0 0 0 0 0 0 0 15 92 8 24 153 347 216
192 269 363 638 897 789 776 686 663 526 377 306 250 242 230 171 242 274 299 261 180 42 0 0 0 0 0 0 0 0 0 0 0 3 0 0 78 63 10 47 286 306 186
163 200 282 670 742 444 400 452 538 515 436 365 343 309 333 349 356 415 326 234 102 6 0 0 0 0 0 0 0 0 0 5 0 0 0 0 97 18 56 64 52 166 409
139 292 335 627 558 271 269 354 413 411 354 245 195 146 111 84 235 327 79 173 98 0 0 0 0 0 0 0 0 0 0 0 0 0 0 0 0 0 0 0 54 90 138
179 222 382 498 349 230 295 371 416 469 300 174 102 101 29 12 73 37 16 60 11 0 0 0 0 0 0 0 0 0 0 0 0 0 0 0 0 0 0 3 4 5 38
116 301 296 502 296 144 28 148 144 168 29 30 30 30 97 465 82 1 0 0 0 0 0 0 0 0 0 0 0 0 0 0 0 0 0 0 0 0 0 0 3 4 2
113 294 380 363 246 14 5 38 77 115 306 466 509 652 857 805 315 16 0 0 0 0 0 0 0 0 0 0 0 0 0 0 0 0 0 0 0 0 0 0 0 1 0
304 343 284 244 311 83 71 70 380 560 467 850 823 834 851 862 755 261 160 164 40 34 0 2 0 0 0 0 0 0 0 0 0 0 0 0 0 0 0 0 0 0 0
238 258 202 220 313 373 449 714 632 631 910 917 905 830 760 538 698 287 96 36 4 0 0 0 0 0 0 0 0 0 0 0 0 0 0 0 0 0 0 0 0 0 0
127 151 139 175 450 502 751 646 585 805 911 614 524 413 253 147 232 186 0 0 0 0 0 0 0 0 0 0 0 0 0 0 0 0 0 0 0 0 0 0 0 0 0
53 70 123 254 487 738 725 417 59 1 13 142 307 248 188 79 1 0 0 0 0 0 0 0 0 0 0 0 0 0 0 0 0 0 0 0 0 1 0 0 0 0 0
111 83 261 423 660 304 106 14 8 57 18 8 20 6 0 0 0 0 0 0 0 0 0 0 0 0 0 0 0 0 0 0 0 0 0 0 0 0 1 1 5 0 0
200 267 394 671 336 37 0 3 6 0 0 0 0 0 0 0 0 0 0 0 0 0 0 0 0 0 0 0 0 0 0 0 0 0 0 0 0 0 0 6 47 23 5
434 499 569 562 264 81 12 12 2 0 0 0 0 0 0 0 0 0 0 0 0 0 0 0 0 0 0 0 0 0 0 0 0 0 0 9 1 0 0 0 0 0 34
872 747 709 446 204 23 99 61 30 3 0 0 0 0 0 0 0 0 0 0 0 0 0 0 0 0 0 0 0 0 0 0 0 0 0 0 0 0 0 0 0 0 0
1013 904 687 503 219 218 312 216 82 2 0 0 0 0 0 0 0 0 0 0 0 0 0 0 0 0 0 0 0 0 0 0 0 0 0 0 0 0 0 0 0 0 0
1139 845 678 527 427 346 329 84 6 0 0 0 0 0 0 0 0 0 0 0 0 0 0 0 0 0 0 0 0 0 0 0 0 0 0 0 0 0 0 0 0 0 0
1076 837 796 557 625 663 150 11 0 0 0 0 0 0 0 0 0 0 0 0 0 0 0 0 0 0 0 0 0 0 0 0 0 0 0 0 0 0 0 0 0 0 0
694 689 669 719 693 252 29 2 28 84 25 3 0 0 0 0 0 0 0 0 0 0 0 0 11 24 15 5 0 0 0 0 0 0 0 0 0 0 0 0 0 0 0
840 886 927 582 41 2 0 12 39 27 0 0 0 0 0 0 0 0 0 0 0 0 0 0 0 7 1 5 14 7 0 0 0 0 0 0 0 0 0 0 0 0 0

GFSSE_con_sbcape_039.txt.gz
CAPE
482 700 811 1002 914 788 713 676 627 523 481 411 281 225 176 128 77 12 32 89 94 0 0 0 0 0 0 0 5 9 12 54 473 678 524 427 353 186 193 428 630 432 768
522 628 666 805 811 793 820 763 613 481 372 221 221 153 121 98 60 44 139 89 36 0 0 0 0 0 0 0 0 0 0 19 213 621 573 398 477 427 339 450 679 712 890
529 503 528 578 806 885 915 787 605 453 266 190 155 113 68 83 64 138 138 66 39 0 0 0 0 0 0 0 0 0 32 36 23 319 533 97 82 235 214 691 604 842 617
388 345 398 594 787 869 791 627 488 287 225 184 130 60 140 85 58 141 170 89 61 0 0 0 0 0 0 0 0 1 20 139 276 440 36 27 144 195 0 0 0 55 362
148 309 587 668 683 750 657 581 371 263 210 139 104 111 67 41 45 47 205 95 61 0 0 0 0 0 0 0 0 0 12 34 277 43 41 22 42 145 178 3 0 0 58
197 350 443 507 594 775 756 551 318 229 125 116 165 219 91 100 84 79 211 155 6 0 0 0 0 0 0 0 0 0 0 53 0 0 0 48 37 86 33 1 219 110 185
313 340 322 311 538 750 796 474 311 215 163 179 244 246 219 72 55 76 243 201 28 0 0 0 0 0 0 0 0 0 0 23 0 0 0 3 30 75 53 45 69 92 27
214 189 141 244 443 526 598 391 265 219 213 232 248 275 232 220 246 234 287 243 56 0 0 0 0 0 0 0 0 0 0 8 0 0 0 0 167 85 81 51 132 281 475
67 92 154 343 371 382 351 249 222 212 218 256 267 251 253 257 287 326 326 241 27 2 0 0 0 0 0 0 0 0 0 0 0 0 0 0 81 6 0 9 56 134 170
112 99 366 223 186 182 237 212 170 158 166 162 138 110 124 141 164 87 188 201 39 0 0 0 0 0 0 0 0 0 0 0 0 0 0 0 0 0 0 0 7 14 14
124 132 149 173 147 113 141 160 136 145 84 85 88 57 20 0 5 0 0 11 0 0 0 0 0 0 0 0 0 0 0 0 0 0 0 0 0 0 0 0 0 4 3
79 201 206 182 97 63 88 42 36 33 4 0 0 0 0 0 0 0 0 0 0 0 0 0 0 0 0 0 0 0 0 0 0 0 0 0 0 0 0 0 0 1 1
30 168 234 201 27 0 1 1 3 1 0 0 0 0 0 48 0 0 0 0 0 0 0 0 0 0 0 0 0 0 0 0 0 0 0 0 0 0 0 0 0 0 2
110 122 190 132 2 0 0 1 0 17 34 81 247 250 74 71 4 0 0 0 0 0 0 0 0 0 0 0 0 0 0 0 0 0 0 0 0 0 0 0 0 0 0
53 63 40 10 0 0 5 90 156 258 282 352 225 10 0 0 0 0 0 0 0 0 0 0 0 0 0 0 0 0 0 0 0 0 0 0 0 0 0 0 0 0 0
42 9 13 15 0 172 271 230 254 303 221 116 112 10 0 0 0 0 0 0 0 0 0 0 0 0 0 0 0 0 0 0 0 0 0 0 0 0 0 0 0 0 0
0 0 0 9 199 239 89 0 0 0 0 16 12 4 0 0 0 0 0 0 0 0 0 0 0 0 0 0 0 0 0 0 0 0 0 0 0 10 10 0 0 0 0
0 0 3 202 197 0 0 0 0 0 0 0 0 0 0 0 0 0 0 0 0 0 0 0 0 0 0 0 0 0 0 0 0 0 0 0 0 0 9 17 0 0 0
0 2 95 257 3 0 0 0 0 0 0 0 0 0 0 0 0 0 0 0 0 0 0 0 0 0 0 0 0 0 0 0 0 0 0 0 0 0 0 2 0 0 0
5 89 268 22 0 0 0 0 0 0 0 0 0 0 0 0 0 0 0 0 0 0 0 0 0 0 0 0 0 0 0 0 0 0 0 0 0 0 0 0 0 0 0
100 240 238 22 0 0 0 0 0 0 0 0 0 0 0 0 0 0 0 0 0 0 0 0 0 0 0 0 0 0 0 0 0 0 0 0 0 0 0 0 0 0 0
225 312 191 111 14 0 0 0 0 0 0 0 0 0 0 0 0 0 0 0 0 0 0 0 0 0 0 0 0 0 0 0 0 0 0 0 0 0 0 0 0 0 0
329 358 197 64 15 0 2 0 0 0 0 0 0 0 0 0 0 0 0 0 0 0 0 0 0 0 0 0 0 0 0 0 0 0 0 0 0 0 0 0 0 0 0
451 318 328 209 132 14 33 0 0 0 0 0 0 0 0 0 0 0 0 0 0 0 0 0 0 0 0 0 0 0 0 0 0 0 0 0 0 0 0 0 0 0 0
457 484 407 270 320 151 103 0 0 0 0 0 0 0 0 0 0 0 0 0 0 0 0 0 0 0 0 0 0 0 0 0 0 0 0 0 0 0 0 0 0 0 0
529 521 348 206 214 241 0 0 0 0 0 0 0 0 0 0 0 0 0 0 0 0 0 0 0 0 0 0 0 0 0 0 0 0 0 0 0 0 0 0 0 0 0

GFSSE_con_sbcape_042.txt.gz
CAPE
677 806 840 915 840 771 690 612 494 393 269 190 162 126 60 48 76 95 99 76 20 0 0 0 0 0 0 0 0 0 35 440 547 558 424 379 323 269 266 364 479 304 530
565 808 761 801 820 792 751 627 457 304 180 107 138 105 68 124 136 37 54 11 0 0 0 0 0 0 0 0 0 0 0 365 496 494 250 169 125 122 88 206 691 414 566
642 742 607 622 784 837 788 644 385 234 69 59 85 138 112 136 20 104 59 24 7 0 0 0 0 0 0 0 10 476 125 311 488 491 227 0 0 0 0 24 59 148 434
707 598 525 633 724 802 662 476 254 117 65 126 114 128 202 151 20 64 116 71 45 0 0 0 0 0 0 0 0 300 504 518 256 36 0 0 1 45 0 0 0 0 0
575 460 623 579 615 687 565 325 200 154 137 207 214 184 139 53 31 27 153 96 72 0 0 0 0 0 0 0 0 24 42 31 18 2 0 0 0 7 0 0 0 0 0
416 529 516 562 531 629 501 321 208 140 155 230 264 260 124 52 36 65 169 125 40 0 0 0 0 0 0 0 0 4 16 0 0 0 0 1 0 0 0 0 0 0 0
533 458 362 436 540 493 421 314 214 185 238 268 275 271 205 49 36 71 155 106 48 0 0 0 0 0 0 0 0 0 0 0 0 0 0 0 1 20 0 9 5 81 85
181 131 194 259 355 312 285 258 200 228 282 273 262 237 237 222 184 191 139 108 51 9 0 0 0 0 0 0 0 0 0 0 0 0 0 0 67 0 0 2 88 111 94
95 78 50 176 349 278 228 207 161 190 220 228 199 199 219 225 258 281 194 72 27 0 0 0 0 0 0 0 0 0 0 0 0 0 0 0 0 0 0 1 8 12 18
5 48 118 79 170 274 180 156 163 164 167 133 131 145 148 182 207 232 156 57 5 0 0 0 0 0 0 0 0 0 0 0 0 0 0 0 0 0 1 0 1 2 7
60 125 120 66 179 185 109 96 129 173 123 121 123 81 8 0 0 2 4 6 0 0 0 0 0 0 0 0 0 0 0 0 0 0 0 0 0 0 1 1 0 0 1
12 4 104 138 129 141 86 38 16 31 16 4 0 0 0 0 0 0 0 0 0 0 0 0 0 0 0 0 0 0 0 0 0 0 0 0 0 0 0 0 1 0 0
66 45 131 160 102 35 30 2 0 0 0 0 0 0 0 0 0 0 0 0 0 0 0 0 0 0 0 0 0 0 0 0 0 0 0 0 0 0 4 0 0 0 0
41 102 167 65 14 0 0 0 0 0 0 0 1 1 0 0 0 0 0 0 0 0 0 0 0 0 0 0 0 0 0 0 0 0 0 0 0 0 1 0 0 0 0
20 27 117 28 0 0 0 0 0 7 21 25 0 0 4 0 0 0 0 0 0 0 0 0 0 0 0 0 0 0 0 0 0 0 0 0 0 0 11 0 0 0 0
32 88 194 65 0 0 23 43 41 145 66 0 0 0 0 0 0 0 0 0 0 0 0 0 0 0 0 0 0 0 0 0 0 0 0 0 1 28 6 0 0 0 0
62 121 50 19 5 112 145 178 18 0 0 0 0 0 0 0 0 0 0 0 0 0 0 0 0 0 0 0 0 0 0 0 0 0 0 0 0 17 22 0 0 0 0
75 21 12 106 71 10 0 0 0 0 0 0 0 0 0 0 0 0 0 0 0 0 0 0 0 0 0 0 0 0 0 0 0 0 0 0 0 0 9 0 0 0 0
28 0 33 62 3 0 0 0 0 0 0 0 0 0 0 0 0 0 0 0 0 0 0 0 0 0 0 0 0 0 0 0 0 0 0 0 0 0 0 0 0 0 0
0 0 151 0 0 0 0 0 0 0 0 0 0 0 0 0 0 0 0 0 0 0 0 0 0 0 0 0 0 0 0 0 0 0 0 0 0 0 0 0 0 0 0
0 81 56 0 0 0 0 0 0 0 0 0 0 0 0 0 0 0 0 0 0 0 0 0 0 0 0 0 0 0 0 0 0 0 0 0 0 0 0 0 0 0 0
65 197 65 0 0 0 0 0 0 0 0 0 0 0 0 0 0 0 0 0 0 0 0 0 0 0 0 0 0 0 0 0 0 0 0 0 0 0 0 0 0 0 0
194 219 62 15 0 0 0 0 0 0 0 0 0 0 0 0 0 0 0 0 0 0 0 0 0 0 0 0 0 0 0 0 0 0 0 0 0 0 0 0 0 0 0
212 197 99 15 0 0 0 0 0 0 0 0 0 0 0 0 0 0 0 0 0 0 0 0 0 0 0 0 0 0 0 0 0 0 0 0 0 0 0 0 0 0 0
149 149 100 24 0 0 0 0 0 0 0 0 0 0 0 0 0 0 0 0 0 0 0 0 0 0 0 0 0 0 0 0 0 0 0 0 0 0 0 0 0 0 0
178 136 110 162 124 22 0 0 0 0 0 0 0 0 0 0 0 0 0 0 0 0 0 0 0 0 0 0 0 0 0 0 0 0 0 0 0 0 0 0 0 0 0

GFSSE_con_sbcape_045.txt.gz
CAPE
788 859 925 917 833 756 620 517 316 175 116 56 40 79 94 104 108 119 74 35 0 0 0 0 0 0 0 0 0 309 327 430 433 498 304 150 137 107 181 249 249 155 346
778 868 884 892 832 759 657 431 252 157 69 8 50 155 138 136 129 77 15 0 0 0 0 0 0 0 44 22 7 285 427 394 377 246 49 49 0 0 0 2 195 134 285
895 880 776 735 827 732 600 411 201 103 8 5 29 128 142 130 97 56 39 23 25 7 0 0 0 68 245 264 240 447 499 364 314 233 33 0 0 0 0 0 0 0 2
993 789 657 734 745 704 502 298 141 37 23 78 170 118 127 17 87 113 97 62 36 46 3 0 0 0 24 259 433 452 255 103 79 0 0 0 0 0 0 0 0 0 0
860 607 602 660 632 599 418 184 110 134 160 172 230 130 142 52 46 57 134 72 42 38 1 0 0 0 0 41 59 105 35 0 0 0 0 0 0 3 2 0 0 0 0
697 554 381 483 541 514 378 289 219 251 219 234 262 228 179 71 45 106 142 80 57 28 0 0 0 0 0 0 0 0 0 0 0 0 0 0 0 8 11 8 10 9 13
622 479 401 370 492 534 357 277 302 318 307 346 342 250 204 151 83 153 162 111 53 21 0 0 0 0 0 0 0 0 0 0 0 0 0 0 0 4 9 23 22 19 18
336 207 153 186 283 428 365 264 311 401 393 370 326 244 236 179 156 131 123 87 64 24 11 0 0 0 0 0 0 0 0 0 0 0 0 0 0 0 7 10 7 5 7
4 3 13 26 215 374 330 244 293 399 414 359 301 287 252 197 149 136 92 49 39 10 0 0 0 0 0 0 0 0 0 0 0 0 0 0 1 3 1 1 0 1 4
10 7 26 79 188 242 223 243 275 349 356 338 309 242 216 247 190 137 86 33 0 0 0 0 0 0 0 0 0 0 0 0 0 0 0 0 0 11 6 0 0 1 1
0 40 33 15 135 188 162 209 329 372 303 219 212 171 43 20 17 0 3 0 0 0 0 2 0 0 0 0 0 0 0 0 0 0 0 8 0 11 11 3 0 0 0
1 23 43 19 49 165 83 88 94 106 41 20 12 11 1 0 0 0 0 11 0 0 0 0 0 0 0 0 0 0 0 0 0 0 0 0 0 9 20 2 0 0 0
1 4 110 45 164 124 71 45 20 4 0 0 0 0 0 0 0 0 0 0 0 0 0 0 0 0 0 0 0 0 0 0 0 0 0 0 0 1 14 3 0 0 0
0 9 76 82 162 88 30 17 5 0 0 0 0 0 0 0 0 0 0 0 0 0 0 0 0 0 0 0 0 0 0 0 0 0 0 0 0 0 22 4 0 0 0
3 6 146 141 100 11 5 0 0 0 0 5 6 7 0 0 0 0 0 0 0 0 0 0 0 0 0 0 0 0 0 0 0 0 0 0 0 0 21 7 0 14 0
50 100 109 81 15 0 0 0 0 12 41 1 0 0 1 0 0 0 0 0 0 0 0 0 0 0 0 0 0 0 0 0 0 0 0 0 0 24 5 0 0 4 2
8 37 91 96 0 0 0 1 16 41 15 0 0 0 0 0 0 0 0 0 0 0 0 0 0 0 0 0 0 0 0 0 0 0 0 0 0 0 0 0 0 0 0
27 98 155 156 0 6 15 1 0 0 0 0 0 0 0 0 0 0 0 0 0 0 0 0 0 0 0 0 0 0 0 0 0 0 0 0 0 0 0 0 0 0 0
44 138 93 32 15 3 0 0 0 0 0 0 0 0 0 0 0 0 0 0 0 0 0 0 0 0 0 0 0 0 0 0 0 0 0 0 0 0 0 0 0 0 0
89 2 36 38 0 0 0 0 0 0 0 0 0 0 0 0 0 0 0 0 0 0 0 0 0 0 0 0 0 0 0 0 0 0 0 0 0 0 0 0 0 0 0
0 2 81 0 0 0 0 0 0 0 0 0 0 0 0 0 0 0 0 0 0 0 0 0 0 0 0 0 0 0 0 0 0 0 0 0 0 0 0 0 0 0 0
0 4 0 0 0 0 0 0 0 0 0 0 0 0 0 0 0 0 0 0 0 0 0 0 0 0 0 0 0 0 0 0 0 0 0 0 0 0 0 0 0 0 0
0 17 9 0 0 0 0 0 0 0 0 0 0 0 0 0 0 0 0 0 0 0 0 0 0 0 0 0 0 0 0 0 0 0 0 0 0 0 0 0 0 0 0
11 29 44 9 0 0 0 0 0 0 0 0 0 0 0 0 0 0 0 0 0 0 0 0 0 0 0 0 0 0 0 0 0 0 0 0 0 0 0 0 0 0 0
15 56 33 4 0 0 0 0 0 0 0 0 0 0 0 0 0 0 0 0 0 0 0 0 0 0 0 0 0 0 0 0 0 0 0 0 0 0 0 0 0 0 0
7 13 0 0 0 0 0 0 0 0 0 0 0 0 0 0 0 0 0 0 0 0 0 0 0 0 0 0 0 0 0 0 0 0 0 0 0 0 0 0 0 0 0

GFSSE_con_sbcape_048.txt.gz
CAPE
792 765 818 900 765 597 448 301 215 151 105 97 119 126 108 113 118 95 44 33 31 3 0 0 0 0 196 349 165 171 184 224 261 228 15 1 0 0 1 63 91 98 244
862 791 806 875 800 600 393 240 139 91 110 95 135 162 176 139 77 33 46 49 50 4 20 164 195 74 123 276 330 322 203 250 212 62 1 2 2 0 0 0 0 0 67
881 865 829 825 808 553 369 226 130 96 53 52 97 151 152 108 73 79 56 67 72 71 253 341 263 181 249 354 479 289 43 37 60 21 0 0 0 1 1 0 2 0 0
971 779 701 813 674 491 302 185 87 68 87 196 164 123 146 142 149 142 87 80 65 76 52 200 404 491 452 393 320 100 0 0 0 0 0 0 0 5 5 4 3 4 1
898 706 627 680 522 419 284 153 145 185 289 251 218 147 109 180 175 165 91 95 88 44 4 3 79 116 72 63 6 0 0 0 0 0 0 0 0 10 14 18 15 16 13
872 631 517 462 356 340 301 256 288 296 341 265 217 236 228 198 142 191 108 92 109 28 0 0 0 1 0 0 0 0 0 0 0 0 0 0 0 14 17 11 11 14 18
691 499 402 307 324 405 411 414 392 375 427 374 317 273 289 267 188 202 130 67 77 53 14 0 0 0 0 0 0 0 0 0 0 0 0 0 0 17 14 8 5 6 7
381 356 314 357 276 282 321 429 400 417 468 429 374 318 318 251 199 190 141 82 35 22 19 9 0 0 0 0 0 0 0 0 0 0 0 0 12 15 12 5 4 4 6
46 4 5 8 101 196 238 309 346 421 480 421 402 365 279 224 171 139 115 101 73 43 1 0 0 0 0 0 0 0 0 0 0 0 0 0 15 13 8 2 2 4 6
5 5 4 29 99 116 200 254 299 297 377 374 384 322 236 213 162 112 74 70 108 64 26 0 0 0 0 0 0 0 0 0 0 0 0 0 14 16 18 2 1 0 1
13 6 2 19 130 160 184 297 294 356 343 351 297 256 71 23 3 0 19 29 61 25 3 0 0 0 0 0 0 0 0 0 0 0 0 19 8 20 21 5 0 0 0
10 27 8 8 21 111 134 136 144 196 93 78 58 10 0 0 0 0 0 0 48 0 0 0 0 0 0 0 0 0 0 0 0 0 0 0 0 19 21 16 0 0 0
0 0 0 0 0 90 97 46 31 20 11 18 19 2 1 0 0 0 0 0 0 0 0 0 0 0 0 0 0 0 0 0 0 0 0 0 0 4 19 14 8 2 0
0 0 0 0 0 51 59 55 25 7 0 0 0 0 0 0 0 0 0 0 0 0 0 0 0 0 0 0 0 0 0 0 0 0 0 0 0 0 20 9 13 13 4
10 9 1 0 45 91 69 24 2 0 0 0 0 0 0 0 0 0 0 0 0 0 0 0 0 0 0 0 0 0 0 0 0 0 0 0 0 0 20 8 11 11 7
0 2 21 80 52 12 6 7 2 0 0 1 0 0 0 0 0 0 0 0 0 0 0 0 0 0 0 0 0 0 0 0 0 0 0 0 0 26 1 0 0 4 3
0 0 55 125 14 1 0 0 0 0 5 0 0 0 0 0 0 0 0 0 0 0 0 0 0 0 0 0 0 0 0 0 0 0 0 0 0 0 0 0 0 0 0
12 51 80 173 0 0 0 0 0 7 0 0 0 0 0 0 0 0 0 0 0 0 0 0 0 0 0 0 0 0 0 0 0 0 0 0 0 0 0 0 0 0 0
0 1 65 68 0 0 0 0 0 0 0 0 0 0 0 0 0 0 0 0 0 0 0 0 0 0 0 0 0 0 0 0 0 0 0 0 0 0 0 0 0 0 0
0 17 11 0 0 0 0 0 0 0 0 0 0 0 0 0 0 0 0 0 0 0 0 0 0 0 0 0 0 0 0 0 0 0 0 0 0 0 0 0 0 0 0
0 12 2 0 0 0 0 0 1 0 0 0 0 0 0 0 0 0 0 0 0 0 0 0 0 0 0 0 0 0 0 0 0 0 0 0 0 0 0 0 0 0 0
1 0 2 0 0 0 0 0 0 0 0 0 0 0 0 0 0 0 0 0 0 0 0 0 0 0 0 0 0 0 0 0 0 0 0 0 0 0 0 0 0 0 0
18 0 17 0 0 0 0 0 0 0 0 0 0 0 0 0 0 0 0 0 0 0 0 0 0 0 0 0 0 0 0 0 0 0 0 0 0 0 0 0 0 0 0
45 5 13 0 0 0 0 0 0 0 0 0 0 0 0 0 0 0 0 0 0 0 0 0 0 0 0 0 0 0 0 0 0 0 0 0 0 0 0 0 0 0 0
19 0 4 0 0 0 0 0 0 0 0 0 0 0 0 0 0 0 0 0 0 0 0 0 0 0 0 0 0 0 0 0 0 0 0 0 0 0 0 0 0 0 0
0 0 0 0 0 0 0 0 0 0 0 0 0 0 0 0 0 0 0 0 0 0 0 0 0 0 0 0 0 0 0 0 0 0 0 0 0 0 0 0 0 0 0

GFSSE_con_sbcape_051.txt.gz
CAPE
816 811 802 884 843 653 486 384 278 191 179 168 139 120 132 128 114 97 105 93 127 129 63 185 600 448 146 73 56 0 12 79 179 133 5 1 0 0 0 0 61 105 260
851 792 766 865 795 637 442 296 170 137 158 170 204 188 164 126 121 112 132 173 256 159 152 172 423 296 229 23 35 9 0 88 0 0 0 0 2 2 0 0 0 0 1
924 805 754 783 716 555 367 265 222 252 196 168 233 226 147 129 139 152 149 348 774 589 460 215 450 382 173 53 62 0 0 0 0 0 0 0 1 5 5 2 1 2 0
1005 815 778 699 537 433 288 257 286 219 200 258 253 208 181 170 189 190 150 316 798 866 615 428 515 397 124 72 26 0 0 0 0 0 0 0 1 10 10 9 7 7 7
1050 839 751 524 386 322 223 239 276 299 258 224 231 235 246 226 232 203 141 132 341 723 624 607 425 113 13 42 40 0 0 0 0 0 0 3 10 26 25 19 17 19 16
977 817 511 341 307 265 261 355 352 271 181 145 193 291 292 279 265 200 115 83 192 372 346 278 4 0 9 0 0 0 0 0 0 0 0 6 13 20 17 19 14 16 19
845 730 557 248 238 327 421 509 419 263 201 221 250 278 243 260 202 195 141 98 82 114 88 4 2 1 0 0 0 0 0 0 0 0 0 5 12 7 6 5 8 14 13
422 502 279 347 323 393 436 436 322 282 272 279 305 311 280 210 142 164 167 135 90 24 0 0 9 7 0 0 0 0 0 0 0 0 0 3 11 9 6 3 4 5 6
2 11 252 128 171 265 304 332 322 299 310 335 370 293 251 177 110 105 126 115 81 36 14 0 0 0 0 0 0 0 0 0 0 0 0 1 9 8 6 2 4 5 3
9 3 4 20 38 41 269 311 404 292 273 286 275 215 195 167 129 135 159 135 48 20 0 0 0 0 0 0 0 0 0 0 0 0 0 4 14 12 7 1 0 0 1
3 11 5 11 0 80 245 328 420 405 246 209 189 172 74 22 1 0 24 108 92 4 0 0 0 0 0 0 0 0 0 0 0 0 0 3 11 19 17 2 0 0 0
2 1 7 25 29 69 140 276 321 314 223 152 115 87 74 56 6 0 11 59 23 0 0 0 0 0 0 0 0 0 0 0 0 0 0 0 0 18 21 12 5 1 1
8 21 23 20 0 24 74 140 198 243 170 101 85 66 53 49 41 0 2 0 0 0 0 0 0 0 0 0 0 0 0 0 0 0 0 0 0 13 13 9 10 6 0
15 22 18 8 19 65 113 196 181 115 83 76 64 81 32 17 10 0 0 0 0 0 0 0 0 0 0 0 0 0 0 0 0 0 0 0 0 2 10 4 7 7 7
0 1 0 0 0 36 118 120 91 96 79 96 78 117 1 0 0 0 0 0 0 0 0 0 0 0 0 0 0 0 0 0 0 0 0 0 0 0 13 0 17 7 5
0 0 0 0 2 60 175 101 121 105 60 74 99 151 28 0 0 0 0 0 0 0 0 0 0 0 0 0 0 0 0 0 0 0 0 0 0 20 0 0 1 1 1
0 0 0 0 21 160 190 69 77 39 17 27 64 19 41 1 0 0 0 0 0 0 0 0 0 0 0 0 0 0 0 0 0 0 0 0 0 0 0 0 0 0 0
2 0 3 23 107 149 117 46 10 34 105 110 69 100 135 40 0 0 0 0 0 0 0 0 0 0 0 0 0 0 0 0 0 0 0 0 0 0 0 0 0 0 0
2 7 21 193 306 147 78 28 30 55 123 172 2 1 0 0 0 0 0 0 0 0 0 0 0 0 0 0 0 0 0 0 0 0 0 0 0 0 0 0 0 0 0
13 43 126 295 282 83 50 6 12 29 69 26 0 0 0 0 0 0 0 0 0 0 0 0 0 0 0 0 0 0 0 0 0 0 0 0 0 0 0 0 0 0 0
27 69 112 280 267 89 42 27 30 33 47 7 0 0 0 0 0 0 0 0 0 0 0 0 0 0 0 0 0 0 0 0 0 0 0 0 0 0 0 0 0 0 0
72 97 138 227 273 147 81 43 34 34 7 12 2 0 0 0 0 0 0 0 0 0 0 0 0 0 0 0 0 0 0 0 0 0 0 0 0 0 0 0 0 0 0
142 118 122 209 273 212 88 23 0 1 2 2 2 0 0 0 0 0 0 0 0 0 0 0 0 0 0 0 0 0 0 0 0 0 0 0 0 0 0 0 0 0 0
367 162 130 185 203 155 47 16 4 44 63 2 3 0 0 0 0 0 0 0 0 0 0 0 0 0 0 0 0 0 0 0 0 0 0 0 0 0 0 0 0 0 0
544 335 259 199 160 128 16 30 35 20 70 0 0 0 0 0 0 0 0 0 0 0 0 0 0 0 0 0 0 0 0 0 0 0 0 0 0 0 0 0 0 0 0
480 313 286 211 163 125 39 30 0 0 0 0 0 0 0 0 0 0 0 0 0 0 0 0 0 0 0 0 0 0 0 0 0 0 0 0 4 7 13 4 0 0 0

GFSSE_con_sbcape_057.txt.gz
CAPE
1225 870 1135 1389 1400 1274 1153 984 786 633 551 497 411 414 420 450 518 557 595 858 911 798 234 109 55 35 34 29 15 10 20 159 147 121 1 11 10 3 0 125 75 55 179
1160 874 1051 1342 1341 1272 1137 884 657 526 520 474 451 409 392 445 448 531 834 962 909 556 69 15 0 0 0 0 0 0 0 0 81 151 109 0 8 11 12 1 22 9 11
1239 914 1216 1172 1290 1212 1032 787 626 583 555 521 453 397 388 419 488 561 752 927 849 626 34 0 0 0 0 0 0 0 0 0 0 12 222 1 13 23 27 32 46 20 15
1429 910 1127 972 1019 990 806 663 611 543 492 461 431 446 511 587 782 781 838 887 924 647 1 7 0 0 0 0 0 0 0 0 0 45 18 5 6 32 28 24 24 37 39
1416 748 1051 740 710 726 608 570 490 525 430 397 459 600 651 1159 1200 1227 920 892 922 591 66 17 0 0 0 0 0 0 0 0 24 2 1 1 0 11 2 2 8 9 18
1400 718 459 393 444 538 563 522 522 441 354 371 476 590 814 1025 1165 1141 943 858 881 486 37 0 0 0 0 0 0 0 0 0 41 9 3 0 0 7 7 5 6 6 15
1142 794 675 167 345 550 601 608 487 380 370 459 513 495 528 664 917 1128 987 870 590 231 29 0 0 0 0 0 0 0 0 0 1 4 3 1 4 6 8 9 7 10 12
301 215 218 196 246 335 484 428 351 371 421 495 441 405 374 351 545 739 730 352 256 200 87 0 0 0 0 0 0 0 0 0 0 7 3 1 6 7 10 8 7 9 12
344 122 92 102 226 173 136 145 185 340 394 438 369 323 257 203 220 294 300 303 254 173 63 3 0 0 0 0 0 0 0 0 0 1 6 4 4 8 10 6 8 8 7
162 21 67 45 104 107 150 122 197 236 269 271 235 203 220 212 200 183 160 222 255 160 41 0 0 0 0 0 0 0 0 0 0 0 0 4 10 7 5 4 4 4 4
4 23 87 61 42 128 154 187 169 318 333 205 191 169 91 73 42 45 131 128 113 78 23 0 0 0 0 0 0 0 0 0 0 0 0 21 8 8 5 3 3 5 5
5 4 2 15 18 44 11 54 103 206 269 152 135 200 98 115 116 83 114 138 64 15 1 0 0 0 0 0 0 0 0 0 0 0 0 3 18 11 10 7 1 1 2
7 3 0 0 0 12 11 29 66 118 203 134 238 216 287 260 227 123 31 2 0 0 0 0 0 0 0 0 0 0 0 0 0 0 0 0 13 12 6 9 8 1 1
7 6 3 16 16 1 0 0 32 127 202 208 229 325 366 251 303 185 37 2 0 0 0 0 0 0 0 0 0 0 0 0 0 0 0 0 0 7 8 7 3 1 0
7 16 9 4 14 8 0 12 12 70 60 54 166 285 263 204 325 221 184 24 9 0 0 0 0 0 0 0 0 0 0 0 0 0 0 0 0 5 3 13 4 3 0
14 21 20 10 28 33 33 68 68 226 213 195 234 301 430 407 390 245 166 38 2 0 0 0 0 0 0 0 0 0 0 0 0 0 0 0 0 19 1 0 4 2 1
1 1 4 2 41 42 34 53 130 266 240 203 187 475 312 256 305 200 77 59 8 0 0 0 0 0 0 0 0 0 0 0 0 0 0 0 0 0 0 0 0 0 0
5 2 8 6 16 37 25 45 179 238 219 62 181 271 447 213 304 146 106 48 10 3 0 0 0 0 0 0 0 0 0 0 0 0 0 0 0 6 0 0 0 0 0
16 4 4 7 51 71 152 148 216 288 152 160 149 366 551 422 204 167 88 92 95 8 0 0 0 2 0 0 0 0 0 0 0 0 0 0 0 0 0 0 0 0 0
0 0 6 17 64 204 200 223 99 102 223 106 64 341 536 591 692 298 186 216 80 0 0 0 0 0 0 0 0 0 0 0 0 0 0 0 0 0 0 0 0 0 0
52 42 23 41 231 70 102 107 89 13 45 58 162 433 700 529 609 755 537 423 52 0 0 0 0 0 0 0 0 0 6 0 0 0 0 0 0 0 0 0 0 0 0
112 26 3 4 19 76 46 38 58 75 8 119 245 506 583 490 484 525 624 433 62 0 0 0 0 0 0 0 0 1 6 6 0 0 0 0 0 0 0 0 0 0 0
224 134 48 158 182 207 249 191 133 77 68 70 196 393 475 255 23 17 57 159 44 22 0 0 0 0 0 0 0 0 5 2 0 0 0 0 0 0 0 0 0 2 8
283 287 270 280 313 384 492 406 334 135 63 64 228 306 392 12 0 0 0 3 171 86 1 0 0 0 0 10 0 0 0 0 0 0 0 0 1 0 2 2 5 8 13
482 546 514 515 593 630 688 572 517 366 171 154 266 394 361 116 11 0 0 2 99 5 0 0 0 2 0 0 0 0 0 0 0 5 2 0 0 0 2 3 9 11 0
755 908 955 572 542 553 646 856 968 870 502 267 324 751 457 211 106 63 24 0 0 0 0 0 13 2 0 0 0 0 0 0 3 8 2 0 0 0 0 2 2 2 5

GFSSE_con_sbcape_060.txt.gz
CAPE
726 1041 1383 1386 1246 1154 1081 969 856 750 713 673 627 620 618 659 644 709 861 810 667 411 65 34 0 0 0 0 0 3 154 166 111 125 50 7 6 2 0 94 70 4 100
578 1324 1451 1438 1380 1291 1147 992 830 726 674 699 657 619 653 691 740 1022 924 704 415 87 1 0 0 0 0 0 0 0 3 165 107 76 12 22 25 35 26 15 30 15 11
247 1434 1678 1465 1483 1422 1216 979 857 810 766 748 647 662 709 789 1050 1039 836 450 334 122 2 0 0 0 0 0 0 0 4 28 42 120 22 3 18 27 46 38 50 44 34
956 1324 1714 1530 1460 1350 1083 945 831 735 694 634 597 602 668 795 1033 1074 830 409 332 191 1 0 0 0 0 0 0 0 7 38 74 53 0 0 10 26 22 25 23 26 30
1244 1237 1610 1380 1218 1118 929 837 740 709 567 531 567 738 821 945 1145 1122 833 376 362 173 13 0 0 0 0 0 0 0 0 14 14 0 0 0 0 17 13 10 13 16 15
1128 1343 803 807 847 911 905 835 737 499 470 506 602 1031 1246 1202 1182 1067 775 408 378 141 0 0 0 0 0 0 0 0 1 10 0 0 0 0 0 9 11 13 14 18 15
560 700 550 506 626 813 884 864 612 510 517 587 919 1194 1272 1352 1113 946 730 319 237 121 0 0 0 0 0 0 0 0 0 6 0 0 0 0 0 12 9 8 10 10 10
592 337 267 286 355 516 619 572 462 480 573 619 740 969 1259 1170 1021 907 384 230 171 84 6 0 0 0 0 0 0 0 0 1 0 0 0 0 3 6 7 7 7 8 8
174 9 5 7 32 65 119 209 340 428 468 450 398 506 641 680 572 378 271 204 135 74 19 1 0 0 0 0 0 0 0 0 0 0 0 0 3 3 6 10 11 11 9
196 48 10 0 15 3 1 98 184 213 254 275 210 178 204 249 293 270 209 173 106 55 2 0 0 0 0 0 0 0 0 0 0 0 0 0 3 6 6 7 9 8 9
161 57 40 10 9 8 10 61 129 242 250 243 196 130 100 101 77 77 177 154 113 58 5 0 0 0 0 0 0 0 0 0 0 0 0 18 8 10 3 2 4 4 6
1 8 26 17 3 5 0 0 1 99 109 201 97 28 3 29 30 83 118 103 85 35 0 0 0 0 0 0 0 0 0 0 0 0 0 15 6 5 4 0 0 1 1
2 0 0 2 0 0 11 29 38 58 81 124 238 163 115 57 59 92 23 10 1 0 0 0 0 0 0 0 0 0 0 0 0 0 0 0 12 7 8 3 1 1 0
2 5 2 3 1 1 0 1 7 30 95 142 223 251 248 191 103 46 33 4 0 0 0 0 0 0 0 0 0 0 0 0 0 0 0 0 12 16 10 7 2 1 1
4 8 8 1 0 0 0 2 0 7 112 163 202 263 278 226 165 76 41 4 0 0 0 0 0 0 0 0 0 0 0 0 0 0 0 0 0 7 4 6 4 0 0
6 3 4 3 0 0 0 0 0 19 36 89 253 250 249 217 355 121 172 59 19 0 0 0 0 0 0 0 0 0 0 0 0 0 0 0 0 2 1 6 4 6 7
4 4 8 7 0 0 0 0 0 10 66 169 273 293 253 283 341 220 189 195 52 0 0 0 0 0 0 0 0 0 0 0 0 0 0 0 0 0 0 0 0 0 0
1 0 1 3 1 0 0 0 8 34 135 147 231 243 227 328 309 280 136 150 44 6 0 0 0 0 0 0 0 0 0 0 0 0 0 0 0 0 1 0 0 0 0
0 2 11 14 6 0 0 0 1 77 99 82 43 229 304 306 295 220 208 95 122 2 0 0 0 0 0 0 0 0 0 0 0 0 0 0 0 0 0 2 0 0 0
0 1 6 5 0 0 0 0 38 74 79 100 91 304 413 368 179 243 170 165 132 14 0 0 0 0 0 0 0 0 0 0 0 0 0 0 0 0 0 0 0 0 0
0 1 1 0 2 0 0 0 18 62 111 102 62 167 427 393 417 333 197 204 140 32 0 0 0 0 0 0 0 0 0 0 0 0 0 0 0 0 0 0 0 0 0
0 0 0 0 0 3 10 4 43 1 18 88 43 141 445 552 418 351 344 300 164 1 0 0 0 0 0 0 0 0 0 0 0 0 0 0 0 0 0 0 0 0 0
0 0 0 0 0 0 72 35 17 0 0 0 37 68 385 372 278 291 425 282 91 25 0 0 0 0 0 0 0 0 0 0 0 0 0 0 0 0 0 0 0 0 0
34 11 0 0 7 5 17 34 7 21 11 1 34 77 346 306 113 23 6 2 15 0 0 0 0 0 0 0 0 0 0 0 0 0 0 0 0 0 0 0 0 0 0
205 94 0 0 7 80 74 235 144 151 38 44 69 154 343 102 18 3 1 0 0 0 0 0 0 0 0 0 0 0 0 0 0 0 0 0 0 0 0 0 0 0 0
261 303 197 238 241 236 186 252 579 546 351 113 139 178 334 128 40 6 2 0 2 0 0 0 0 0 0 0 0 0 0 0 0 0 0 0 0 0 0 0 0 0 0

GFSSE_con_sbcape_066.txt.gz
CAPE
1668 1498 1505 1705 1685 1496 1340 1133 1039 994 927 929 1072 1047 978 899 770 616 464 363 290 138 0 3 68 35 9 7 5 29 59 52 45 49 33 28 26 20 13 10 25 22 140
1513 1666 1390 1732 1717 1648 1226 1114 978 970 983 934 1081 1129 966 792 653 535 396 234 106 4 0 5 11 13 16 18 44 61 38 33 12 36 51 43 34 23 26 20 22 16 62
643 1610 1656 1632 1634 1525 1307 1167 1151 1187 1062 1044 1266 1205 1027 806 609 482 319 123 29 0 0 3 5 4 18 27 39 65 47 28 8 15 3 3 5 21 22 32 44 31 47
165 19 1106 1499 1281 1153 693 1198 1257 1197 1124 1175 1398 1331 1003 781 559 414 269 130 46 0 0 0 0 0 0 0 0 29 3 0 0 0 0 0 3 17 12 14 9 26 44
39 0 19 1151 1067 974 909 1058 1214 1142 986 1222 1442 1272 992 760 610 465 270 125 40 0 0 0 0 0 0 0 0 0 0 0 0 0 0 0 0 17 16 13 13 36 24
80 172 495 885 912 1007 260 1016 1142 1006 868 1222 1324 1177 998 806 691 520 264 113 11 0 0 0 0 0 0 0 0 0 0 0 0 0 0 0 0 19 17 16 25 28 31
821 753 637 453 198 671 919 996 868 806 790 1207 1282 1032 882 765 667 453 182 19 0 0 0 0 0 0 0 0 0 0 0 0 0 0 0 0 1 18 20 21 18 13 9
198 2 0 0 1 52 411 666 299 476 730 1120 1157 921 824 676 488 270 72 1 0 0 0 0 0 0 0 0 0 0 0 0 0 0 0 0 13 18 20 18 16 12 11
107 2 3 7 2 37 15 129 374 469 627 833 826 712 555 298 171 67 23 0 0 0 0 0 0 0 0 0 0 0 0 0 0 0 0 0 16 17 17 19 19 19 19
10 10 10 6 3 0 2 1 63 211 603 527 425 323 190 83 73 32 0 0 0 0 0 0 0 0 0 0 0 0 0 0 0 0 0 0 9 9 10 17 17 18 12
25 2 2 6 2 0 5 1 0 94 287 226 187 131 38 0 0 0 4 0 0 0 0 0 0 0 0 0 0 0 0 0 0 0 0 9 4 7 8 14 13 13 9
25 7 5 2 2 3 7 11 2 122 76 61 55 6 5 0 0 0 2 4 9 6 0 0 0 0 0 0 0 0 0 0 0 0 0 8 2 5 5 7 10 6 5
5 7 1 2 1 1 3 3 29 1 0 0 13 19 13 2 0 2 1 0 0 0 0 0 0 0 0 0 0 0 0 0 0 0 0 11 5 4 4 5 8 9 1
1 3 3 1 0 0 3 0 0 0 0 0 0 23 2 1 0 0 0 0 0 0 0 0 0 0 0 0 0 0 0 0 0 0 0 0 5 2 4 5 4 4 2
1 2 1 0 0 0 0 0 0 0 0 0 0 0 4 1 0 0 0 0 0 0 0 0 0 0 0 0 0 0 0 0 0 0 0 0 0 2 4 6 8 5 0
3 1 4 0 0 0 0 0 0 0 0 0 4 0 0 0 0 0 0 0 0 0 0 0 0 0 0 0 0 0 0 0 0 0 0 0 0 0 8 5 3 1 1
3 2 2 0 0 0 0 0 0 0 0 9 21 12 10 2 0 0 0 0 0 0 0 0 0 0 0 0 0 0 0 0 0 0 0 0 0 0 11 3 0 0 3
3 2 3 4 0 0 0 0 0 0 0 10 42 51 22 20 6 0 0 0 0 0 0 0 0 0 0 0 0 0 0 0 0 0 0 0 0 0 0 10 0 0 0
2 3 5 1 0 0 0 0 0 0 0 0 33 37 31 63 44 4 5 0 0 0 0 0 0 0 0 0 0 0 0 0 0 0 0 0 0 0 0 0 0 0 0
3 1 4 1 0 0 0 0 0 0 0 3 3 43 25 39 70 21 1 0 0 0 0 0 0 0 0 0 0 0 0 0 0 0 0 0 0 0 0 0 0 0 0
0 1 0 0 0 0 0 0 0 0 0 0 0 1 17 1 67 0 12 14 0 0 0 0 0 0 0 0 0 0 0 0 0 0 0 0 0 0 0 0 0 0 0
0 0 0 0 0 0 0 0 0 0 0 0 0 0 0 0 13 48 37 16 0 0 0 0 0 0 0 0 0 0 0 0 0 0 0 0 0 0 0 0 0 0 0
0 0 0 0 0 0 0 0 0 0 0 1 0 0 0 2 25 22 17 8 12 0 0 0 0 0 0 0 0 0 0 0 0 0 0 0 0 0 0 0 0 0 0
0 0 0 0 0 0 0 0 0 0 0 0 0 0 0 6 32 57 28 5 0 0 0 0 0 0 0 0 0 0 0 0 0 0 0 0 0 0 0 0 0 0 0
0 0 0 0 0 0 0 0 0 0 0 0 0 0 0 0 21 21 37 12 17 0 0 0 0 0 0 0 0 0 0 0 0 0 0 0 0 0 0 0 0 0 0
0 0 0 0 0 0 0 0 0 0 0 0 0 0 0 0 18 13 10 3 2 0 0 0 0 0 0 0 0 0 0 0 0 0 0 0 0 0 0 0 0 0 0

GFSSE_con_sbcape_069.txt.gz
CAPE
1605 1383 1608 1535 1627 1366 1324 1308 1247 1143 1155 1143 1059 1035 988 919 788 727 589 436 305 253 21 20 27 17 18 25 21 20 38 40 39 40 26 23 26 22 17 43 67 38 130
1240 1407 1604 1686 1681 1491 1367 1422 1310 1390 1507 1399 1225 1066 945 768 692 571 440 275 238 230 49 38 25 21 14 10 8 11 9 38 51 69 56 44 31 17 9 28 136 54 73
1717 1512 1667 1628 1679 1554 1427 1441 1442 1529 1663 1495 1319 1092 914 776 592 437 285 200 335 300 60 26 17 31 15 4 18 1 0 0 12 26 24 0 8 37 46 54 72 48 43
584 1537 1684 1679 1665 1486 1270 1264 1251 1465 1673 1536 1326 1118 939 775 564 333 172 172 341 315 35 15 11 11 15 79 11 0 0 0 0 0 0 0 8 36 46 53 46 30 40
333 147 1499 1637 1432 1248 895 831 636 851 1526 1471 1242 1112 866 730 579 343 114 114 312 244 12 1 0 0 1 72 9 0 0 0 0 0 0 0 0 18 29 38 36 39 34
468 81 110 1239 923 804 682 695 907 830 1060 1387 1138 1021 882 787 615 329 93 91 277 161 1 0 0 0 0 0 0 0 0 0 0 0 0 3 1 20 32 24 26 27 19
369 451 361 105 0 0 3 372 940 540 960 1296 1074 836 824 749 534 239 49 20 27 4 0 0 1 0 0 0 0 0 0 0 0 0 0 0 2 20 23 14 16 21 16
278 342 25 0 0 8 4 4 332 235 853 1046 868 767 756 577 314 111 4 0 0 0 0 0 0 0 0 0 0 0 0 0 0 0 0 0 9 24 18 20 17 10 14
25 5 1 0 0 2 0 3 263 35 400 756 561 549 485 282 80 3 0 0 0 0 0 0 0 0 0 0 0 0 0 0 0 0 0 0 11 17 21 17 15 15 19
43 7 7 6 0 0 0 0 25 49 482 490 449 350 200 105 10 0 0 0 0 0 0 0 0 0 0 0 0 0 0 0 0 0 0 1 12 15 14 13 14 12 10
31 33 4 4 2 0 0 3 0 1 386 368 325 187 62 0 0 0 0 0 0 0 0 0 0 5 4 0 0 0 0 0 0 0 0 12 5 11 11 11 10 9 8
2 2 3 3 3 1 10 2 0 0 49 162 134 69 16 0 0 0 0 0 0 0 0 0 0 0 0 0 0 0 0 0 0 0 0 13 7 9 13 9 8 9 5
4 3 2 3 2 5 1 2 14 15 3 41 66 40 11 0 0 0 0 0 0 0 0 0 0 0 0 0 0 0 0 0 0 0 2 13 10 10 10 10 3 2 3
2 2 1 4 6 2 0 0 0 42 31 34 36 26 5 0 0 0 0 0 0 0 0 0 0 0 0 0 0 0 0 0 0 0 0 11 11 6 5 6 5 0 0
1 2 1 1 1 0 3 0 4 0 0 1 22 28 5 1 0 0 0 0 0 0 0 0 0 0 0 0 0 0 0 0 0 0 0 0 7 6 4 4 5 2 0
1 1 1 1 0 0 0 0 0 0 0 0 3 0 0 0 0 0 0 0 0 0 0 0 0 0 0 0 0 0 0 0 0 0 0 0 0 1 0 1 5 5 1
1 2 2 2 2 0 0 0 0 0 0 0 0 0 0 0 0 0 0 0 0 0 0 0 0 0 0 0 0 0 0 0 0 0 0 0 0 0 4 8 0 1 2
1 2 4 10 3 0 0 0 0 0 0 0 0 2 0 0 0 0 0 0 0 0 0 0 0 0 0 0 0 0 0 0 0 0 0 0 0 0 0 15 28 3 0
1 5 4 3 2 0 0 0 0 0 0 13 22 9 8 0 0 0 0 0 0 0 0 0 0 0 0 0 0 0 0 0 0 0 0 0 0 0 0 0 0 0 0
0 3 2 2 1 0 0 0 0 0 1 22 51 40 23 8 4 2 0 0 0 0 0 0 0 0 0 0 0 0 0 0 0 0 0 0 0 0 0 0 0 0 0
1 2 2 1 0 0 0 0 0 0 0 5 9 37 38 50 55 11 18 1 0 0 0 0 0 0 0 0 0 0 0 0 0 0 0 0 0 0 0 0 0 0 0
6 2 1 0 0 0 0 0 0 0 0 0 0 4 15 29 42 26 11 3 0 0 0 0 0 0 0 0 0 0 0 0 0 0 0 0 0 0 0 0 0 0 0
0 1 0 0 0 0 0 0 0 0 0 0 0 0 1 13 37 27 23 10 1 0 0 0 0 0 0 0 0 0 0 0 0 0 0 0 0 0 0 0 0 0 0
0 0 0 0 0 0 0 0 0 0 0 0 0 0 0 0 1 28 18 19 11 0 0 0 0 0 0 0 0 0 0 0 0 0 0 0 0 0 0 0 0 0 0
0 0 0 0 0 0 0 0 0 0 0 0 0 0 0 0 0 6 10 0 1 0 0 0 0 0 0 0 0 0 0 0 0 0 0 0 0 0 0 0 0 0 0
0 0 0 0 0 0 0 0 0 0 0 0 0 0 0 0 0 0 0 1 0 0 0 0 0 0 0 0 0 0 0 0 0 0 0 0 0 0 0 0 0 0 0

GFSSE_con_sbcape_072.txt.gz
CAPE
1117 1556 1560 1488 1577 1502 1362 1190 1154 1418 1490 1483 1350 1366 1338 1285 1183 1059 930 760 673 645 298 122 255 87 74 51 14 16 21 28 39 52 37 31 24 83 81 81 69 56 100
1074 1613 1484 1511 1626 1616 1424 1320 1228 1302 1544 1510 1443 1388 1320 1217 1040 838 647 544 513 352 28 9 17 27 40 30 18 31 36 54 52 52 45 26 18 35 74 67 82 47 58
1648 1591 1644 1617 1681 1749 1646 1566 1524 1546 1604 1561 1512 1322 1209 1117 921 689 591 500 466 380 38 25 23 20 20 14 12 6 2 19 32 32 18 13 35 55 53 49 42 24 25
951 1283 1443 1590 1676 1713 1657 1689 1726 1706 1599 1590 1428 1254 1116 995 781 619 562 445 431 396 79 22 39 15 5 3 2 0 0 0 1 1 0 11 32 68 50 43 38 41 35
595 541 1250 1552 1279 1399 1564 1659 1721 1608 1479 1393 1236 1247 1070 836 636 627 500 411 534 567 309 197 103 25 3 3 3 2 0 0 0 0 0 0 18 41 47 33 28 25 13
874 399 399 378 172 618 764 402 810 1354 1301 1187 1144 1102 884 667 554 600 480 473 454 276 21 29 28 133 2 1 2 0 0 0 0 0 0 5 2 32 29 16 19 20 22
940 370 317 95 3 20 58 51 27 724 1006 1093 1077 883 751 679 489 398 471 365 141 3 1 29 17 3 0 0 0 0 0 0 0 0 0 0 10 25 17 23 12 19 15
717 415 59 93 13 0 2 0 39 336 751 907 873 788 751 520 305 367 365 79 0 36 146 28 5 0 0 0 0 0 0 0 0 0 0 4 8 23 24 15 19 14 18
173 4 0 5 0 0 0 0 44 326 502 589 504 661 452 270 214 152 32 0 0 60 99 2 0 0 0 0 0 0 0 0 0 0 0 0 19 17 17 15 13 14 14
6 2 3 5 0 0 0 0 13 161 393 281 337 418 255 142 120 0 0 0 0 0 25 0 0 0 0 0 0 0 0 0 0 0 0 8 23 22 21 13 13 13 12
7 3 1 1 0 0 0 0 0 157 212 199 285 257 161 43 1 0 0 0 0 0 12 12 0 0 0 0 0 0 0 0 0 0 0 30 21 18 11 9 10 6 7
14 2 1 1 1 0 0 0 7 59 45 79 102 125 94 0 0 0 0 0 0 0 15 11 0 0 0 0 0 0 0 0 0 0 0 21 13 11 8 8 7 5 3
1 2 2 1 1 5 0 0 0 1 72 77 79 105 2 2 0 0 0 0 0 0 0 2 0 0 0 0 0 0 0 0 0 0 3 16 12 10 8 9 6 6 1
1 1 2 2 1 2 4 0 0 0 23 29 36 35 0 0 0 0 0 0 0 0 0 0 0 0 0 0 0 0 0 0 0 0 2 12 15 10 13 6 5 4 1
1 2 3 2 7 0 2 0 0 7 8 41 15 11 0 0 0 0 0 0 0 0 0 0 0 0 0 0 0 0 0 0 0 0 0 10 14 10 9 12 4 0 0
4 5 2 4 1 0 0 0 0 2 14 38 34 1 0 0 0 0 0 0 0 0 0 0 0 0 0 0 0 0 0 0 0 0 0 0 0 10 11 8 8 4 0
0 1 1 3 1 1 0 2 0 0 8 13 19 12 0 0 0 0 0 0 0 0 0 0 0 0 0 0 0 0 0 0 0 0 0 0 0 0 3 6 3 3 2
0 2 1 6 2 0 0 0 0 0 0 0 3 11 0 0 0 0 0 0 0 0 0 0 0 0 0 0 0 0 0 0 0 0 0 0 0 0 0 3 9 2 1
1 4 6 4 3 1 0 0 0 0 0 0 0 3 0 0 0 0 0 0 0 0 0 0 0 0 0 0 0 0 0 0 0 0 0 0 0 0 0 0 2 13 27
0 4 4 4 2 1 0 0 0 0 0 0 0 0 0 0 0 0 0 0 0 0 0 0 0 0 0 0 0 0 0 0 0 0 0 0 0 0 0 0 0 0 0
0 2 3 2 1 0 0 0 0 0 0 0 0 2 0 1 0 0 0 0 0 0 0 0 0 0 0 0 0 0 0 0 0 0 0 0 0 0 0 0 0 0 0
0 1 1 1 0 0 0 0 0 0 0 0 0 6 29 26 10 6 14 9 2 0 0 0 0 0 0 0 0 0 0 0 0 0 0 0 0 0 0 0 0 0 0
0 1 0 0 0 0 0 0 0 0 0 0 0 0 11 29 41 65 18 11 4 0 0 0 0 0 0 0 0 0 0 0 0 0 0 0 0 0 0 0 0 0 0
1 0 0 0 0 0 0 0 0 0 0 0 0 0 0 3 7 29 48 10 3 0 0 0 0 0 0 0 0 0 0 0 0 0 0 0 0 0 0 0 0 0 0
0 0 0 0 0 0 0 0 0 0 0 0 0 0 0 0 0 0 9 14 14 3 0 0 0 0 0 0 0 0 0 0 0 0 0 0 0 0 0 0 0 0 0
0 0 0 0 0 0 0 0 0 0 0 0 0 0 0 0 0 0 0 6 12 5 9 0 0 0 0 0 0 0 0 0 0 0 0 0 0 0 0 0 0 0 0

GFSSE_con_sbcape_075.txt.gz
CAPE
1278 1409 1522 1720 1679 1597 1699 1667 1503 1480 1548 1517 1386 1260 1239 1337 1318 1341 1302 1231 938 692 600 408 574 298 134 85 88 94 146 194 155 165 257 102 102 112 79 98 93 35 68
1284 1567 1469 1650 1737 1647 1735 1842 1709 1672 1685 1639 1465 1425 1439 1388 1401 1293 1198 1127 913 736 382 283 282 124 21 12 19 64 40 15 28 56 81 75 74 79 54 31 57 20 15
1833 1749 1556 1687 1762 1747 1848 1989 1921 1910 1852 1706 1653 1584 1491 1420 1262 1062 879 796 780 645 170 160 95 100 21 19 26 68 46 46 44 34 34 32 56 41 22 5 10 6 10
1727 1866 1602 1672 1775 1753 1755 1888 2012 2027 1921 1773 1736 1670 1516 1257 1062 974 788 647 583 434 12 13 24 39 23 28 25 10 4 8 10 16 21 34 35 38 25 14 14 17 20
599 1477 1427 1628 1462 1301 1595 1835 1945 1927 1779 1673 1591 1644 1455 1146 1030 877 652 597 598 484 129 22 36 33 19 26 14 5 0 0 1 6 25 32 27 25 25 13 17 12 23
700 906 979 995 930 696 788 1217 1320 1753 1577 1473 1432 1477 1337 1119 1012 794 590 508 470 384 272 43 18 7 6 3 0 0 0 0 0 6 19 25 18 20 21 18 23 14 21
850 764 542 742 680 640 377 304 243 1018 959 1153 1340 1214 1057 1038 861 663 579 512 588 712 513 323 9 1 0 0 0 0 0 0 1 11 22 24 20 25 19 24 14 19 17
802 566 467 602 706 547 289 68 54 385 316 835 867 980 846 794 559 535 447 261 154 287 350 341 7 1 1 0 0 0 0 0 0 15 17 15 33 24 27 15 20 17 14
359 343 266 276 399 262 142 106 98 450 566 589 683 707 493 429 309 366 125 33 120 326 263 126 3 0 0 0 0 0 0 0 3 9 2 15 20 19 19 18 13 11 8
23 26 81 109 41 5 14 0 52 277 432 442 507 386 176 217 252 89 0 135 330 239 125 3 0 0 0 0 0 0 0 0 1 3 7 11 21 16 17 13 8 8 8
59 33 12 11 4 0 0 0 36 307 320 283 271 180 56 91 76 17 0 82 247 149 40 0 0 0 0 0 0 0 0 0 0 4 6 27 22 17 12 10 8 7 7
20 19 26 44 3 3 0 3 6 10 266 191 121 80 13 12 11 0 14 24 156 110 26 4 0 0 0 0 0 0 0 0 0 1 6 29 19 14 11 7 6 4 3
44 7 6 1 1 0 0 0 4 36 88 17 32 42 0 9 14 4 5 0 100 102 0 2 3 0 0 0 0 0 0 0 1 3 8 21 15 12 8 4 2 2 2
4 2 2 1 3 5 0 0 4 2 3 13 30 10 13 0 0 0 0 0 0 54 78 18 1 0 0 0 0 0 0 0 0 0 4 14 15 6 10 8 6 2 0
15 7 4 3 4 1 3 0 11 12 2 0 36 0 4 0 0 0 0 0 0 0 0 0 0 0 0 0 0 0 0 0 0 0 0 5 16 14 9 12 8 3 1
22 11 8 6 6 0 1 0 6 12 5 2 4 5 0 0 0 0 0 0 0 0 0 0 0 0 0 0 0 0 0 0 0 0 1 3 5 19 23 9 6 3 0
5 20 22 20 4 1 0 1 3 11 14 12 4 32 2 0 0 0 0 0 0 0 0 0 0 0 0 0 0 0 0 0 0 0 0 2 3 8 16 22 7 5 2
2 20 20 9 3 1 6 20 3 2 39 2 19 10 3 0 0 0 0 0 0 0 0 0 0 0 0 0 0 0 0 0 0 0 0 0 2 3 3 18 16 1 1
0 13 5 5 3 3 6 37 3 1 1 0 8 2 1 0 0 0 0 0 0 0 0 0 0 0 0 0 0 0 0 0 0 0 0 0 0 0 1 0 7 13 20
8 9 7 6 4 3 9 4 1 1 3 1 10 1 0 0 0 0 0 0 0 0 0 0 0 0 0 0 0 0 0 0 0 0 0 0 0 0 0 0 2 2 2
9 15 10 6 3 1 2 13 2 2 2 2 16 4 1 0 0 0 0 0 7 17 0 0 0 0 0 0 0 0 0 0 0 0 0 0 0 0 0 0 0 0 2
5 7 10 4 3 3 0 14 5 1 2 5 9 7 4 0 0 0 11 34 12 54 7 0 0 0 0 0 0 0 0 0 0 0 0 0 0 0 0 0 0 0 0
1 2 1 3 3 2 0 0 1 1 1 1 1 10 5 1 0 6 34 77 74 59 59 16 4 7 2 0 0 0 0 0 0 0 0 0 0 0 0 0 0 0 0
5 0 11 5 3 3 0 0 1 0 0 0 0 0 2 6 19 39 52 59 125 103 112 84 15 19 6 7 0 0 0 0 0 0 0 0 0 0 0 0 0 0 0
1 3 3 4 1 1 4 3 0 1 0 2 0 0 21 18 7 36 68 148 172 144 187 113 36 14 33 8 0 0 0 0 0 0 0 2 0 0 0 0 0 0 0
1 6 2 5 6 0 0 2 0 0 0 0 0 0 0 3 7 49 68 126 191 254 253 236 129 39 28 0 5 7 4 3 0 0 1 0 0 0 0 0 0 0 0

GFSSE_con_sbcape_078.txt.gz
CAPE
1447 1283 1253 1674 1688 1774 1888 1765 1580 1516 1593 1667 1510 1330 1213 1254 1264 1353 1383 1274 1094 1006 638 590 456 356 363 276 226 172 355 353 297 381 419 214 126 125 73 137 153 72 86
1562 1396 1473 1776 1815 1874 2112 1869 1696 1708 1787 1757 1565 1411 1464 1464 1465 1542 1459 1200 983 816 566 521 405 317 177 56 40 119 169 197 260 308 303 105 69 70 53 36 61 27 26
1785 1653 1509 1791 1823 1991 2231 2080 2020 2064 1978 1790 1621 1669 1716 1733 1754 1618 1314 1095 887 669 561 367 174 75 36 13 135 53 47 16 140 318 309 66 47 40 21 17 20 17 13
1767 1999 1632 1674 1775 1977 2189 2201 2161 2225 2025 1813 1860 1859 1918 1830 1717 1596 1268 1032 910 710 381 231 103 34 17 8 4 0 3 17 3 68 80 43 32 26 15 12 9 10 10
1210 2304 1827 1708 1784 1856 1775 2057 2095 2079 1888 1818 1839 1911 1895 1764 1577 1356 963 717 667 710 294 154 80 24 6 0 5 6 5 1 4 57 40 40 19 15 11 4 6 4 8
749 1771 1318 1603 1591 1624 1485 1628 910 1665 1798 1749 1817 1844 1798 1707 1494 1144 732 572 525 505 282 49 42 18 10 2 5 0 4 0 20 34 6 11 9 23 10 8 6 6 9
1409 1318 1401 1220 1058 1000 1160 1190 883 970 1245 1457 1516 1656 1634 1590 1360 1041 711 474 400 352 223 30 22 11 2 0 0 0 0 0 4 11 8 8 15 24 11 12 11 11 11
1352 1344 1571 1010 1067 911 784 585 535 1035 835 1261 846 1256 1493 1366 1127 929 634 528 597 296 164 47 13 5 0 0 0 0 0 0 5 5 4 13 26 17 14 14 12 13 14
943 1246 1248 1509 599 192 70 126 385 541 892 809 715 615 885 831 858 778 613 633 455 430 120 10 7 2 0 0 0 0 0 3 4 1 3 15 24 13 15 13 13 13 14
254 284 571 1028 699 594 358 0 35 494 347 427 472 502 422 462 546 404 285 480 463 325 100 3 2 1 0 0 0 0 0 0 0 1 1 7 22 18 19 17 13 13 12
12 38 62 34 327 338 171 110 24 167 313 286 313 252 222 444 231 201 181 325 240 142 64 3 3 1 0 0 0 0 0 0 1 1 0 21 27 19 18 13 13 12 10
44 18 6 14 50 75 22 73 193 240 422 325 338 200 190 136 108 223 341 214 123 20 0 1 0 0 0 0 0 0 0 1 8 6 9 28 20 16 14 12 8 7 9
315 12 21 33 50 7 17 32 75 285 256 216 146 1 133 102 214 287 390 285 106 0 0 0 0 0 0 0 0 0 0 0 11 7 9 27 21 15 11 8 7 7 4
511 365 145 5 14 8 0 2 40 204 218 238 18 2 4 58 151 246 296 163 67 1 0 0 0 0 0 0 0 0 0 0 4 6 12 24 28 16 11 9 4 5 4
319 456 270 125 61 52 38 22 13 5 84 2 2 0 2 34 54 65 181 217 130 89 37 6 7 0 0 0 0 0 0 0 0 11 12 21 25 21 15 11 6 3 1
209 55 102 25 14 17 14 33 16 4 5 2 1 0 5 26 49 33 18 26 114 190 89 42 24 0 0 0 0 0 0 0 3 8 7 15 18 20 19 11 7 4 1
14 23 26 51 25 6 13 10 10 25 12 3 0 0 13 36 45 4 4 5 13 66 41 32 7 0 0 0 0 0 0 0 2 6 6 6 4 9 18 19 8 4 1
10 31 28 48 14 18 18 44 12 7 5 4 0 0 6 23 26 16 0 0 0 2 7 6 4 0 0 0 0 0 0 0 0 1 4 5 4 1 5 22 22 15 2
6 25 42 27 9 4 14 14 14 12 4 4 0 0 5 18 18 27 14 9 0 0 0 0 0 0 0 0 0 0 0 0 0 0 0 0 2 3 9 5 19 22 32
4 17 44 18 5 7 12 19 7 11 10 0 0 0 0 10 78 43 2 2 0 0 0 0 0 0 0 0 0 0 0 0 0 0 0 0 0 1 3 17 12 18 15
7 19 26 5 8 10 16 45 7 15 23 1 5 10 20 0 17 39 56 24 3 0 0 0 0 0 0 0 0 0 0 0 0 0 0 0 0 0 3 8 15 14 6
7 14 17 10 10 14 26 31 20 16 41 3 5 10 5 2 0 12 36 54 47 52 3 6 1 2 26 0 0 10 18 2 0 0 0 0 0 0 0 0 0 0 5
6 7 8 13 7 10 19 37 26 7 25 20 12 11 8 7 1 0 17 44 22 61 45 55 15 11 62 11 0 53 26 37 4 0 0 0 0 0 0 0 0 0 0
3 5 7 15 9 8 9 18 28 23 2 14 2 8 7 5 1 17 20 95 91 86 115 152 93 145 166 129 8 1 60 24 28 159 0 0 0 0 0 0 0 0 0
2 4 14 20 12 10 4 12 17 20 22 38 0 9 5 8 30 0 35 45 82 195 177 234 203 165 194 225 186 148 38 0 0 1 144 122 0 0 0 0 0 0 0
1 12 11 7 10 21 10 7 11 8 5 8 5 18 2 0 0 10 14 106 126 256 233 329 382 336 296 230 292 157 71 28 103 128 138 175 83 0 0 0 0 0 0

GFSSE_con_sbcape_081.txt.gz
CAPE
1468 1324 1525 1560 1415 1607 1945 1725 1541 1575 1653 1752 1605 1326 1373 1450 1532 1426 1309 1156 1075 999 567 562 691 658 611 479 317 574 527 477 388 405 375 185 140 161 112 296 167 24 55
1685 1616 1454 1779 1816 2094 2154 1848 1672 1721 1831 1860 1565 1453 1479 1596 1677 1572 1488 1306 1254 1166 791 719 639 556 399 326 446 546 535 385 336 323 292 115 93 50 19 44 101 15 8
1832 1727 1477 1731 1920 2199 2267 1991 1870 1953 2020 1900 1667 1558 1668 1820 1848 1723 1492 1314 1144 981 842 746 538 276 150 93 329 435 461 405 271 203 159 31 20 21 14 4 15 15 18
1923 1740 1805 1679 1892 2160 2225 2042 1984 2104 2038 1878 1732 1834 1883 2012 2016 1767 1389 1137 1055 892 732 564 395 190 67 83 111 108 111 275 314 157 21 20 15 27 17 16 15 11 12
1881 2019 2016 1625 1754 1945 2154 2053 2033 1940 1843 1749 1776 2057 2102 2184 1788 1708 1268 1025 913 878 611 470 218 32 6 5 3 0 0 9 22 19 20 27 16 18 13 9 9 9 17
1682 2112 1423 1405 1616 1824 1998 1850 1691 1398 1101 1659 1831 2103 2238 2165 1996 1637 1263 1034 1033 1044 570 268 53 10 1 0 0 0 0 0 33 15 21 31 22 22 9 2 10 10 12
1775 1901 2104 1338 1426 1359 1299 808 651 692 723 1039 1859 1952 1956 1962 1614 1208 1023 967 750 801 599 109 19 1 0 0 0 0 0 0 10 5 7 12 19 21 11 9 10 12 12
1509 1864 1867 1188 896 743 528 296 386 449 0 474 1336 1209 1436 1489 1199 1006 821 746 504 442 278 110 17 0 0 0 0 0 0 0 6 3 5 11 22 19 20 14 12 10 11
1287 1711 1863 1541 922 333 41 76 284 198 27 347 647 827 710 781 873 799 686 680 461 180 114 40 8 0 0 0 0 0 0 2 3 7 1 8 15 15 15 13 11 11 14
832 1153 1661 1241 858 522 244 127 131 298 243 261 545 428 399 450 598 568 430 473 332 183 76 13 4 0 0 0 0 0 0 0 2 4 6 8 21 15 13 12 11 14 13
139 164 396 800 805 447 417 83 29 20 276 217 392 297 191 271 180 352 253 311 263 149 52 10 3 0 0 0 0 0 0 7 6 10 1 27 21 14 14 13 14 15 14
366 74 65 427 238 187 187 312 334 406 568 494 459 446 244 275 160 295 318 261 172 89 18 3 0 0 0 0 0 0 4 8 11 5 6 36 28 22 19 17 16 14 8
390 322 112 1 170 334 140 206 269 678 971 967 595 286 72 174 158 88 332 284 179 41 0 0 0 0 0 0 0 1 5 17 20 3 9 32 30 24 19 13 9 10 4
490 273 42 4 38 165 137 79 205 306 492 425 478 123 103 84 57 153 194 178 179 0 0 0 0 3 0 0 0 2 1 25 24 3 12 27 32 15 17 11 7 4 4
497 558 226 74 1 4 34 32 1 240 248 330 288 201 16 13 79 57 114 262 124 39 0 0 0 0 1 0 0 2 4 28 22 6 10 24 27 20 10 5 7 6 3
329 323 305 109 49 52 75 113 71 39 81 186 8 41 20 0 29 35 37 134 228 161 61 17 10 1 0 0 1 3 7 23 28 9 3 9 18 24 18 9 7 5 2
346 212 121 101 6 22 19 15 9 8 8 1 0 1 0 0 42 93 83 162 298 235 251 140 39 0 0 0 0 5 6 16 16 27 1 3 4 12 27 27 12 6 1
250 77 109 30 33 38 26 13 10 6 4 3 3 0 0 0 10 6 76 131 269 266 184 120 38 0 2 0 0 3 5 5 18 27 21 12 5 9 10 24 23 10 1
120 25 54 79 45 62 67 19 11 3 2 1 0 0 0 0 0 0 44 116 137 100 100 112 94 79 13 3 1 0 2 0 19 6 23 25 20 17 15 3 12 19 10
114 8 8 44 30 39 8 38 4 12 7 0 2 0 0 0 10 31 32 63 59 15 57 98 102 65 35 3 0 0 0 0 1 15 3 3 9 2 15 16 0 0 8
23 3 15 25 13 10 13 15 3 7 9 0 0 0 0 9 40 37 70 73 62 16 10 68 30 46 5 4 0 0 0 0 0 0 1 0 0 0 0 5 13 5 0
16 4 7 23 18 13 17 17 5 2 6 2 0 0 0 18 36 141 158 147 45 24 67 64 52 56 15 17 0 0 0 0 0 0 0 0 0 0 0 0 0 29 10
60 4 7 10 14 20 19 20 6 3 8 4 0 0 3 39 85 154 158 131 94 191 140 233 225 206 146 22 17 106 146 169 114 0 0 0 0 0 0 0 0 0 5
102 3 8 8 14 11 15 10 7 6 8 1 0 0 0 34 61 78 113 112 170 170 206 191 179 194 158 111 0 0 108 178 104 28 8 1 0 0 0 0 0 0 1
117 3 7 9 6 6 13 10 26 13 5 9 4 0 0 0 2 13 56 99 86 105 253 233 192 131 191 243 180 140 130 141 118 66 30 113 0 0 0 0 0 0 0
147 2 5 14 14 7 20 21 31 22 23 17 1 0 4 3 11 31 59 24 59 79 199 269 313 230 230 278 267 333 232 147 91 20 6 110 195 57 0 0 0 0 0

GFSSE_con_sbcape_087.txt.gz
CAPE
1151 1413 1688 1846 1779 1609 1566 1535 1532 1605 1719 1524 1563 1680 1548 1435 1307 1238 1216 1124 1079 1104 756 1037 1273 941 875 835 1115 967 848 716 611 570 276 456 88 94 43 160 92 24 251
1201 1333 1539 1883 1979 1790 1747 1689 1700 1788 1861 1597 1702 1731 1571 1438 1369 1294 1220 1151 1145 1076 767 1031 1228 633 632 770 825 733 661 578 529 509 596 483 136 92 33 29 41 48 147
1215 1347 1436 1578 2031 1964 1940 1862 1875 2015 1974 1741 1794 1828 1741 1575 1518 1415 1284 1198 1326 1428 1064 805 492 622 597 874 754 624 504 297 154 172 110 10 22 63 37 30 36 35 47
1219 1215 1318 1529 1868 2139 1975 1871 1930 2078 2076 1808 1889 1978 1941 1816 1706 1595 1407 1362 1368 1466 1215 1009 914 686 848 696 554 554 342 143 64 32 9 17 39 62 35 26 28 17 21
1548 1408 1347 1405 1781 2175 2032 1920 1915 2018 2016 1830 1881 2125 2071 2007 1871 1781 1425 1163 1252 1429 1152 1096 781 916 759 473 385 293 215 27 0 0 5 10 22 54 41 27 7 16 12
1513 1286 1109 1313 1656 2169 2144 2053 1984 1998 1774 964 755 1392 2300 2160 2037 1679 1225 1168 1253 1373 1313 862 795 785 537 460 458 301 70 5 0 0 1 11 11 36 25 20 29 21 11
1464 1141 1012 1180 1413 1914 2195 2179 2017 1639 322 33 4 0 279 1710 1797 1501 1123 1105 1058 1190 1250 741 619 317 150 85 24 0 0 6 0 0 0 3 16 33 15 6 17 8 15
1414 1384 1056 1129 1233 1385 1661 1463 997 286 249 256 42 0 6 474 1294 1232 1055 968 827 958 677 459 212 129 9 3 0 0 0 0 0 0 0 5 26 27 13 6 15 21 21
585 948 1132 856 721 604 395 293 232 242 172 99 16 0 2 14 713 1037 925 885 824 597 415 210 87 40 0 0 0 0 0 0 0 0 0 8 24 15 19 8 8 21 19
21 476 1022 625 61 0 0 138 178 132 78 39 56 5 7 2 344 468 606 667 475 393 224 100 27 0 0 0 0 0 0 0 0 0 3 22 24 11 9 22 15 20 15
0 0 435 674 263 27 0 61 248 121 73 89 68 39 4 120 207 232 371 396 374 205 122 66 9 0 0 0 0 0 0 0 0 0 4 43 20 17 10 22 20 14 13
0 0 150 515 203 138 123 7 4 46 93 30 0 29 4 138 101 182 180 213 202 120 58 3 0 0 0 0 0 0 0 0 0 0 0 30 24 17 23 20 17 12 8
0 0 29 168 180 214 126 0 0 12 44 7 1 58 126 85 98 88 75 57 54 12 0 0 0 0 0 0 0 0 0 0 0 0 5 30 34 22 23 18 12 8 6
0 0 0 0 7 29 27 67 38 43 66 62 0 59 71 88 29 53 26 28 0 0 0 0 0 0 0 0 0 0 0 0 0 0 3 21 16 17 17 11 10 5 5
0 0 0 0 9 63 11 0 0 6 30 28 12 33 36 26 9 5 14 1 6 0 0 0 0 0 0 0 0 0 0 0 0 0 0 12 19 25 14 9 7 5 4
6 0 0 0 0 0 0 0 0 0 0 1 10 12 6 4 6 4 21 0 0 0 0 0 0 0 0 0 0 0 0 0 0 0 0 0 8 16 15 9 7 7 4
108 7 0 0 0 0 0 0 0 0 0 0 2 1 3 4 1 3 7 0 0 0 0 0 0 0 0 0 0 0 0 0 0 0 0 0 0 3 14 12 9 7 5
90 24 10 0 0 7 7 0 0 0 0 0 0 36 5 4 1 10 3 0 0 0 0 0 0 0 0 0 0 0 1 0 0 0 0 0 0 0 2 10 13 11 5
13 10 4 0 0 0 5 1 0 0 0 0 0 5 3 5 0 11 0 0 1 5 0 1 0 0 0 0 0 0 0 0 0 0 0 0 0 0 0 1 4 8 7
0 0 0 0 0 1 2 1 2 1 1 0 0 0 1 0 0 15 0 0 13 7 3 1 0 0 0 0 1 0 0 0 0 0 0 0 0 0 0 0 0 0 0
0 0 0 0 0 1 2 1 3 2 2 2 2 0 0 0 0 0 0 0 0 2 0 0 0 0 0 0 0 0 0 1 0 0 0 0 0 0 0 0 0 0 0
0 0 0 0 0 0 2 1 1 1 1 0 0 0 0 1 0 0 0 0 0 0 0 0 0 0 0 0 0 0 0 0 0 0 0 0 0 0 0 0 0 0 0
0 0 0 0 0 0 5 1 1 0 0 0 0 0 0 0 0 0 0 0 0 0 0 0 0 0 0 0 0 0 0 0 0 0 0 0 0 0 0 0 0 0 0
0 0 0 0 0 1 7 1 0 0 0 0 0 0 0 0 0 0 0 0 0 0 0 0 0 0 1 0 0 0 3 3 0 0 0 0 0 0 0 0 0 0 0
0 0 0 0 0 4 3 1 0 0 0 0 0 0 0 0 0 0 0 0 0 0 0 1 4 11 11 0 0 0 0 13 7 0 0 0 0 0 0 0 0 0 0
0 0 0 0 1 7 1 0 0 0 0 0 0 0 0 0 0 0 0 0 0 0 1 2 17 14 46 22 1 11 3 6 18 37 12 0 0 0 0 0 0 0 0

GFSSE_con_sbcape_090.txt.gz
CAPE
1170 1610 1610 1753 1703 1661 1608 1541 1541 1557 1556 1759 1685 1597 1546 1523 1461 1416 1438 1390 1436 1552 1134 1098 1399 1346 1329 1010 1039 977 937 831 736 624 696 350 251 224 164 109 165 31 231
1097 1503 1660 1746 1742 1785 1761 1707 1690 1729 1718 1893 1761 1620 1508 1499 1475 1419 1373 1367 1455 1625 1129 1025 978 976 971 1031 1012 893 806 639 521 535 612 141 116 150 74 83 147 82 90
1250 1432 1811 1761 1812 1887 1870 1816 1958 1948 1823 1916 1853 1697 1622 1556 1505 1399 1358 1283 1393 1605 1165 984 962 959 787 1001 853 784 668 463 377 343 217 14 27 41 31 116 134 49 37
1181 1248 1493 1858 1849 1950 1904 1947 2069 2056 1824 2001 1944 1801 1746 1690 1644 1578 1422 1323 1415 1577 1111 579 1029 787 925 814 637 503 392 242 158 82 0 16 27 39 20 13 25 27 25
1076 1113 1201 1688 1953 1941 1887 1919 2029 2100 1891 1935 2016 1987 1905 1820 1759 1609 1567 1547 1638 1555 1245 859 926 825 813 632 390 289 109 36 12 1 0 18 20 48 32 23 20 29 24
1057 1140 1159 1326 1932 2006 1976 1986 2042 2081 1795 1848 1993 2095 2073 1983 1841 1747 1465 1485 1565 1479 1394 1262 1149 802 565 389 295 83 0 0 0 0 12 23 12 34 11 13 27 19 13
1119 1018 989 1210 1668 2068 2182 2080 1989 1990 1344 848 564 494 195 336 918 1328 1340 1378 1292 1336 1207 1031 715 573 402 282 52 0 0 0 0 0 1 4 11 30 18 6 7 10 14
1029 811 877 1103 1351 1875 2139 2096 1898 1064 447 309 121 69 1 11 500 714 997 1254 1126 1012 903 687 625 482 275 5 0 0 0 0 0 0 1 8 34 28 22 8 11 10 15
1045 894 1048 1103 963 1159 1569 1475 951 551 203 152 138 63 30 38 6 154 570 803 738 615 584 504 311 165 19 0 0 0 0 0 0 0 1 10 35 30 13 17 7 8 17
208 418 549 606 238 46 65 364 255 261 157 129 150 43 44 27 0 0 293 534 632 579 430 328 97 25 3 0 0 0 0 0 0 0 1 20 43 31 15 8 9 14 7
0 74 428 99 11 0 0 25 114 87 101 81 75 16 10 3 0 25 198 357 421 291 230 135 24 0 2 0 0 0 0 0 0 0 1 32 17 23 27 17 9 14 15
1 0 293 228 18 0 0 1 0 13 0 0 3 9 0 0 3 23 175 212 230 168 109 40 0 0 0 0 0 0 0 0 0 0 1 34 15 24 18 9 13 11 15
0 0 3 183 99 30 1 0 0 0 1 1 3 28 12 31 131 124 101 85 45 28 1 1 0 0 0 0 0 0 0 0 0 0 6 29 30 21 10 10 14 10 17
0 0 0 26 94 82 19 0 0 0 1 1 3 8 41 62 36 89 67 44 15 0 0 0 0 0 0 0 0 0 0 0 0 0 7 15 29 22 17 17 14 12 12
0 0 0 0 14 5 44 27 0 0 0 1 7 16 56 87 33 53 20 2 1 0 0 0 0 0 0 0 0 0 0 0 0 0 0 15 26 26 15 12 13 13 11
0 0 0 0 0 0 0 0 0 0 0 2 1 1 60 30 36 21 6 1 0 0 0 0 0 0 0 0 0 0 0 0 0 0 0 1 11 17 18 11 13 14 10
0 0 0 0 0 0 0 0 0 0 0 7 3 5 10 2 6 13 2 0 0 0 0 0 0 0 0 0 0 0 0 0 0 0 0 0 0 6 18 21 12 8 6
0 0 0 0 0 0 0 0 0 0 0 0 14 11 1 0 0 6 2 0 0 0 0 0 0 0 0 0 0 0 0 0 0 0 0 0 0 0 5 16 15 12 6
0 0 0 0 0 0 0 0 0 0 0 0 2 21 1 2 1 9 1 0 0 0 0 0 0 0 0 0 0 0 0 0 0 0 0 0 0 0 0 8 9 8 7
0 0 0 0 0 0 0 1 1 0 0 0 0 0 16 11 1 2 6 0 0 0 0 0 0 0 0 0 0 0 0 0 0 0 0 0 0 0 0 0 0 0 0
3 0 0 0 0 0 0 1 1 0 1 0 0 0 7 3 2 1 1 0 0 0 0 0 0 0 0 0 0 0 0 0 0 0 0 0 0 0 0 0 0 0 0
4 0 0 0 0 0 0 0 1 0 1 0 0 0 4 0 2 11 0 0 0 0 0 3 0 0 0 0 0 0 0 0 0 0 0 0 0 0 0 0 0 0 0
0 0 0 0 0 0 0 0 0 0 1 0 0 0 1 0 0 1 0 0 0 0 0 0 0 10 11 0 3 0 0 0 0 0 0 0 0 0 0 0 0 0 0
0 0 0 0 0 0 0 0 0 0 1 0 0 0 1 2 0 0 0 0 0 0 0 0 1 9 15 6 0 0 0 0 0 0 0 0 0 6 2 0 0 0 0
0 0 0 0 0 0 0 0 0 0 0 0 0 0 0 0 0 1 0 0 0 0 0 0 0 0 3 0 0 0 0 0 0 0 0 0 0 0 0 0 0 0 0
0 0 0 0 0 0 0 0 0 0 0 0 0 0 0 0 0 0 0 0 0 0 0 0 0 0 7 2 3 0 6 23 11 25 15 1 0 0 0 0 0 0 0

GFSSE_con_sbcape_093.txt.gz
CAPE
1054 1289 1505 1690 1676 1612 1499 1484 1493 1599 1720 1833 1862 1831 1760 1716 1670 1664 1578 1585 1505 1486 1109 1476 1467 1395 1167 1006 961 950 995 792 685 678 723 592 544 456 362 346 278 139 577
1035 1332 1492 1722 1773 1658 1514 1599 1563 1751 1824 1890 1863 1810 1798 1792 1774 1755 1697 1789 1702 1574 1012 1273 1708 1447 967 969 1075 790 847 702 571 609 590 425 352 214 211 149 242 183 318
1261 1501 1499 1581 1788 1832 1717 1671 1802 1979 2013 1946 1872 1859 1867 1886 1890 1782 1733 1749 1798 1288 1009 1269 1453 1184 1110 1087 1016 911 772 684 472 402 135 0 20 108 90 91 276 90 94
1268 1554 1489 1543 1755 1894 1872 1939 1984 1970 1999 2017 1921 1896 1917 1892 1844 1780 1688 1677 1651 1549 1452 1287 1247 1165 1035 1020 820 723 585 404 260 134 0 0 12 73 72 44 50 50 42
1096 1381 1674 1562 1664 1892 1912 1976 2037 2013 2093 2011 1939 1927 1887 1892 1822 1766 1554 1608 1721 1761 1659 1346 1265 1008 914 654 533 445 319 161 46 0 2 6 8 32 33 38 33 34 34
895 995 1303 1630 1633 1892 1959 2017 2165 2023 1944 1961 1903 1982 1943 1909 1883 1746 1563 1605 1775 1547 1501 1623 1236 862 577 370 234 107 25 9 0 0 5 25 1 35 19 16 29 34 31
751 850 954 1427 1734 1916 2086 2118 2120 1949 1875 1971 1990 1705 1911 1659 1550 1603 1332 1351 1406 1463 1307 1263 902 704 453 221 67 1 0 0 0 0 0 1 5 21 14 16 21 12 18
871 749 842 1104 1604 1970 2064 2019 1989 1809 1407 1361 1071 631 807 815 560 537 589 1121 1029 980 804 680 613 586 307 86 3 0 0 0 0 0 1 6 26 21 20 19 13 16 13
722 639 714 946 1216 1679 1974 1945 1631 924 673 556 369 548 763 379 312 294 435 656 721 682 587 542 467 311 123 18 0 0 0 0 0 0 3 6 36 25 29 16 17 15 13
630 607 669 738 692 524 828 1471 887 400 151 190 180 120 303 353 442 427 319 289 559 661 691 465 344 63 0 0 0 0 0 0 0 0 1 13 38 24 34 19 11 13 8
43 258 196 220 109 36 45 509 357 149 282 299 261 91 66 22 12 65 148 204 209 337 322 359 143 0 0 0 0 0 0 0 0 0 0 27 33 34 27 22 15 19 10
0 1 120 23 0 0 11 35 2 65 33 0 2 9 1 2 0 2 76 98 236 192 176 160 2 0 0 0 0 0 0 0 0 0 0 29 39 42 32 16 13 9 15
0 0 32 15 0 0 0 0 0 0 0 0 0 0 0 2 1 4 63 126 133 139 62 18 0 0 0 0 0 0 0 0 0 0 2 24 30 33 18 18 11 8 13
0 0 0 6 1 0 0 0 0 1 0 0 0 0 10 3 7 98 101 113 19 2 5 0 0 0 0 0 0 0 0 0 0 0 5 26 19 18 23 16 10 11 11
0 0 0 0 1 1 0 0 0 0 0 1 0 0 34 35 26 68 59 28 3 0 0 0 0 0 0 0 0 0 0 0 0 0 0 23 29 31 15 14 15 10 11
0 0 0 0 0 0 0 2 0 1 6 1 0 2 28 17 42 29 76 54 0 0 0 0 0 0 0 0 0 0 0 0 0 0 0 3 14 26 26 15 18 21 15
8 0 0 0 0 0 0 0 0 0 21 2 0 0 39 43 40 50 54 39 1 0 0 0 0 0 0 0 0 0 0 0 0 0 0 0 4 10 25 35 29 16 14
0 0 0 0 0 0 0 0 0 0 1 12 1 11 31 43 23 31 29 3 0 0 0 0 0 0 0 0 0 0 0 0 0 0 0 0 0 0 10 19 23 21 14
11 0 0 0 0 0 0 0 0 0 0 1 10 17 21 18 12 26 5 0 0 0 0 0 0 0 0 0 0 0 0 0 0 0 0 0 0 0 0 10 9 12 15
0 0 0 0 0 0 0 0 0 0 0 0 0 3 6 13 5 21 1 0 0 0 0 0 0 0 0 0 0 0 0 0 0 0 0 0 0 0 0 0 1 0 2
3 0 0 0 0 0 0 0 0 0 0 0 0 0 1 18 1 2 2 0 0 0 0 0 0 0 0 0 0 0 0 0 0 0 0 0 0 0 0 0 0 0 0
25 8 0 0 0 0 0 0 0 0 0 0 0 0 0 3 2 1 2 0 0 0 0 0 0 0 0 0 0 0 0 0 0 0 0 0 0 0 0 0 0 0 0
22 7 0 0 0 0 0 0 0 0 1 1 0 1 2 6 8 5 1 0 0 0 0 0 0 0 0 0 0 0 0 0 0 0 0 0 0 0 0 0 0 0 0
12 0 0 0 0 0 0 0 0 0 0 0 0 0 2 10 12 8 1 0 0 0 0 0 0 6 22 0 0 0 0 0 24 0 0 0 0 0 0 0 0 0 0
0 0 0 0 0 0 0 0 0 0 0 0 0 0 0 1 0 0 0 0 0 0 0 0 0 10 34 13 12 3 20 0 0 0 0 0 0 0 0 1 0 0 0
0 0 0 0 0 0 0 0 0 0 0 0 0 0 0 0 0 0 0 1 0 0 0 0 0 8 16 21 27 1 9 10 9 0 0 0 0 0 1 1 0 0 0

GFSSE_con_sbcape_096.txt.gz
CAPE
868 999 1414 1642 1626 1597 1449 1429 1575 1747 2027 2049 1938 1883 1905 1915 1888 1844 1768 1608 1599 1661 1761 1737 1744 1719 1578 1173 1178 1104 1057 877 805 857 907 776 701 570 580 540 610 389 781
888 1120 1392 1674 1687 1638 1580 1537 1614 1852 2113 2208 2077 2001 1958 1962 1926 1878 1850 1793 1783 1925 1882 1921 1766 1586 1255 1081 1026 1074 975 812 701 662 745 647 523 532 408 406 556 499 734
1009 1102 1377 1611 1725 1679 1704 1697 1781 2009 2151 2251 2214 2139 2100 2091 1992 1943 1945 1839 1782 1837 1618 1855 1618 1493 1223 1163 1092 1032 896 785 681 625 355 25 106 380 290 381 630 607 385
1010 1124 1314 1537 1737 1799 1743 1770 1924 2013 2150 2213 2251 2254 2236 2174 2045 2022 1950 1769 1686 1829 1728 1378 1354 1349 1281 1138 1009 925 723 492 277 84 0 0 32 199 151 135 196 174 168
1200 1172 1263 1488 1652 1834 1807 1850 1983 1983 2014 2029 2092 2250 2283 2234 2108 1998 1878 1666 1509 1641 1828 1448 1302 1363 1198 945 767 644 444 170 25 0 0 0 5 153 216 126 109 118 54
1018 1164 1174 1404 1555 1837 1903 1952 1967 2028 1910 1886 2003 2122 2214 2051 2168 1857 1608 1507 1579 1661 1673 1526 1429 1249 892 661 542 401 167 24 0 0 0 3 4 22 39 37 42 32 39
735 822 1171 1342 1444 1815 2026 2054 2048 1980 1866 1884 1945 1855 1676 872 786 1191 1310 1264 1106 1178 1499 1383 1245 955 672 458 343 126 29 5 0 0 0 0 0 14 19 32 30 28 34
577 598 746 1373 1492 1720 1895 1907 1899 1705 1630 1804 1731 1683 1309 720 608 869 1093 764 801 839 957 1195 933 729 450 288 86 25 12 0 0 0 0 0 15 20 11 19 21 32 22
500 568 582 902 1451 1714 1816 1760 1689 1543 1521 1404 1058 1260 965 722 610 724 617 489 446 678 843 974 713 493 291 124 50 1 0 0 0 0 0 0 32 21 16 20 20 8 10
425 455 464 582 801 1065 1256 1447 1369 1024 640 494 606 655 206 131 245 121 88 237 445 547 654 827 486 283 119 20 15 0 0 0 0 0 0 5 48 25 17 11 27 17 14
303 288 237 307 259 210 418 787 713 396 158 182 214 221 21 9 66 45 40 145 530 331 355 586 236 92 15 5 0 0 0 0 0 0 0 42 39 21 22 15 9 17 24
247 145 158 6 0 0 103 425 230 141 104 77 28 4 2 0 0 84 77 232 258 266 284 214 54 16 0 0 0 0 0 0 0 0 0 38 39 24 29 29 22 33 34
149 3 179 1 0 0 1 1 4 90 12 1 0 1 0 0 0 0 24 93 89 151 161 76 2 0 0 0 0 0 0 0 0 0 13 35 66 35 36 28 28 35 33
0 0 4 0 0 0 0 1 0 0 0 0 0 1 1 0 1 0 3 36 109 135 64 0 0 0 0 0 0 0 0 0 0 0 9 26 45 42 39 25 33 37 32
0 0 0 0 1 0 0 0 0 1 0 0 0 0 1 3 3 4 10 68 48 95 14 0 0 0 0 0 0 0 0 0 0 0 0 18 40 47 17 35 37 39 26
0 0 0 0 1 0 0 0 0 0 0 1 2 1 0 3 4 17 38 56 1 1 0 0 0 0 0 0 0 0 0 0 0 0 0 8 26 43 40 36 36 33 26
0 0 0 0 1 0 0 0 0 1 1 1 1 0 1 1 0 22 3 5 1 0 0 0 0 0 0 0 0 0 0 0 0 0 0 0 12 15 28 44 29 26 21
0 0 0 0 0 1 0 0 1 1 10 5 1 1 3 0 1 18 14 21 1 0 0 0 0 0 0 0 0 0 0 0 0 0 0 0 0 4 16 32 33 30 15
0 0 0 1 0 0 0 0 0 0 3 25 2 2 6 8 1 8 24 6 0 0 0 0 0 0 0 0 0 0 0 0 0 0 0 0 0 0 0 13 18 20 19
0 0 0 1 0 1 0 0 0 1 1 2 17 7 14 13 6 2 5 0 0 0 0 0 0 0 0 0 0 0 0 0 0 0 0 0 0 0 0 0 2 1 3
0 0 0 1 0 0 0 0 0 0 0 0 0 0 22 30 7 10 0 0 0 0 0 0 0 0 0 0 0 0 0 0 0 0 0 0 0 0 0 0 0 0 0
2 0 0 1 1 0 0 0 0 0 0 0 0 0 0 1 21 11 1 0 0 0 0 0 0 0 0 0 0 0 1 0 0 0 0 0 0 0 0 0 0 0 0
10 0 0 0 0 1 0 0 0 0 0 0 0 0 0 0 1 37 1 0 0 0 0 0 0 0 0 0 0 0 0 0 0 0 0 0 0 0 0 0 0 0 0
43 10 0 0 0 0 0 0 0 0 0 0 0 0 0 0 2 6 3 0 0 0 0 0 0 0 0 0 0 0 0 0 1 0 0 0 0 0 0 0 0 0 0
71 55 6 0 0 0 0 0 0 0 0 0 0 0 1 2 0 5 1 0 0 0 0 0 0 0 0 8 13 1 0 0 0 0 0 0 0 0 0 0 0 0 0
42 6 0 0 0 0 0 0 0 0 0 0 0 0 0 7 10 10 3 1 0 0 0 0 0 0 0 3 21 22 24 22 8 0 0 4 18 0 0 0 0 0 1

GFSSE_con_sbcape_099.txt.gz
CAPE
1067 1110 915 1051 1540 1409 1421 1570 1717 1846 1827 1909 1956 1983 2016 2091 2078 2086 1918 1879 1990 1942 1813 1671 1841 1648 1243 1202 1345 1349 1269 1170 989 1064 1033 933 874 802 720 855 756 534 905
1166 1245 878 1034 1601 1499 1469 1619 1797 2071 2070 2096 2078 2082 2078 2090 2096 2042 1942 1944 1954 2086 1747 1712 1998 1591 1370 1322 1358 1188 1084 908 814 762 922 826 784 663 685 858 732 703 915
1409 1389 1346 1264 1554 1609 1534 1618 1901 2270 2374 2295 2233 2224 2193 2166 2141 2006 2043 2060 2007 2085 1964 1752 1633 1575 1381 1314 1282 1131 993 842 794 818 886 693 699 620 598 733 778 771 801
1430 1300 1470 1350 1510 1651 1594 1695 2043 2307 2420 2376 2361 2331 2303 2259 2163 2153 2059 1998 2051 2094 2220 1753 1636 1547 1454 1352 1171 1082 934 733 542 536 570 444 381 466 401 436 495 447 420
1311 1298 1530 1408 1466 1633 1636 1716 1932 2210 1840 2298 2335 2475 2464 2336 2233 2118 1704 1548 1955 1953 2041 1851 1690 1641 1380 1113 968 798 594 268 91 270 376 406 335 319 337 378 414 287 232
1361 1367 1247 1326 1465 1642 1753 1819 1914 1983 1910 1814 2220 2454 2529 2328 2252 1705 1322 1115 1903 1978 1896 1808 1674 1465 1103 857 707 485 202 26 45 99 141 278 229 314 283 175 292 189 108
1525 1270 1289 1224 1438 1651 1821 1942 1944 1814 1774 1907 2132 2277 2230 1416 1253 769 595 772 1106 1484 1600 1416 1363 1173 883 686 509 222 44 18 33 48 49 34 86 126 82 57 44 64 39
1635 1651 1704 1274 1354 1608 1672 1670 1679 1738 1670 1699 1694 1670 1511 1280 966 732 733 983 1194 998 956 1037 1004 811 739 563 279 69 18 25 17 12 5 13 21 34 41 41 31 33 28
1403 1513 1747 1941 1606 1468 1538 1504 1511 1473 1560 1435 1264 1291 1118 932 700 695 805 1070 993 798 949 874 881 560 536 317 131 20 1 14 27 11 3 14 43 23 27 26 24 18 20
1265 1422 1405 1989 2110 2074 2105 1388 1347 1416 1361 1422 1080 884 711 566 608 705 852 736 586 651 752 585 498 317 282 149 30 0 0 3 45 12 11 23 55 34 20 11 19 21 29
1109 1408 1350 1466 1646 1988 2140 1678 1204 1059 814 659 720 750 556 652 532 766 389 399 554 470 466 468 317 157 70 31 0 0 0 42 20 8 10 17 52 39 34 21 17 30 26
1215 1016 1383 1346 1329 1356 1297 1095 1176 821 327 299 773 803 1099 642 601 277 104 80 300 281 374 348 161 51 64 50 50 0 56 17 33 21 30 30 51 45 41 27 24 34 36
998 732 916 788 980 958 700 495 493 407 200 70 355 261 85 13 53 208 346 272 474 250 246 152 87 243 237 169 49 12 8 2 15 35 36 43 54 47 26 31 38 33 25
716 756 359 352 631 747 680 98 174 434 429 69 10 12 3 8 28 41 308 354 316 314 104 36 149 235 73 33 0 0 0 0 13 25 28 42 42 74 33 38 39 32 32
661 798 555 167 453 523 475 498 466 283 128 8 2 2 23 101 175 283 161 123 117 150 2 0 0 1 8 0 0 0 0 0 1 33 36 22 42 79 33 36 39 32 32
578 485 464 94 139 265 320 323 280 272 68 3 4 3 37 6 7 4 94 33 128 145 4 0 0 4 30 0 0 0 0 0 0 17 22 31 27 51 58 38 33 31 32
545 205 127 55 62 19 22 159 111 66 18 4 4 4 15 8 58 12 6 17 32 45 1 1 2 0 6 0 0 0 0 0 0 6 19 10 31 23 36 45 45 34 31
411 58 6 103 1 1 0 78 52 3 3 7 21 68 26 219 63 41 6 29 7 1 1 0 0 0 0 0 0 0 0 0 0 0 9 26 31 25 28 43 47 44 34
229 110 11 107 2 0 140 138 74 2 4 0 32 24 55 32 148 84 83 9 1 2 2 2 2 0 1 14 11 0 0 6 13 1 16 24 37 27 37 21 24 21 27
190 154 60 68 7 0 31 23 16 3 3 9 28 28 53 150 101 110 28 10 3 2 2 2 1 0 4 29 4 2 3 14 10 8 10 14 26 28 35 27 25 12 9
91 141 82 95 1 0 4 2 4 3 6 5 2 11 48 78 33 59 3 3 5 3 3 1 1 0 5 26 20 9 8 11 10 7 9 15 15 25 24 34 19 19 11
4 130 123 128 1 3 4 3 2 2 2 1 1 0 30 172 63 44 1 1 0 4 3 1 0 3 8 3 9 8 11 8 12 11 8 10 24 25 1 10 13 6 7
0 107 169 225 19 22 5 1 0 1 2 2 3 3 0 0 18 89 1 2 1 0 1 0 0 0 6 5 4 4 13 22 9 11 12 14 21 22 24 10 16 15 4
12 95 179 216 31 11 1 1 0 0 0 0 3 3 1 0 9 0 10 2 0 0 0 0 0 0 0 2 0 0 16 3 31 29 13 7 15 9 16 5 3 1 3
23 122 196 190 19 4 2 1 1 1 1 5 5 2 3 3 2 20 7 1 1 1 0 0 0 0 0 0 0 0 0 16 38 28 11 3 7 9 22 15 0 0 4
94 179 230 130 9 3 1 1 0 2 1 1 2 3 4 7 16 24 40 9 1 2 6 1 0 0 0 0 0 0 0 2 9 24 32 63 82 72 35 16 22 19 10

GFSSE_con_sbcape_102.txt.gz
CAPE
1415 1309 1009 1314 1518 1526 1678 1763 1886 2027 2016 2013 2086 2129 2112 2139 2178 2165 2234 2345 2296 2197 1947 1709 1855 1582 1382 1266 1326 1490 1510 1325 1154 1188 1240 1223 1071 930 851 1021 947 794 947
1542 1518 909 1257 1551 1510 1639 1828 1954 1976 2078 2168 2192 2198 2196 2250 2289 2284 2261 2325 2221 2217 1810 1724 1903 1849 1595 1628 1694 1505 1335 1130 1044 1120 1174 1141 1137 807 765 991 916 828 909
1722 1568 1231 989 1593 1596 1691 1868 2183 2230 2320 2366 2302 2301 2357 2390 2399 2239 2226 2259 2218 2190 1896 1836 1800 1783 1605 1652 1478 1334 1168 1049 1030 1109 1131 861 965 902 875 954 919 955 903
1594 1721 1610 1020 1550 1586 1754 2000 2295 2566 2528 2446 2431 2480 2456 2435 2335 2273 2247 2147 2200 2294 2181 1897 1799 1798 1695 1561 1360 1221 1139 1025 1015 865 870 765 763 789 746 679 905 686 552
1483 1573 1794 1146 1445 1600 1583 1906 2187 2464 2444 2429 2464 2605 2563 2499 2269 2109 1993 1956 1752 1575 1935 1705 1797 1664 1630 1300 1189 1096 925 747 726 810 694 648 649 659 694 617 536 660 524
1480 1518 1270 1209 1374 1618 1624 1771 2102 2121 2044 2266 2419 2600 2607 2370 1600 1748 1524 1513 1224 1360 1535 1856 1792 1647 1264 1024 918 665 479 445 334 797 816 597 432 572 537 612 477 363 271
1757 1740 1952 1201 1370 1644 1778 1851 1911 1943 1745 1929 2303 2484 2416 1756 1659 1203 1164 1227 1200 1198 1201 1274 1346 1167 1061 841 630 322 194 204 765 550 513 453 506 565 319 179 164 267 147
2182 2118 2084 1328 1356 1478 1714 1759 1659 1667 1766 1684 2171 2016 1612 1507 1182 1065 905 749 581 685 1086 1097 995 964 869 601 221 123 70 68 208 296 228 268 360 325 212 51 42 42 38
2445 2426 2379 2096 1834 1287 1319 1436 1493 1516 1616 1681 1675 1522 1189 1221 1052 892 856 815 501 851 974 1202 931 663 579 274 204 57 43 59 325 203 93 15 211 230 99 28 28 21 24
2422 2457 2502 2420 2246 2248 2086 1208 1230 1402 1460 1447 1321 1046 761 709 832 874 767 846 1108 864 750 816 699 474 352 179 85 29 18 26 307 213 88 7 74 56 33 29 23 20 19
2159 2256 2347 2377 2343 2085 2118 1800 1165 1226 1344 1269 1081 758 605 1334 1122 823 597 765 826 714 613 648 402 195 159 92 24 22 2 321 165 119 60 40 88 30 25 32 23 25 25
2086 2222 2232 2299 2279 2248 1878 2236 2353 2285 2071 1856 1547 1346 1228 1113 1103 615 461 464 556 445 412 220 153 129 134 313 217 29 369 214 194 49 17 72 105 33 29 27 31 36 28
1646 1994 2114 2282 2273 2133 1883 1661 1762 2002 1748 1794 1411 1495 1409 1360 1085 796 922 621 550 326 710 145 93 152 175 583 376 389 286 306 116 47 7 56 138 46 41 21 27 41 33
1449 1720 1933 2017 2159 2101 1630 1620 1492 1052 1249 1341 1223 925 1121 1204 919 786 788 399 502 378 474 184 73 108 301 444 389 322 231 110 98 49 21 38 62 53 30 31 51 52 30
1543 1586 1758 1787 1942 1764 1631 1287 1016 822 924 1027 912 555 774 894 637 279 352 497 609 835 251 132 77 111 505 355 236 209 159 85 75 64 38 29 43 62 42 47 64 48 31
1313 1461 1904 1595 1624 1553 1428 1351 1187 1192 859 681 602 411 360 722 598 618 569 507 740 755 407 129 73 103 495 399 210 173 155 99 74 60 31 52 29 49 72 55 72 49 42
909 1326 1680 1652 1421 1452 1349 1361 1054 756 1107 614 359 321 463 400 545 454 346 369 580 396 12 6 1 14 30 234 169 148 137 98 44 30 62 55 46 26 41 77 93 48 39
405 979 1405 1286 1176 958 1195 1221 899 654 841 765 479 261 320 432 482 443 340 256 274 142 11 3 0 4 44 157 168 165 149 74 40 40 41 62 51 44 26 63 69 56 48
182 699 1151 1348 1110 665 704 1037 922 594 308 608 428 455 388 517 419 391 281 67 62 1 2 2 2 0 17 165 141 120 103 52 35 32 29 36 40 44 31 45 39 32 36
52 552 952 1102 1144 460 412 1046 825 361 122 115 78 488 504 295 384 428 302 5 2 2 2 1 0 2 13 142 107 112 94 51 44 42 15 36 32 39 41 60 33 35 25
0 405 819 1001 1190 352 643 758 524 201 41 319 154 124 274 397 287 262 110 9 5 5 2 2 1 0 1 56 72 41 77 53 28 44 22 40 49 23 35 37 27 38 19
0 112 621 870 1116 837 979 859 547 336 77 103 30 172 402 419 274 232 40 40 6 10 7 3 2 3 3 30 45 33 19 10 45 35 39 36 34 44 38 44 35 33 35
0 9 424 701 1056 888 974 791 474 347 67 88 61 6 65 312 176 45 40 12 3 4 5 8 6 11 7 5 54 51 22 33 15 27 40 17 41 35 35 46 43 21 18
0 0 231 514 895 858 968 740 366 184 75 77 40 4 4 50 47 47 38 25 4 1 1 8 9 0 3 6 63 80 58 40 23 53 19 21 26 28 37 33 29 23 25
0 7 292 475 772 848 958 706 500 457 318 102 18 9 10 28 60 54 10 35 16 3 2 1 9 15 0 14 35 116 83 65 59 37 30 20 20 35 33 24 20 39 34
0 14 454 533 774 831 840 711 614 523 237 30 8 11 18 19 24 29 67 11 2 5 6 3 0 1 10 32 115 183 47 42 62 61 48 69 89 83 34 23 72 55 60

GFSSE_con_sbcape_105.txt.gz
CAPE
982 1176 1170 1502 1556 1606 1737 1854 1991 1994 2067 2084 2130 2164 2187 2207 2269 2329 2412 2476 2422 2492 2237 1928 1767 1764 1586 1361 1288 1759 1616 1426 1409 1496 1572 1385 1041 892 893 1063 935 798 1019
1137 1252 1015 1497 1531 1523 1651 1870 2025 2120 2173 2180 2217 2261 2245 2300 2366 2423 2502 2525 2453 2541 2191 1849 1744 1714 1658 1491 1837 1697 1528 1365 1310 1317 1344 1329 1244 1002 909 952 943 906 1046
1392 1437 1161 1392 1583 1702 1748 1936 2159 2297 2304 2338 2314 2322 2354 2429 2461 2454 2505 2465 2401 2471 2058 1881 1763 1817 1698 1724 1507 1580 1419 1331 1289 1293 1189 929 979 1099 1047 1087 1053 1077 1040
835 1596 1457 1280 1551 1763 1945 2161 2322 2437 2436 2421 2381 2424 2268 2524 2498 2433 2349 2225 1981 1927 2071 1919 1713 1786 1747 1677 1462 1432 1374 1283 1167 1092 970 841 915 1052 949 984 1102 1019 819
667 1317 1793 1119 1444 1676 1878 2128 2396 2443 2405 2395 2362 2523 2546 2567 2329 2080 2188 2056 1751 2082 1700 1593 1521 1638 1694 1418 1333 1293 1249 1012 963 982 938 848 764 928 993 908 808 893 669
641 998 909 1022 1358 1580 1834 2105 2361 2405 2276 2254 2316 2499 2607 2341 1918 2069 1798 1964 1973 1807 2051 1995 1450 1348 1349 1197 1167 1065 984 977 722 837 821 782 726 822 728 810 585 496 415
892 1308 1910 1103 1338 1612 1759 2035 2199 2119 2107 2187 2337 2399 2498 2076 2100 1900 1638 1607 1747 1787 1699 1796 1741 1412 1189 1027 630 696 702 684 1034 305 755 767 719 686 640 434 443 322 161
1488 1706 2296 1245 1329 1522 1636 1678 1783 1750 1666 1897 2226 2241 1966 1886 1830 1584 1411 1388 1429 1479 1337 1535 1351 1270 1009 594 381 369 279 187 686 454 379 699 758 642 461 292 206 103 37
2027 2316 2547 1942 1610 1282 1381 1367 1399 1603 1602 1566 1875 1840 1586 1395 1163 1208 1060 966 958 1017 1309 1261 1028 845 614 344 268 132 120 114 304 232 266 377 685 511 300 60 35 23 32
2419 2554 2601 2425 2114 1993 1691 1236 1251 1305 1499 1553 1574 1551 1148 989 904 1002 822 832 633 567 1029 1072 756 460 254 152 88 50 10 89 332 67 88 148 579 336 109 37 23 16 11
2222 2425 2481 2407 2248 2262 1873 1666 1040 1144 1264 1264 1337 825 874 1664 1468 1141 745 648 749 897 950 914 464 161 118 82 59 48 36 242 316 46 92 174 414 177 53 24 22 14 16
1759 2023 2067 2229 2170 2114 1807 2207 1969 1737 1809 1718 1452 1593 1753 1347 1483 1219 824 653 788 704 571 489 192 84 93 130 112 55 196 374 341 27 42 94 262 61 34 21 14 14 16
1217 1626 1776 2119 2218 2283 2168 2237 2170 2355 2411 2178 1844 1798 1775 1628 1833 1368 1540 676 721 491 606 228 121 170 38 50 207 252 367 379 126 69 20 72 130 39 31 25 20 27 21
1033 1470 1693 1935 2238 2315 1835 2166 1790 1987 2222 1962 1802 1771 1879 1806 1813 1616 1390 1018 1069 1065 729 803 492 115 15 74 169 428 295 266 33 52 27 39 95 76 29 29 32 26 37
746 1229 1812 1871 2224 2178 2112 1793 1627 1596 1751 1744 1712 1551 1684 1591 1453 1366 1219 1025 832 1111 775 641 405 25 34 68 148 308 299 359 87 50 32 27 48 72 35 40 38 34 40
398 1132 1835 1963 2046 2023 1976 1719 1526 1368 1109 1480 1438 1378 1478 1551 1472 1178 978 740 570 1014 884 760 305 67 50 45 238 421 181 147 97 111 33 34 31 45 51 63 47 45 36
2 540 1906 2143 2059 2030 1863 1844 1673 1295 1102 1085 945 1218 1182 1275 1190 897 687 576 641 1144 724 590 287 60 96 103 309 234 105 97 81 47 38 50 34 24 47 74 69 54 34
0 175 1362 1975 2117 1981 1834 1757 1577 1077 1041 1108 838 1125 1138 1116 1086 1029 908 858 802 800 436 262 130 29 53 90 80 183 94 57 54 66 30 59 61 36 26 44 67 54 46
0 0 838 1965 2152 1962 1817 1736 1640 1215 959 744 826 889 926 861 1000 897 818 774 919 599 76 35 33 31 59 52 71 118 66 69 42 17 57 48 58 36 28 24 24 20 53
0 0 423 1715 2140 2047 1589 1653 1533 1252 936 704 753 716 681 895 1074 793 674 558 500 177 48 5 5 5 36 47 93 68 82 122 52 46 29 58 39 41 44 30 30 16 21
0 0 468 1466 2005 1827 1079 1355 1502 1294 472 534 392 607 873 714 835 771 522 11 8 3 2 1 1 1 16 24 31 60 137 124 61 37 9 22 23 41 45 56 43 33 12
0 0 341 932 1477 1814 1095 1135 1380 1152 408 674 632 522 486 356 620 627 300 11 6 4 3 1 1 1 1 11 32 30 57 30 80 51 54 12 81 16 24 44 31 56 33
0 0 0 565 1079 1658 1105 1208 1319 1070 545 457 442 487 490 432 666 553 315 21 8 6 4 2 2 2 2 1 4 43 8 28 64 78 49 13 64 50 32 15 36 37 48
0 3 0 150 738 1300 1296 1313 1485 1081 787 578 607 190 372 443 350 383 124 7 10 4 4 3 7 6 1 3 7 52 24 28 54 45 74 41 31 39 72 68 55 52 40
0 4 44 17 416 1008 1497 1527 1710 1130 925 699 590 353 191 281 151 199 92 73 6 10 3 4 18 69 13 0 8 29 46 75 117 108 32 40 49 15 18 41 57 62 42
0 0 29 38 266 972 1404 1672 1790 1160 1029 842 661 280 56 138 146 146 95 25 16 10 5 5 12 37 52 25 7 39 39 54 54 66 79 70 55 31 34 109 80 94 100

GFSSE_con_sbcape_108.txt.gz
CAPE
892 1006 1321 1522 1602 1682 1737 1894 1865 1750 1907 1995 2013 2056 2124 2194 2282 2360 2455 2472 2446 2480 2249 2014 2170 2004 1624 1487 1591 1687 1735 1614 1537 1537 1532 1540 1135 995 1180 1165 987 788 1134
935 1004 1219 1474 1620 1705 1789 1813 1940 1870 2034 2110 2124 2185 2169 2274 2360 2460 2509 2522 2607 2598 2193 1969 2191 2130 1581 1616 1770 1603 1500 1379 1322 1427 1508 1572 1190 1097 1075 1225 1010 1011 1168
1245 1109 1173 1357 1593 1723 1806 1943 2082 2160 2201 2216 2185 2239 2279 2349 2450 2528 2503 2444 2494 2004 2149 1966 1953 1891 1612 1786 1632 1564 1460 1362 1295 1122 1138 729 871 1217 1133 1178 1141 1089 1002
1323 1127 1240 1276 1506 1694 1840 2075 2241 2388 2346 2268 2233 2309 2349 2426 2371 2416 2475 2316 2136 2115 1924 1730 1866 1837 1818 1685 1528 1469 1406 1217 1155 1146 778 851 938 1219 1104 1108 1150 1026 1096
1315 1252 1355 1238 1376 1673 1820 2071 2218 2285 2264 2278 2220 2397 2441 2408 2242 2382 2220 2199 2063 2250 2291 1647 1735 1874 1682 1421 1335 1351 1233 1061 927 997 617 721 766 1050 1104 988 927 988 760
1052 1628 803 1130 1277 1646 1883 2139 2257 2206 2114 2149 2191 2356 2497 2296 2144 2274 2017 2067 2083 2125 2239 2128 2138 1743 1323 1218 1188 1182 1009 949 755 659 457 691 697 910 929 892 774 660 460
1871 1693 1124 1066 1217 1586 1904 2163 2228 2119 2050 2041 2207 2302 2364 2263 2227 1976 1857 1945 1891 1951 2261 2094 1847 1457 1191 1097 1072 947 881 751 662 494 482 506 531 874 779 529 564 479 250
2567 2341 1336 1134 1220 1365 1646 1823 1890 1961 1900 1761 1774 2105 2289 2088 1946 1804 1730 1785 1759 1705 1708 1639 1482 1262 1046 926 833 751 708 540 445 335 498 465 807 802 547 317 301 206 110
2660 2782 1932 1483 1318 1155 1149 1261 1509 1606 1597 1477 1571 1954 1960 1756 1702 1636 1529 1526 1512 1398 1282 1403 1234 1012 637 552 492 416 380 117 36 232 613 442 947 668 509 157 31 47 42
2886 3062 2302 1980 1605 1484 1303 956 1150 1373 1303 1435 1548 1624 1427 1391 1269 1151 1071 1119 1051 1106 1111 959 710 470 315 178 126 25 64 25 14 141 239 302 765 605 328 105 47 43 47
2725 2798 2870 2344 1950 1858 1622 1176 829 1003 1217 1238 1310 1142 1024 1421 1049 935 763 659 652 405 829 815 459 208 109 109 125 98 23 87 6 24 66 403 636 374 225 65 41 34 29
2502 2646 2600 2488 2207 2231 1514 1523 1368 1315 1240 1252 1489 1380 1538 1519 1392 1088 743 604 546 504 674 466 205 73 68 91 78 59 50 97 48 9 59 234 570 296 155 44 41 26 21
2063 2176 2158 2525 2454 2293 1577 2007 1687 1556 1516 1447 1432 1655 1593 1357 1363 1006 1030 433 555 579 618 197 47 44 34 43 58 46 62 112 68 2 64 205 396 169 61 41 33 20 22
1431 1755 1889 2189 2639 2167 1806 2185 2050 1818 1957 1855 1807 1581 1443 1290 1155 1129 1092 893 685 496 554 185 89 85 7 1 2 20 102 100 22 9 25 59 130 112 33 25 26 22 35
1025 1523 1699 2045 2317 2488 2647 2051 1768 1927 1894 1923 1672 1618 1402 1309 1140 1134 1001 1008 835 805 597 348 192 51 5 3 1 51 67 58 33 6 45 21 20 70 38 30 40 34 44
507 1261 1778 1881 2355 2401 2053 2355 1803 1746 1699 1471 1462 1292 1469 1308 1137 931 904 807 738 737 579 464 268 43 13 10 3 38 73 74 21 29 17 1 0 18 45 33 43 40 52
2 860 1900 1939 2511 2284 2097 2138 1692 1367 1051 1018 1108 1005 1251 1372 1073 775 803 754 658 605 609 358 291 50 8 28 15 40 69 40 64 21 9 0 0 11 30 51 57 69 46
0 5 2058 1999 2197 2309 2082 1952 1541 1556 1092 826 836 1011 753 1077 1149 900 740 586 368 531 432 401 246 127 18 22 8 35 82 21 51 33 0 0 0 3 21 38 55 61 59
0 0 2052 2022 2252 2120 2151 1835 1706 1684 1244 1022 672 671 729 912 954 842 632 519 478 391 332 269 196 88 30 33 78 67 60 4 35 26 0 0 0 0 3 30 35 28 40
0 0 1829 2188 2337 2043 1942 1822 1627 1525 1017 907 701 736 749 651 904 953 706 495 316 283 96 78 32 57 22 36 129 121 7 22 15 13 25 17 15 9 6 7 13 13 20
0 0 1003 2131 2323 2025 1870 1723 1577 1399 1125 792 657 545 482 599 759 851 518 308 190 80 55 1 11 31 23 33 4 24 0 17 31 45 33 30 16 16 24 25 13 3 6
0 0 447 1965 2289 1972 1832 1579 1479 1391 906 493 316 356 583 660 798 640 353 15 0 0 1 2 2 7 7 8 2 12 0 0 11 30 18 33 23 3 25 26 16 2 0
12 37 4 554 2125 1896 1576 1214 1145 797 424 349 467 335 372 539 461 538 141 0 0 0 2 1 0 0 0 4 0 0 2 7 12 35 32 46 26 4 1 0 13 3 1
24 85 6 69 1152 1802 1399 1026 882 810 501 345 451 224 301 306 425 415 103 0 0 2 1 1 0 0 0 1 1 12 0 0 1 16 35 37 34 32 4 0 0 4 9
0 0 71 23 336 1318 1505 1075 1003 1235 755 319 441 292 188 447 308 358 127 2 1 1 1 1 0 0 0 0 0 0 1 0 15 20 30 9 26 0 10 7 0 6 0
0 0 0 75 74 662 1512 1255 1255 1247 938 626 607 307 216 177 259 207 98 3 1 1 1 1 1 1 0 2 0 0 0 0 0 0 22 42 29 3 4 6 11 16 7

GFSSE_con_sbcape_111.txt.gz
CAPE
904 1023 1127 1411 1544 1645 1605 1462 1447 1567 1697 1836 1861 1881 1960 2048 2126 2216 2237 2320 2463 2537 2158 1937 2091 2069 1731 1638 1796 1927 1788 1631 1357 1417 1568 1693 1310 1168 1304 1303 1118 1002 1326
908 1105 1161 1370 1475 1577 1728 1624 1477 1632 1844 1947 1970 1963 1976 2050 2197 2235 2310 2384 2553 2565 2138 1962 2131 1819 1753 1677 1767 1714 1675 1480 1365 1392 1357 1438 1633 1267 1160 1218 1120 1104 1242
904 1117 1231 1295 1447 1554 1673 1810 1760 1900 2027 2063 2046 2001 2079 2207 2280 2270 2291 2467 2606 2612 2137 1933 1890 1788 1805 1658 1662 1622 1528 1416 1275 1271 1139 747 1010 1446 1208 1299 1274 1273 1036
827 993 1074 1217 1390 1535 1630 1740 1913 2114 2127 2079 2120 2139 2209 2302 2296 2318 2213 2181 2148 2416 2372 2010 2068 1904 1746 1647 1549 1515 1447 1293 1126 1049 815 832 1015 1321 1205 1150 1154 1145 993
782 981 1134 1150 1332 1538 1669 1825 1961 2039 2017 2030 2099 2279 2349 2350 2319 2327 2080 1999 2096 2352 2415 1978 2113 1949 1657 1383 1336 1353 1281 1138 953 782 530 613 822 1130 1207 1089 1075 1074 881
941 1116 928 1091 1283 1557 1782 1910 1986 1625 1806 1895 2016 2283 2418 2340 2340 2195 1913 1947 2145 2373 2305 2299 1936 1836 1335 1179 1195 1154 1051 924 470 449 502 765 708 1069 1029 863 834 838 783
1135 852 888 1015 1245 1576 1918 2000 1944 1656 1666 1891 1996 2153 2309 2224 2230 1933 1787 1854 1932 2189 2280 2281 1991 1468 1181 1077 1074 969 837 663 386 212 466 431 666 1083 951 656 695 536 452
959 853 884 1017 1204 1494 1820 1855 1790 1747 1779 1820 1950 2039 2169 2016 1875 1789 1740 1723 1685 1850 1916 1805 1505 1259 1100 1006 918 867 714 306 253 328 314 428 617 900 732 466 403 320 234
1274 825 891 1003 1086 1251 1463 1590 1634 1660 1544 1329 1392 1814 1963 1767 1585 1529 1619 1674 1596 1539 1528 1447 1237 1089 987 803 703 441 72 75 30 181 349 290 834 812 608 324 145 78 83
1540 1092 847 841 788 692 860 1225 1346 1434 1291 1096 1124 1331 1740 1546 1433 1269 1330 1408 1423 1305 1325 1278 941 744 594 496 365 68 52 49 0 138 359 446 903 732 462 193 62 33 34
2019 1385 1130 980 876 729 641 809 1076 1141 1175 1234 1242 1394 1276 1058 1085 1092 837 995 1028 1009 1003 848 596 380 262 166 112 85 44 37 3 165 167 482 919 621 385 160 173 58 41
2219 1884 1491 1141 1041 963 1052 701 571 730 687 720 951 790 796 776 615 661 554 588 475 511 699 595 363 122 44 35 46 62 51 33 10 47 105 333 738 576 371 91 78 52 48
2111 2302 1850 1496 1377 1322 1252 629 683 594 533 570 864 710 764 848 681 455 211 321 173 81 363 266 78 3 1 18 41 61 19 64 17 50 128 251 498 548 285 104 37 33 32
2148 2091 2030 1714 1638 1468 1044 990 909 871 695 650 528 723 732 559 540 438 187 24 72 131 44 0 0 0 0 0 23 39 28 66 20 15 116 167 257 520 181 30 29 36 22
1886 1909 1881 1817 1744 1272 1130 1514 1125 992 988 969 855 682 574 545 330 360 363 57 121 33 20 0 0 0 0 0 0 0 8 31 25 12 60 123 197 328 202 31 38 31 28
1496 1639 1596 1758 1798 1459 1278 1607 1211 948 1206 1021 804 770 605 508 371 358 262 336 191 139 9 0 0 0 0 0 0 3 15 52 32 3 28 46 87 106 137 95 28 36 44
224 1276 1393 1622 1889 1623 1588 1434 1122 876 804 590 649 651 713 602 416 324 178 156 151 131 15 0 0 0 0 0 0 1 14 57 31 1 15 8 0 0 2 36 42 64 50
0 881 1291 1688 1790 1862 1528 1244 1090 763 449 451 336 346 794 738 348 217 198 143 49 54 33 3 1 1 1 1 2 4 13 82 53 5 12 9 0 0 0 12 42 59 63
0 1 1249 1568 1821 1784 1428 1133 823 637 415 275 322 383 402 715 427 222 144 158 82 6 0 0 0 5 1 4 4 1 8 58 23 16 17 0 0 0 0 0 30 35 48
0 0 1310 1390 1876 1760 1428 1205 910 577 442 374 280 234 243 422 413 163 101 69 25 14 30 0 1 0 1 4 35 15 7 44 0 5 3 0 0 0 0 0 17 15 32
0 0 1461 1456 1686 1695 1654 1314 1144 827 562 505 266 255 213 202 310 187 112 42 34 90 108 32 0 9 1 0 40 59 19 3 1 1 3 0 0 0 0 0 3 1 7
0 0 1559 1628 1737 1693 1752 1386 1098 589 109 76 46 226 233 164 216 201 119 22 29 0 1 0 4 4 9 15 38 55 1 1 0 6 8 0 0 0 0 0 2 1 0
0 0 1426 1793 1819 1630 1497 1024 615 229 83 57 24 50 102 135 190 303 23 1 0 0 0 1 0 1 4 29 28 0 0 0 0 0 6 0 0 0 2 14 12 1 0
0 0 103 1906 1822 1549 1245 1276 995 716 575 310 114 51 80 88 112 78 1 0 0 0 0 0 0 7 6 13 1 1 0 0 0 1 6 0 0 4 2 4 1 0 0
0 0 0 0 1717 1528 1299 1117 848 406 195 7 62 53 67 47 26 33 0 0 0 0 0 0 2 4 1 0 0 0 0 0 0 0 0 25 5 1 0 0 0 0 0
0 0 0 0 0 1196 996 859 839 615 178 44 67 81 95 90 44 42 0 0 0 0 0 0 3 1 0 0 0 0 0 0 0 0 2 22 22 4 0 0 0 0 0

GFSSE_con_sbcape_114.txt.gz
CAPE
651 931 1312 1473 1431 1376 1322 1302 1301 1348 1543 1613 1605 1697 1845 1981 2005 2133 2246 2317 2395 2434 2031 1923 2203 2191 1829 1810 1954 2029 1806 1618 1582 1891 1933 1672 1524 1455 1379 1525 1385 1177 1556
732 922 1284 1505 1534 1459 1409 1374 1402 1497 1703 1721 1728 1751 1831 1976 2030 2163 2297 2406 2464 2366 1928 1981 1992 1899 1852 1832 1913 1911 1729 1508 1550 1560 1646 1606 1728 1332 1338 1374 1325 1327 1476
857 948 1172 1358 1577 1656 1574 1531 1634 1769 1823 1736 1815 1835 1959 2080 2128 2172 2298 2425 2518 2441 2024 1992 1969 1926 1752 1793 1830 1610 1644 1542 1517 1588 1602 1069 1256 1286 1277 1426 1414 1419 1211
998 1027 1090 1207 1388 1589 1676 1612 1745 1912 1889 1928 1916 1981 2090 2162 2167 2248 2264 2283 2521 2550 2064 2007 2014 1859 1701 1720 1568 1496 1531 1323 1176 1186 868 946 1125 1170 1371 1243 1327 1287 1109
1038 1079 1117 1171 1278 1447 1540 1692 1797 1930 1872 1899 1957 2135 2199 2272 2284 2237 2040 1822 2224 2647 2355 2213 2125 1791 1638 1423 1350 1348 1288 1103 997 739 531 736 842 1253 1349 1285 1238 1126 1061
886 957 1050 1120 1280 1489 1642 1763 1829 1820 1700 1742 1920 2186 2297 2349 2389 2129 1847 1771 2193 2534 2533 2421 2156 1717 1273 1215 1224 1142 1014 622 532 445 525 1000 692 1321 1301 1036 1025 913 822
855 897 902 1032 1305 1588 1860 1914 1758 1393 1571 1693 1930 2091 2220 2299 2333 1970 1744 1772 1986 2334 2404 2414 1945 1422 1158 1118 1109 899 446 475 312 208 435 373 631 1175 1080 845 924 853 783
791 824 801 1007 1323 1614 1808 1806 1477 1266 1386 1651 1856 1963 2074 2066 1994 1783 1714 1672 1710 1952 2018 1810 1508 1287 1099 1061 979 264 331 346 329 248 383 453 738 755 917 652 688 545 539
728 729 732 952 1234 1483 1595 1609 1497 1454 1559 1606 1744 1846 1871 1700 1654 1605 1658 1600 1542 1650 1695 1553 1297 1150 1076 1033 441 161 156 92 184 184 301 473 936 737 762 442 342 280 141
659 706 681 739 933 1123 1326 1389 1409 1484 1316 1223 1589 1686 1691 1514 1383 1434 1524 1460 1381 1496 1472 1392 1145 1062 1028 752 100 88 136 10 74 151 228 319 969 1057 718 390 218 114 30
801 640 664 670 566 545 822 1176 1280 1341 1102 894 966 1094 1429 1107 1097 1126 1100 1361 1240 1089 1217 1182 969 838 710 312 48 40 51 12 94 151 178 347 663 752 589 282 97 37 36
1112 788 727 678 537 395 715 864 856 1176 923 734 795 854 813 747 705 826 684 1008 1003 893 968 848 674 453 166 28 12 15 0 14 70 98 116 300 580 692 444 207 80 27 33
1671 1197 985 767 606 552 655 385 440 684 588 573 673 556 522 419 434 306 159 337 235 502 458 439 269 32 0 0 0 0 0 17 21 107 135 252 448 523 416 122 12 25 38
2118 1771 1285 975 850 738 693 349 400 469 403 505 530 404 416 360 228 80 18 13 0 0 170 140 8 0 0 0 0 0 0 4 5 46 102 214 298 654 330 91 4 13 29
2243 2216 1652 1305 1139 1074 922 562 471 454 417 368 330 410 416 330 348 107 1 0 0 0 0 0 1 0 0 0 0 0 0 0 16 13 31 56 157 414 438 121 21 13 20
2083 2227 1988 1670 1466 1304 1162 995 798 685 563 471 394 391 457 316 167 93 26 1 0 0 0 0 0 0 0 0 0 0 0 0 1 8 23 57 76 187 247 277 37 4 20
1879 2073 2177 1937 1610 1432 1160 1219 1067 869 880 789 645 448 451 227 44 46 51 20 6 0 0 0 0 0 0 0 0 0 0 15 8 14 22 34 31 83 113 164 144 75 30
1383 1656 1872 2104 1791 1507 1345 1328 1290 928 1027 838 659 636 483 341 124 17 16 10 0 0 0 0 0 0 0 0 0 0 0 11 15 9 17 19 19 38 28 34 41 46 62
0 1149 1534 1832 1866 1674 1451 1300 1315 875 893 645 358 518 592 435 227 80 33 0 0 0 0 0 1 0 1 1 2 1 7 12 44 87 17 2 0 0 0 0 6 21 35
0 2 1191 1563 1631 1773 1549 1161 916 554 404 431 345 218 169 469 230 53 11 3 47 45 0 0 0 2 1 0 2 4 2 11 28 72 6 1 1 0 0 0 9 13 28
0 0 740 1266 1541 1795 1485 1013 860 903 397 281 289 173 48 130 300 93 29 3 6 53 33 6 0 1 1 1 12 14 1 4 32 25 10 0 0 0 0 0 0 0 18
0 0 368 1076 1566 1691 1549 1401 1088 823 321 339 133 96 120 49 98 71 41 18 10 10 12 45 11 3 6 3 3 10 0 1 27 5 1 0 0 0 0 0 0 1 1
0 0 117 1043 1673 1712 1672 1050 232 23 1 6 72 142 87 85 96 134 47 17 0 7 16 0 2 2 3 3 1 2 0 0 0 1 4 0 0 0 0 0 0 10 4
0 0 0 54 1420 1659 1565 1061 711 744 611 496 358 176 79 89 88 69 45 1 4 9 8 0 0 0 0 0 16 11 0 0 0 1 2 3 1 0 0 0 2 0 0
0 0 0 0 0 915 1150 1199 900 1005 872 88 36 25 119 75 69 88 11 0 0 0 0 0 0 0 0 1 7 0 0 0 0 0 0 0 0 0 0 0 1 0 0
0 0 0 0 0 0 15 867 871 870 597 72 69 57 54 53 30 53 2 0 0 0 0 0 0 0 1 6 9 0 0 0 0 0 0 0 0 0 0 3 1 0 0

GFSSE_con_sbcape_117.txt.gz
CAPE
606 1003 1167 1393 1473 1340 1236 1153 1149 1231 1358 1546 1694 1717 1762 1887 1988 2066 2145 2261 2289 2313 2008 1851 2214 2251 1862 1707 1786 1714 1770 1824 1928 2054 2078 1875 1676 1658 1602 1692 1511 1247 1436
668 1094 1205 1380 1461 1412 1351 1250 1254 1389 1481 1612 1712 1796 1776 1880 2038 2151 2241 2324 2349 2221 1941 1980 1996 1883 1821 1800 1920 1808 1754 1796 1846 1858 1903 1800 1631 1387 1482 1570 1515 1156 1427
846 1127 1220 1321 1442 1467 1504 1455 1506 1657 1634 1659 1683 1809 1883 2034 2167 2227 2281 2328 2336 2244 1998 2049 2014 1936 1872 1878 1791 1790 1778 1739 1647 1783 1766 1250 1280 1351 1499 1450 1394 1397 1328
915 1132 1240 1331 1427 1496 1501 1535 1623 1745 1705 1717 1742 1870 1993 2098 2196 2311 2332 2297 2352 2402 2054 2084 2038 1846 1844 1810 1717 1709 1652 1528 1439 1401 964 1055 1162 1467 1514 1371 1334 1355 1344
905 1058 1179 1339 1472 1528 1483 1551 1655 1747 1685 1694 1779 1945 2090 2179 2258 2349 2199 2255 2438 2435 2159 1953 1743 1727 1633 1434 1471 1486 1386 1237 1067 777 667 798 982 1279 1487 1436 1417 1376 1280
896 934 1052 1166 1378 1563 1590 1638 1691 1597 1490 1543 1736 1975 2188 2267 2323 2166 1774 1995 2452 2467 2420 1939 1745 1594 1269 1195 1259 1240 1075 969 637 483 680 911 794 1366 1354 1298 1338 1231 1148
920 884 928 1019 1221 1478 1752 1772 1704 1504 1428 1506 1756 1930 2120 2285 2218 1893 1612 1834 2064 2453 2407 2286 1743 1337 1149 1130 1151 876 688 558 338 309 384 456 733 1222 1181 1079 1074 1041 1079
787 852 931 1023 1188 1433 1663 1709 1575 1434 1417 1498 1661 1797 2020 2076 1968 1746 1647 1694 1877 2082 2076 1751 1358 1201 1084 1084 899 535 462 489 279 239 311 415 714 871 966 897 925 869 802
667 768 850 1010 1232 1439 1582 1499 1203 1255 1401 1454 1605 1637 1782 1781 1707 1600 1628 1605 1719 1735 1655 1443 1167 1050 1024 982 430 368 219 348 189 242 360 463 912 510 477 644 645 647 596
582 642 737 866 1119 1229 1321 1212 1025 1083 1309 1385 1505 1538 1548 1517 1520 1474 1514 1445 1493 1554 1511 1325 1077 987 993 588 269 158 18 142 163 173 271 399 735 970 908 664 553 384 214
521 581 628 757 839 930 1175 1229 1145 1197 1215 1292 1397 1446 1264 995 1096 1272 1233 1317 1220 1345 1301 1148 960 892 601 37 61 64 16 17 82 146 170 460 715 837 846 559 422 248 91
533 509 515 621 620 579 1024 1127 1246 1267 972 775 1019 1013 935 741 666 829 941 1172 1028 1099 1058 960 809 610 178 4 16 40 14 0 81 136 141 356 815 876 856 481 233 149 66
523 540 536 554 453 604 875 841 740 952 813 465 480 556 646 506 487 407 371 625 586 665 516 492 337 64 12 0 0 0 0 0 8 97 159 353 793 865 727 369 161 79 37
858 642 682 647 550 536 490 580 652 681 639 789 542 410 574 411 238 113 54 90 55 48 79 24 37 0 0 0 0 0 0 0 0 61 109 198 531 942 588 317 114 15 17
1286 1062 837 660 558 557 467 365 369 512 535 547 575 454 544 554 456 14 0 0 0 0 70 3 0 0 0 0 0 0 0 0 0 10 53 115 168 428 597 320 114 19 5
1811 1693 1170 713 534 538 583 324 319 318 355 188 299 523 381 457 370 92 0 0 0 0 1 0 0 0 0 0 0 0 0 0 0 0 0 36 32 254 371 530 195 34 8
1899 2150 1641 1092 766 699 697 514 322 300 293 276 215 156 367 265 188 109 19 0 0 0 0 0 0 0 0 0 0 0 0 0 0 0 0 15 21 62 103 170 219 157 48
1651 1984 2142 1854 1295 1026 860 892 718 504 454 386 359 282 354 285 106 55 65 24 0 0 0 0 0 0 0 0 0 0 0 0 0 0 0 7 25 58 25 81 135 144 91
1264 1811 2045 2067 1775 1458 1160 1072 1005 800 760 693 608 536 346 350 146 38 52 17 0 0 0 1 1 0 1 0 0 0 0 0 0 3 13 16 34 18 44 47 71 46 34
37 1259 1875 2059 1978 1700 1528 1030 985 641 832 683 677 679 504 498 236 90 27 0 0 1 4 1 1 1 0 0 2 3 1 8 12 21 23 44 10 0 2 5 3 15 30
0 0 1123 1602 1890 1736 1468 1136 1117 991 781 659 646 633 602 638 284 107 46 0 9 77 43 3 1 1 1 1 1 3 2 2 8 36 26 30 1 0 0 0 0 0 11
0 0 0 997 1572 1758 1678 1507 1416 1303 677 696 258 193 324 352 270 137 67 27 46 123 40 20 16 9 8 1 7 0 1 3 5 15 13 5 1 0 0 0 0 0 1
0 0 0 246 971 1548 1846 1535 272 108 58 102 146 270 190 120 141 190 87 43 39 82 63 53 37 29 10 10 1 0 1 1 5 6 3 6 1 0 0 0 0 0 0
0 0 0 0 96 1275 1525 1369 760 1056 901 800 677 577 247 117 98 93 65 32 35 56 51 48 15 0 15 9 7 0 0 0 5 1 6 1 1 0 0 0 0 0 7
0 0 0 0 0 0 49 1122 890 874 720 257 362 364 160 91 131 94 69 35 26 71 91 21 0 1 0 4 2 0 5 0 0 0 4 0 1 0 0 0 0 0 5
0 0 0 0 0 0 0 0 872 934 547 52 23 132 148 72 58 67 69 43 41 38 4 0 0 1 0 0 0 0 0 0 1 0 0 1 0 1 0 0 0 0 1

GFSSE_con_sbcape_120.txt.gz
CAPE
451 895 1132 1431 1375 1241 1159 1108 1131 1271 1469 1695 1835 1901 1859 1887 1882 1945 2084 2211 2202 2200 1895 1782 2211 2196 2085 1778 1871 1838 1860 1902 1824 1863 2206 2034 1796 1721 1568 1738 1570 1295 1583
522 969 1143 1423 1397 1315 1227 1170 1182 1366 1581 1723 1750 1786 1831 1899 1964 2088 2215 2191 2237 2206 1843 1812 2166 2137 1770 1877 1818 1820 1800 1737 1627 1661 1681 1750 1699 1509 1622 1617 1505 1436 1521
883 1021 1139 1386 1430 1396 1358 1356 1371 1547 1703 1737 1718 1755 1879 1995 2061 2133 2195 2173 2187 2202 1938 1998 1897 1813 1760 1898 1735 1783 1886 1831 1660 1684 1823 1414 1525 1532 1641 1679 1664 1641 1461
1019 1035 1110 1331 1413 1473 1406 1458 1467 1622 1679 1730 1752 1833 1977 2084 2139 2193 2149 2072 2189 2252 2018 2042 1972 1845 1841 1752 1674 1750 1760 1695 1599 1397 990 1139 1430 1630 1582 1512 1645 1647 1456
996 1043 1111 1301 1370 1471 1448 1508 1531 1504 1513 1598 1727 1943 2077 2163 2237 2250 2051 2001 2224 2307 2083 1669 1796 1779 1606 1455 1477 1511 1471 1337 1146 862 769 913 1269 1488 1563 1550 1486 1579 1534
1004 1084 1119 1188 1317 1444 1530 1571 1617 1431 1344 1424 1644 1941 2113 2213 2284 2153 1965 2038 2269 2355 1757 1535 1612 1537 1235 1258 1271 1233 1202 960 690 566 554 1109 953 1520 1354 1342 1363 1263 1213
941 926 1083 1162 1318 1430 1639 1681 1558 1342 1253 1374 1615 1814 1993 2162 2166 1869 1828 2073 2203 2265 2164 1962 1610 1233 1077 1114 1085 964 887 715 500 458 637 681 697 1306 1331 1182 1226 1217 1176
832 812 1074 1136 1354 1453 1579 1601 1427 1257 1213 1339 1494 1688 1923 1956 1807 1570 1537 1765 1943 2030 1976 1621 1228 1115 1012 1001 818 688 653 572 345 291 387 356 657 936 1140 939 1113 1014 974
691 769 853 1100 1272 1378 1499 1484 1326 1232 1234 1295 1405 1544 1694 1661 1493 1439 1459 1583 1759 1837 1656 1277 1024 953 968 858 633 475 530 441 249 223 313 290 762 590 431 497 840 1021 1018
660 768 847 882 1035 1075 1243 1279 1216 1181 1211 1274 1296 1376 1401 1426 1361 1367 1334 1402 1524 1536 1429 1158 886 848 872 561 475 201 249 271 141 162 253 351 544 444 580 554 640 538 607
611 681 815 1014 1065 1146 1103 1127 1025 1116 1164 1206 1250 1222 1086 1068 1138 1218 1149 1228 1322 1333 1254 1019 815 742 526 324 217 22 0 31 67 86 161 429 406 414 406 564 437 462 393
618 609 813 950 911 957 992 1115 1084 1092 1175 1118 1178 1007 780 657 746 921 1019 1073 1116 1117 1051 859 714 441 37 16 11 14 0 0 0 51 120 454 790 1031 874 661 602 371 253
526 605 782 761 674 738 945 907 982 959 913 615 771 778 654 419 510 591 615 740 601 815 550 442 281 69 15 1 1 0 0 0 0 35 123 299 605 910 798 824 491 285 154
384 523 617 686 673 797 920 829 656 813 882 701 405 407 750 543 303 204 279 327 229 159 82 1 66 5 0 0 0 0 0 0 0 0 76 138 406 932 864 756 374 201 144
353 392 541 637 675 685 599 615 535 587 846 810 582 389 803 786 470 88 56 65 39 0 0 1 0 0 0 0 0 0 0 0 0 0 0 40 130 471 664 517 249 115 17
1019 422 471 622 503 475 467 432 397 424 505 508 623 611 757 671 421 148 19 6 1 1 117 28 0 0 0 0 0 0 0 0 0 0 0 0 0 141 338 499 257 134 16
1530 1059 642 633 460 457 470 291 260 306 295 161 243 450 409 561 416 195 85 5 0 0 0 0 0 0 0 0 0 0 0 0 0 0 0 0 0 1 121 265 329 257 109
1608 1660 1314 892 625 469 485 311 207 134 187 162 123 200 323 272 227 109 155 26 0 0 0 0 0 1 1 0 0 0 0 0 0 0 0 0 0 4 8 121 134 143 164
1300 1824 1970 1453 987 658 535 483 298 161 167 125 94 146 286 330 176 230 221 61 0 0 0 0 0 0 1 1 0 0 0 0 0 0 0 0 0 3 23 20 43 54 87
693 1621 2063 2049 1696 1049 769 713 598 432 354 299 298 289 170 324 148 134 109 13 12 34 14 1 1 1 0 0 1 1 0 0 0 0 0 1 15 45 21 25 6 38 56
0 0 891 2032 2021 1599 1361 1023 990 902 793 687 524 462 313 341 199 107 93 12 35 81 43 0 1 1 1 0 1 2 1 0 4 5 4 11 45 45 18 27 36 6 11
0 0 0 425 1822 1729 1676 1446 1392 1237 1040 968 758 553 559 489 258 207 143 49 57 94 85 39 41 4 9 2 5 3 15 2 10 2 14 31 28 15 1 5 11 0 0
0 0 0 0 549 1743 1846 1591 485 330 178 475 348 503 573 610 387 321 161 99 80 134 174 98 69 46 22 0 7 18 6 4 3 11 6 11 18 2 1 4 0 0 0
0 0 0 0 0 216 1577 1516 1269 1397 1268 1111 968 751 574 550 548 379 187 83 105 118 200 128 96 81 30 0 2 0 0 0 2 1 7 8 11 1 1 2 0 0 0
0 0 0 0 0 0 0 1085 1002 1261 1052 371 470 523 642 168 225 269 130 56 82 87 116 97 98 81 57 39 0 2 5 0 0 0 1 9 20 14 2 0 0 0 0
0 0 0 0 0 0 0 0 102 896 524 414 308 472 342 102 65 72 77 55 47 58 82 110 69 39 15 17 0 1 3 16 5 0 1 1 4 1 1 0 1 0 0

GFSSE_con_sbcape_123.txt.gz
CAPE
696 1172 1192 1386 1324 1238 1148 1124 1194 1473 1760 1872 1682 1613 1681 1748 1785 1855 1963 2067 2082 2064 1882 1812 2162 2083 1976 2023 2196 1849 1937 1926 1828 2004 2212 2130 1909 1802 1705 1876 1714 1457 1908
968 1239 1239 1353 1380 1337 1255 1180 1230 1541 1824 1939 1810 1737 1738 1815 1881 1996 2075 2110 2104 2165 1792 1827 2189 2108 1779 1914 1844 1787 1776 1668 1715 1700 2055 1951 1806 1786 1726 1682 1531 1671 1832
1285 1344 1476 1313 1393 1399 1353 1340 1419 1741 1918 1959 1893 1814 1859 1968 2081 2095 2056 2067 2138 2168 1805 1765 1841 1705 1635 1813 1726 1763 1700 1634 1713 1809 1946 1713 1719 1744 1668 1719 1470 1883 1810
1318 1435 1570 1301 1356 1445 1360 1413 1546 1806 1896 1861 1877 1917 1980 2088 2156 2125 2026 1958 2099 2252 1962 1894 1854 1788 1778 1608 1629 1741 1696 1561 1539 1599 1824 1742 1522 1687 1614 1578 1762 1767 1720
1305 1419 1653 1356 1352 1451 1450 1463 1558 1673 1652 1694 1813 2028 2076 2140 2214 2140 1870 1871 2111 2314 2046 1945 1919 1799 1562 1361 1439 1538 1544 1374 1146 1406 1568 1597 1653 1443 1526 1409 1595 1653 1432
1366 1397 1339 1331 1359 1440 1555 1568 1570 1497 1461 1549 1743 2010 2134 2180 2222 2017 1768 1871 2117 2274 1778 1661 1817 1582 1227 1184 1245 1310 1233 977 1059 1626 1572 1426 1561 1218 1549 1439 1535 1470 1411
1503 1522 1658 1282 1405 1492 1691 1709 1508 1359 1375 1562 1799 1935 2071 2173 2141 1894 1731 1801 1944 2038 1769 1692 1673 1224 1090 1059 1078 1030 833 779 1582 1592 1517 1441 1454 1283 1244 1104 1186 1288 1348
1630 1658 1767 1357 1414 1541 1628 1634 1362 1239 1281 1527 1760 1870 2032 2044 1898 1806 1753 1762 1814 1795 1725 1578 1168 1042 997 953 803 685 610 777 1205 1522 1491 1339 855 581 658 814 615 743 1033
1523 1736 1833 1908 1684 1410 1517 1501 1260 1173 1230 1389 1611 1761 1877 1788 1624 1618 1734 1789 1804 1723 1490 1159 955 861 894 759 529 565 545 519 1357 1472 1311 1242 747 334 226 313 507 625 906
1501 1685 1788 1905 1987 1997 1946 1318 1145 1123 1149 1257 1401 1561 1590 1437 1384 1269 1413 1630 1616 1626 1323 1035 792 788 788 556 310 334 372 271 1169 1088 1185 1253 598 688 591 460 434 502 497
1388 1606 1730 1820 1891 1975 1781 1721 1142 1079 1078 1138 1271 1319 1334 1787 1837 1538 1368 1391 1472 1403 1137 880 681 678 521 309 175 43 149 1132 1126 1089 1114 401 609 379 224 256 395 416 528
1372 1413 1548 1786 1757 1747 1472 1503 1835 1803 1665 1634 1664 1762 1879 1924 1950 1669 1360 1116 1255 1197 988 766 592 222 352 954 885 65 853 924 1014 1085 1011 288 615 482 261 216 468 344 251
1094 1339 1374 1560 1656 1465 1376 1333 1632 1624 1389 1504 1632 1902 1929 1789 1872 1869 2065 1642 1768 1084 1520 988 915 1051 466 334 1065 1096 795 632 867 953 820 138 434 515 513 590 580 474 509
627 1038 1286 1384 1418 1383 1462 1271 1279 1232 1088 1083 1108 1290 1287 1453 1795 1916 1956 1944 1803 1614 1603 1330 1145 460 1008 724 793 930 860 788 669 730 695 101 115 483 586 437 529 457 303
934 719 1022 991 1114 1031 1307 1286 1150 1044 1076 1049 934 1090 1210 1265 1278 1562 1767 1665 1761 1718 1467 1229 885 1033 937 635 472 407 396 513 622 633 776 72 48 322 742 786 485 294 247
1394 998 995 1080 1278 1170 1170 1235 995 1036 1117 1074 1049 1144 1329 1432 1138 1118 1317 1500 1258 1487 1297 1122 764 850 907 622 301 19 111 250 293 373 566 577 26 15 274 672 368 244 188
1118 1636 1048 1148 1274 1419 1345 1271 1000 887 853 878 909 1055 1272 1213 1228 951 798 1137 1278 1034 963 668 260 84 680 259 86 6 141 171 179 153 318 559 314 0 12 185 273 332 145
243 1915 1435 1056 1182 1313 1506 1388 962 844 681 596 647 614 675 899 984 755 543 778 993 527 340 103 5 15 535 492 419 234 169 122 142 69 75 199 385 444 96 25 118 226 188
212 1659 1964 1402 1290 1421 1473 1416 1275 947 551 383 459 439 465 695 794 534 539 524 621 656 319 48 4 25 1 3 319 302 131 63 117 41 49 70 138 190 292 121 61 83 79
0 1376 2142 1995 1623 1484 1372 1335 1202 1060 1001 1001 800 881 719 493 542 692 658 519 448 339 334 224 158 21 25 22 5 25 24 40 70 148 90 85 152 178 264 320 423 65 17
0 3 1946 2221 1932 1609 1338 1492 1323 1220 1163 1051 915 944 986 1034 501 797 700 432 294 456 329 219 179 40 37 25 6 6 6 12 14 16 121 102 131 154 252 210 430 62 1
0 0 0 725 2410 1978 1767 1791 1691 1583 1402 1376 1110 969 1015 1068 1095 1050 772 515 332 472 369 251 100 54 49 34 73 41 19 22 16 104 41 71 198 292 196 208 132 45 76
0 0 0 0 0 2200 2365 2226 1836 1803 1525 1383 1243 980 850 995 1016 993 919 654 390 515 263 125 100 153 65 80 188 364 44 114 13 6 20 83 90 129 152 126 104 9 55
0 0 0 0 0 86 1498 2426 2009 1879 1778 1729 1357 1004 848 996 1197 1126 885 584 386 470 600 311 380 611 458 145 86 149 128 47 80 74 30 42 62 134 67 84 105 14 56
0 0 0 0 0 0 6 878 2163 2061 2412 2171 1838 1306 1032 890 1222 1026 728 552 552 497 419 319 316 644 437 347 126 66 65 8 19 60 86 36 45 46 73 30 131 29 40
0 0 1 0 0 0 0 0 0 1500 1985 1619 1890 1533 1127 1078 758 657 492 488 349 253 414 302 454 666 403 256 235 143 80 27 11 36 12 37 23 30 80 31 15 18 1

GFSSE_con_sbcape_126.txt.gz
CAPE
1049 1682 1237 1345 1412 1405 1326 1431 1564 1675 1747 1672 1698 1727 1748 1774 1750 1806 2029 2119 2093 2153 1876 1634 1982 2004 1625 1765 2192 1898 2023 1931 1868 1983 2196 1962 1751 1582 1613 1874 1363 1457 1715
1021 1666 1204 1310 1376 1399 1386 1409 1605 1800 1995 1847 1742 1749 1772 1795 1851 1975 2108 2113 2109 2180 1750 1660 1831 1774 1666 2299 1861 1800 1842 1718 1822 2071 2008 1822 1749 1842 1624 1613 1563 1551 1747
1239 1758 1612 1264 1363 1422 1464 1526 1786 2050 2174 1978 1854 1848 1902 1970 2015 2081 2091 2076 2171 2262 1855 1688 1695 1563 1646 1901 1726 1729 1668 1665 1630 2003 2055 1491 1644 1807 1504 1480 1584 1683 1936
1477 1908 1693 1269 1371 1414 1436 1530 1849 2186 2219 2090 2002 1989 2061 2128 2147 2162 2074 2039 2177 2276 1978 1747 1708 1685 1648 1701 1662 1639 1616 1611 1574 1729 1777 1488 1382 1663 1590 1294 1873 1767 1751
1617 1845 1898 1371 1391 1433 1422 1548 1780 2016 2006 2025 2003 2144 2261 2302 2263 2175 1928 1952 2219 2361 2081 1877 1835 1754 1524 1429 1518 1521 1467 1372 1423 1438 1630 1451 1496 1545 1536 1329 1309 1362 1207
1657 1785 1370 1327 1439 1509 1545 1595 1743 1744 1740 1820 1964 2231 2370 2413 2361 2074 1810 1964 2291 2394 2368 2071 1911 1532 1210 1221 1342 1348 1165 1091 1126 1518 1415 1422 1346 1630 1525 1475 1107 1215 1173
1869 1993 2088 1299 1464 1607 1713 1700 1646 1531 1556 1759 1994 2125 2248 2352 2287 1921 1765 1902 2165 2182 1924 2086 1743 1281 1105 1087 1192 1099 859 993 1576 1234 1424 1449 1382 1383 1187 855 697 811 1429
2189 2270 2245 1441 1508 1633 1693 1625 1431 1368 1459 1700 1939 2051 2198 2206 2029 1841 1746 1792 1906 1731 1562 1695 1282 1135 1021 988 960 782 661 844 1200 1395 1161 1310 1004 878 631 387 384 555 781
2460 2595 2600 2176 1836 1526 1640 1499 1289 1280 1398 1632 1840 1987 2087 1984 1794 1778 1739 1720 1801 1603 1563 1365 1036 925 937 816 682 630 623 784 1400 1278 1120 1317 912 291 91 214 305 403 608
2604 2738 2822 2534 2294 2206 2090 1313 1150 1176 1280 1536 1703 1815 1841 1722 1676 1710 1700 1677 1751 1606 1404 1113 861 794 815 474 421 423 381 370 1372 1151 1099 1256 274 20 63 413 475 816 835
2466 2654 2821 2722 2548 2517 2391 1958 1093 1055 1138 1294 1538 1531 1621 1948 2166 2080 1732 1692 1649 1536 1169 937 756 708 543 250 141 183 209 1073 1164 1098 1260 305 322 332 371 441 477 629 690
2375 2520 2631 2696 2673 2673 2330 2452 2208 1973 1703 1706 1828 2054 1995 1888 2043 1743 1510 1420 1363 1355 1046 774 662 486 537 1260 1024 93 998 1049 1114 1033 1261 405 911 670 483 311 458 424 681
1865 2192 2361 2635 2653 2581 2337 2320 2192 2201 2042 1989 2012 2145 2054 2132 2144 1959 2040 1881 1902 1154 1631 1042 991 1235 1185 1282 1231 1103 1000 1148 854 860 823 297 676 459 395 191 212 331 372
401 1891 2092 2320 2568 2576 2235 2159 2303 2240 2124 2159 2102 2381 2299 2309 2267 1992 2010 1849 1794 1789 1627 1408 1341 1236 1461 1411 1222 1206 1131 912 681 672 892 141 327 474 462 172 240 325 307
0 1198 1731 2108 2342 2348 2338 2063 2088 2135 2133 1834 1806 2062 2261 2212 2238 2192 2200 2012 1953 1836 1729 1575 1400 1527 1382 1214 1110 1067 1045 959 779 646 743 67 59 160 555 337 486 335 195
0 332 1707 1891 2037 2046 2108 2136 2158 2091 1926 1896 1669 1750 1931 2140 2203 2197 2243 2109 2143 2082 1793 1625 1447 1397 1208 1074 979 857 690 598 606 519 552 713 11 45 252 655 479 351 183
0 0 992 1789 2036 2045 1858 2115 2111 1870 1896 1833 1853 1622 1763 2175 2243 1864 2015 2082 1874 1932 1884 1750 1493 1324 1180 1050 892 861 626 529 427 510 508 550 352 0 1 218 550 243 164
0 0 0 1369 1776 2087 1958 1887 1928 1868 1717 1830 1871 2025 1623 1854 2031 1829 1511 1763 2109 2073 1958 1629 1391 1163 1246 1111 1044 905 704 615 638 568 491 453 527 495 59 6 123 204 191
0 0 0 1042 1855 1998 2043 1877 1849 1853 1542 1674 1763 1755 1856 1589 1951 1671 1400 1364 1945 1292 1172 1085 926 1251 1180 1296 1038 969 819 698 694 527 460 353 430 346 393 37 6 50 99
0 0 0 278 2061 2088 2069 1987 1780 1827 1690 1612 1425 1330 1421 1352 1440 1566 1258 1220 1331 1399 1095 933 882 709 1185 1241 837 825 799 792 690 657 515 340 243 333 470 430 432 171 18
0 0 0 40 1850 2403 1991 1759 1758 1767 1900 1609 1640 1552 1603 1225 1115 1198 1455 1287 1068 1113 1157 1062 908 697 831 944 914 601 456 555 483 459 684 454 378 394 448 421 592 607 252
0 0 0 119 982 2452 2242 1791 1703 1785 1648 1705 1720 1661 1675 1751 1513 1156 1377 1115 825 1462 1035 1037 1033 559 791 678 480 425 627 474 299 165 488 460 586 488 412 448 576 419 422
1 0 0 10 1474 2312 2510 2355 1846 1750 1808 1854 1917 1819 1751 1703 1789 1551 1752 1876 1503 1408 1110 967 854 691 570 452 843 442 394 216 183 359 184 397 388 402 379 290 352 307 384
7 5 7 10 5 1333 1896 2297 2464 2358 2436 2515 2472 2277 1996 1737 1686 1791 1755 1796 1669 1135 1367 893 616 822 729 334 285 837 487 374 204 160 352 54 81 155 153 243 274 277 178
6 3 2 1 3 9 998 529 1813 2485 2623 2740 2465 2290 2021 1679 1707 1721 1817 2048 1857 1182 1269 1053 672 831 1183 1383 942 619 558 680 450 217 205 370 160 172 275 257 53 178 181
15 7 2 2 3 4 2 0 40 1364 2669 2475 2671 2413 1906 1600 1496 1578 2172 1970 1646 1288 1140 1250 876 1077 1319 1548 1156 639 453 469 314 229 193 194 173 134 148 202 154 308 331

GFSSE_con_sbcape_129.txt.gz
CAPE
604 2096 1322 1492 1705 1714 1794 1773 1690 1643 1714 1775 1806 1907 1939 1946 1948 2044 2205 2336 2405 2463 2034 1740 1647 1649 1584 1586 1659 1727 1876 1909 1856 2123 2098 1855 1694 1653 1573 1726 1493 1454 1759
900 2172 1274 1456 1672 1705 1836 1834 1789 1790 1862 1913 1909 1938 1948 1950 1972 2147 2275 2235 2325 2304 1775 1733 1801 1637 1690 1996 1785 1789 1882 1716 1975 2040 2197 1960 1593 1469 1584 1340 1224 1446 1630
1061 2221 1724 1363 1624 1733 1904 1997 2019 2099 2096 2071 2044 2012 2033 2040 2093 2241 2225 2208 2320 2332 1757 1696 1651 1553 1759 2009 1647 1740 1780 1698 1840 1761 1709 1419 1394 1572 1450 1682 1711 1894 1915
1263 2246 1939 1320 1545 1702 1816 2026 2189 2422 2293 2116 2095 2126 2142 2160 2228 2278 2181 2109 2343 2418 1938 1705 1613 1653 1674 1736 1645 1620 1704 1605 1667 1595 1394 1293 1313 1599 1583 1663 1654 1770 1555
1515 2166 1938 1335 1463 1620 1745 1952 2184 2327 2174 2076 2082 2267 2307 2343 2364 2318 2067 2047 2327 2444 2037 1835 1838 1666 1560 1490 1484 1521 1590 1495 1479 1381 1131 1462 1478 1498 1491 1696 1457 1412 1153
1733 1995 1210 1332 1396 1599 1759 1980 2123 2085 2008 1966 2042 2302 2442 2492 2451 2250 1952 2080 2402 2462 2374 2154 1942 1546 1262 1290 1348 1369 1301 1319 1169 1540 1369 1378 1364 1551 1383 1479 1252 967 940
1906 2153 2221 1365 1407 1618 1828 2003 1997 1923 1898 1967 2121 2277 2410 2484 2414 2074 1898 2083 2339 2433 2417 2297 1706 1313 1161 1189 1253 1144 1070 1113 1329 1515 1329 1326 1392 1391 956 877 935 611 675
2063 2370 2779 1431 1468 1570 1717 1743 1762 1740 1789 1937 2119 2232 2388 2375 2165 1968 1892 1974 2157 1990 1859 1825 1347 1189 1095 1119 1083 867 883 880 1133 1361 1334 1409 1263 1080 751 424 326 355 482
2399 2706 3378 2154 1771 1461 1537 1499 1487 1564 1658 1838 2010 2123 2233 2129 1924 1849 1855 1903 1990 1625 1567 1497 1135 999 1013 996 843 723 794 787 1303 1155 1126 1153 1049 936 586 384 230 265 496
2907 2924 3427 2564 2139 1909 1763 1273 1196 1307 1449 1688 1861 1977 1989 1867 1763 1730 1712 1723 1833 1616 1532 1241 938 892 879 750 589 576 580 586 1355 1270 1170 929 857 808 484 355 277 359 350
2561 2933 3417 2939 2550 2298 2170 1716 1060 1125 1254 1423 1662 1712 1780 1974 2083 2004 1664 1650 1732 1546 1271 1006 817 785 629 376 369 367 350 980 1243 1161 1222 234 314 159 193 429 383 700 819
383 2710 2960 3134 2853 2729 2336 2420 1892 1713 1594 1680 1789 2113 2040 1857 2051 1779 1487 1529 1593 1453 1045 817 726 610 526 1010 902 183 895 1181 753 897 1265 242 404 311 427 563 383 277 246
0 1222 2893 3091 3088 2999 2689 2515 2411 2174 1933 2004 2125 2340 2130 2171 2634 2216 2188 2032 2073 1341 1656 941 956 1128 1016 1231 936 945 915 1167 813 1028 468 140 858 724 697 213 167 95 112
0 0 2370 2726 3027 3504 2680 2324 2321 2522 2614 2376 2172 2942 2798 2471 2969 2513 2064 2362 2272 1838 1668 1350 1247 1174 1166 1282 1044 1333 1456 1362 659 940 455 364 755 1022 546 315 257 76 79
0 0 0 2727 2992 3322 3473 2446 2554 2694 2330 2521 2577 2834 2764 2264 3002 2521 2587 2161 2048 1903 1792 1823 1477 1360 1499 1300 1118 1153 1318 1312 1122 776 894 111 263 634 794 466 223 207 196
0 0 0 1136 2920 2893 3072 3441 2964 2839 2396 2481 2397 2378 3218 2760 3149 2522 2462 2478 2324 2201 2153 2035 1678 1480 1620 1350 1238 1061 1201 1179 936 1189 635 196 69 117 411 913 573 291 241
0 0 0 910 2538 2920 3165 2983 2734 2216 2510 2596 2408 2537 2614 2851 3101 2687 2676 2520 2200 2468 2455 2193 1805 1902 1548 1412 1278 1263 943 836 752 849 678 414 8 4 61 308 701 592 310
0 0 0 0 2247 3218 2865 2696 2472 2285 2479 2125 2159 2293 1995 2538 2818 2823 2311 2549 2589 2414 2391 2361 2002 1886 1783 1422 1362 1256 989 1007 1013 897 867 906 242 292 6 0 309 499 421
0 0 0 0 3 3015 2938 2775 2812 2800 2541 2244 2158 2128 2321 2192 2567 2492 1950 2192 2959 2221 2453 2228 2012 1904 1490 1440 1415 1284 1109 1103 1117 660 816 789 848 551 599 32 7 179 110
0 0 0 0 0 2328 2980 2807 2587 2636 2506 2383 2045 1928 2530 2221 2174 2787 2111 2033 2105 2320 2089 1930 1705 1625 1627 1275 1099 1166 1122 1123 948 997 759 630 586 574 614 335 215 77 3
1 0 0 0 0 66 2556 2522 2702 2406 2439 2417 2190 1943 2261 2237 2179 2149 2100 1813 1660 1796 1812 1678 1418 1574 1510 1477 1470 1229 1552 1370 1131 928 1000 835 624 504 634 725 712 701 73
13 19 1 0 0 0 1716 2591 2493 2586 2389 2371 2079 2021 1938 2173 2448 1839 1784 1981 1477 1324 1697 1445 1238 1318 1530 1444 1311 907 697 687 1059 975 810 810 1112 546 462 517 468 547 664
12 3 3 4 0 0 119 2061 2268 2775 2476 2346 2064 1990 2234 2363 2172 1701 1563 2141 1602 1498 1842 1359 1300 1148 1153 1044 1175 850 550 262 95 880 794 576 895 798 712 500 478 530 483
16 9 5 9 11 4 21 133 2125 1935 2182 2040 1868 1909 1910 2355 2240 1974 1706 2021 2077 1919 1961 1898 1129 1056 982 813 1137 1416 1536 948 354 289 675 546 469 589 502 496 445 469 423
17 15 4 9 7 5 0 8 1832 1659 2234 1908 1848 1864 2341 2533 2421 2377 2139 2186 2527 2521 2235 2376 1274 1006 1067 1228 823 785 1246 1500 1104 748 450 489 499 258 193 235 304 479 353
15 12 10 5 4 8 0 4 223 1946 1342 909 909 1715 2322 2104 2077 2143 2235 2240 2534 2691 2175 1993 2026 871 1257 1260 1240 1063 1175 815 733 800 803 705 399 416 240 229 485 318 344